[[{"header":{"parameterUnit":"m.s-1","parameterCategory":1,"la1":30.6,"la2":29.2853,"lo1":-89.7004,"lo2":-87.6739,"dy":0.0162,"dx":0.0183,"nx":112,"ny":82,"refTime":"2026-04-06T12:00:00:Z","depth":0,"parameterNumber":2,"parameterNumberName":"U-component_of_WINDS"},"data":[0.0,0.0,0.0,0.0,0.0,0.0,0.0,0.0,0.0,0.0,0.0,0.0,0.0,0.0,0.0,0.0,0.0,0.0,0.0,0.0,0.0,0.0,0.0,0.0,0.0,0.0,0.0,0.0,0.0,0.0,0.0,0.0,0.0,0.0,0.0,0.0,0.0,0.0,0.0,0.0,0.0,0.0,0.0,0.0,0.0,0.0,0.0,0.0,0.0,0.0,0.0,0.0,0.0,0.0,0.0,0.0,0.0,0.0,0.0,0.0,0.0,0.0,0.0,0.0,0.0,0.0,0.0,0.0,0.0,0.0,0.0,0.0,0.0,0.0,0.0,0.0,0.0,0.0,0.0,0.0,0.0,0.0,0.0,0.0,0.0,0.0,0.0,0.0,0.0,0.0,0.0,6.3214,6.5793,6.6733,6.5214,6.2798,5.9496,5.5133,0.0,0.0,0.0,0.0,0.0,0.0,0.0,0.0,0.0,0.0,0.0,0.0,0.0,0.0,0.0,0.0,0.0,0.0,0.0,0.0,0.0,0.0,0.0,0.0,0.0,0.0,0.0,0.0,0.0,0.0,0.0,0.0,0.0,0.0,0.0,0.0,0.0,0.0,0.0,0.0,0.0,0.0,0.0,0.0,0.0,0.0,0.0,0.0,0.0,0.0,0.0,0.0,0.0,0.0,0.0,0.0,0.0,0.0,0.0,0.0,0.0,0.0,0.0,0.0,0.0,0.0,0.0,0.0,0.0,0.0,0.0,0.0,0.0,0.0,0.0,0.0,0.0,0.0,0.0,0.0,0.0,0.0,0.0,0.0,0.0,0.0,0.0,0.0,0.0,0.0,0.0,0.0,0.0,0.0,0.0,0.0,0.0,0.0,0.0,0.0,0.0,0.0,0.0,0.0,6.0389,6.6163,6.6398,6.6071,6.5858,6.2458,5.8976,5.5765,0.0,0.0,0.0,0.0,0.0,0.0,0.0,0.0,0.0,0.0,0.0,0.0,0.0,0.0,0.0,0.0,0.0,0.0,0.0,0.0,0.0,0.0,0.0,0.0,0.0,0.0,0.0,0.0,0.0,0.0,0.0,0.0,0.0,0.0,0.0,0.0,0.0,0.0,0.0,0.0,0.0,0.0,0.0,0.0,0.0,0.0,0.0,0.0,0.0,0.0,0.0,0.0,0.0,0.0,0.0,0.0,0.0,0.0,0.0,0.0,0.0,0.0,0.0,0.0,0.0,0.0,0.0,0.0,0.0,0.0,0.0,0.0,0.0,0.0,0.0,0.0,0.0,0.0,0.0,0.0,0.0,0.0,0.0,0.0,0.0,0.0,0.0,0.0,0.0,0.0,0.0,0.0,0.0,0.0,0.0,0.0,0.0,0.0,0.0,0.0,0.0,0.0,0.0,5.9577,6.2205,6.6763,6.6836,6.6184,6.5319,6.2071,5.8829,5.5902,5.2544,0.0,0.0,0.0,0.0,0.0,0.0,0.0,0.0,0.0,0.0,0.0,0.0,0.0,0.0,0.0,0.0,0.0,0.0,0.0,0.0,0.0,0.0,0.0,0.0,0.0,0.0,0.0,0.0,0.0,0.0,0.0,0.0,0.0,0.0,0.0,0.0,0.0,0.0,0.0,0.0,0.0,0.0,0.0,0.0,0.0,0.0,0.0,0.0,0.0,0.0,0.0,0.0,0.0,0.0,0.0,0.0,0.0,0.0,0.0,0.0,0.0,0.0,0.0,0.0,0.0,0.0,0.0,0.0,0.0,0.0,0.0,0.0,0.0,0.0,0.0,0.0,0.0,0.0,0.0,0.0,0.0,0.0,0.0,0.0,0.0,0.0,0.0,0.0,0.0,0.0,0.0,0.0,0.0,0.0,0.0,0.0,0.0,0.0,0.0,0.0,0.0,0.0,6.2966,6.4387,6.7002,6.7151,6.6357,6.4752,6.1839,5.8829,5.5902,5.1995,0.0,0.0,0.0,0.0,0.0,0.0,0.0,0.0,0.0,0.0,0.0,0.0,0.0,0.0,0.0,0.0,0.0,0.0,0.0,0.0,0.0,0.0,0.0,0.0,0.0,0.0,0.0,0.0,0.0,0.0,0.0,0.0,0.0,0.0,0.0,0.0,0.0,0.0,0.0,0.0,0.0,0.0,0.0,0.0,0.0,0.0,0.0,0.0,0.0,0.0,0.0,0.0,0.0,0.0,0.0,0.0,0.0,0.0,0.0,0.0,0.0,0.0,0.0,0.0,0.0,0.0,0.0,0.0,0.0,0.0,0.0,0.0,0.0,0.0,0.0,0.0,0.0,0.0,0.0,0.0,0.0,0.0,0.0,0.0,0.0,0.0,0.0,0.0,0.0,0.0,0.0,0.0,0.0,0.0,0.0,0.0,0.0,0.0,0.0,0.0,0.0,0.0,6.4001,6.6374,6.7938,6.7331,6.6209,6.4725,6.1839,5.8829,5.5902,5.1514,0.0,0.0,0.0,0.0,0.0,0.0,0.0,0.0,0.0,0.0,0.0,0.0,0.0,0.0,0.0,0.0,0.0,0.0,0.0,0.0,0.0,0.0,0.0,0.0,0.0,0.0,0.0,0.0,0.0,0.0,0.0,0.0,0.0,0.0,0.0,0.0,0.0,0.0,0.0,0.0,0.0,0.0,0.0,0.0,0.0,0.0,0.0,0.0,0.0,0.0,0.0,0.0,0.0,0.0,0.0,0.0,0.0,0.0,0.0,0.0,0.0,0.0,0.0,0.0,0.0,0.0,0.0,0.0,0.0,0.0,0.0,0.0,0.0,0.0,0.0,0.0,0.0,0.0,0.0,0.0,0.0,0.0,0.0,0.0,0.0,0.0,0.0,0.0,0.0,0.0,0.0,0.0,0.0,0.0,0.0,0.0,0.0,0.0,0.0,0.0,0.0,0.0,6.348,6.6019,0.0,6.8014,6.688,6.5402,6.2966,5.9877,5.5936,0.0,0.0,0.0,0.0,0.0,0.0,0.0,0.0,0.0,0.0,0.0,0.0,0.0,0.0,0.0,0.0,0.0,0.0,0.0,0.0,0.0,0.0,0.0,0.0,0.0,0.0,0.0,0.0,0.0,0.0,0.0,0.0,0.0,0.0,0.0,0.0,0.0,0.0,0.0,0.0,0.0,0.0,0.0,0.0,0.0,0.0,0.0,0.0,0.0,0.0,0.0,0.0,0.0,0.0,0.0,0.0,0.0,0.0,0.0,0.0,0.0,0.0,0.0,0.0,0.0,0.0,0.0,0.0,0.0,0.0,0.0,0.0,0.0,0.0,0.0,0.0,0.0,0.0,0.0,0.0,0.0,0.0,0.0,0.0,0.0,0.0,0.0,0.0,0.0,0.0,0.0,0.0,0.0,0.0,0.0,0.0,0.0,0.0,0.0,0.0,0.0,0.0,6.0606,6.377,6.6539,0.0,6.8368,6.7387,6.6136,6.3609,6.0216,5.5969,0.0,0.0,0.0,0.0,0.0,0.0,0.0,0.0,0.0,0.0,0.0,0.0,0.0,0.0,0.0,0.0,0.0,0.0,0.0,0.0,0.0,0.0,0.0,0.0,0.0,0.0,0.0,0.0,0.0,0.0,0.0,0.0,0.0,0.0,0.0,0.0,0.0,0.0,0.0,0.0,0.0,0.0,0.0,0.0,0.0,0.0,0.0,0.0,0.0,0.0,0.0,0.0,0.0,0.0,0.0,0.0,0.0,0.0,0.0,0.0,0.0,0.0,0.0,0.0,0.0,0.0,0.0,0.0,0.0,0.0,0.0,0.0,0.0,0.0,0.0,0.0,0.0,0.0,0.0,0.0,0.0,0.0,0.0,0.0,0.0,0.0,0.0,0.0,0.0,0.0,0.0,0.0,0.0,0.0,0.0,0.0,0.0,0.0,0.0,0.0,0.0,0.0,6.0826,6.5286,6.8455,6.9052,6.8402,6.7624,6.6869,6.3453,5.9733,0.0,0.0,0.0,0.0,0.0,0.0,0.0,0.0,0.0,0.0,0.0,0.0,0.0,0.0,0.0,0.0,0.0,0.0,0.0,0.0,0.0,0.0,0.0,0.0,0.0,0.0,0.0,0.0,0.0,0.0,0.0,0.0,0.0,0.0,0.0,0.0,0.0,0.0,0.0,0.0,0.0,0.0,0.0,0.0,0.0,0.0,0.0,0.0,0.0,0.0,0.0,0.0,0.0,0.0,0.0,0.0,0.0,0.0,0.0,0.0,0.0,0.0,0.0,0.0,0.0,0.0,0.0,0.0,0.0,0.0,0.0,0.0,0.0,0.0,0.0,0.0,0.0,0.0,0.0,0.0,0.0,0.0,0.0,0.0,0.0,0.0,0.0,0.0,0.0,0.0,0.0,0.0,0.0,0.0,0.0,0.0,0.0,0.0,0.0,0.0,0.0,0.0,0.0,6.1506,6.596,6.9288,7.0522,6.9958,6.8977,6.7692,6.5155,6.1356,5.6037,0.0,0.0,0.0,0.0,0.0,0.0,0.0,0.0,0.0,0.0,0.0,0.0,0.0,0.0,0.0,0.0,0.0,0.0,0.0,0.0,0.0,0.0,0.0,0.0,0.0,0.0,0.0,0.0,0.0,0.0,0.0,0.0,0.0,0.0,0.0,0.0,0.0,0.0,0.0,0.0,0.0,0.0,0.0,0.0,0.0,0.0,0.0,0.0,0.0,0.0,0.0,0.0,0.0,0.0,0.0,0.0,0.0,0.0,0.0,0.0,0.0,0.0,0.0,0.0,0.0,0.0,0.0,0.0,0.0,0.0,0.0,0.0,0.0,0.0,0.0,0.0,0.0,0.0,0.0,0.0,0.0,0.0,0.0,0.0,0.0,0.0,0.0,0.0,0.0,0.0,0.0,0.0,0.0,0.0,0.0,0.0,0.0,0.0,0.0,0.0,0.0,0.0,6.223,6.6693,7.0229,7.1988,7.1244,7.0128,6.891,6.6779,6.2811,5.6511,0.0,0.0,0.0,0.0,0.0,0.0,0.0,0.0,0.0,0.0,0.0,0.0,0.0,0.0,0.0,0.0,0.0,0.0,0.0,0.0,0.0,0.0,0.0,0.0,0.0,0.0,0.0,0.0,0.0,0.0,0.0,0.0,0.0,0.0,0.0,0.0,0.0,0.0,0.0,0.0,0.0,0.0,0.0,0.0,0.0,0.0,0.0,0.0,0.0,0.0,0.0,0.0,0.0,0.0,0.0,0.0,0.0,0.0,0.0,0.0,0.0,0.0,0.0,0.0,0.0,0.0,0.0,0.0,0.0,0.0,0.0,0.0,0.0,0.0,0.0,0.0,0.0,0.0,0.0,0.0,0.0,0.0,0.0,0.0,0.0,0.0,0.0,0.0,0.0,0.0,0.0,0.0,0.0,0.0,0.0,0.0,0.0,0.0,0.0,0.0,0.0,0.0,6.2839,6.7448,7.112,7.3251,7.2225,7.1097,7.0375,6.8199,6.4096,5.75,0.0,0.0,0.0,0.0,0.0,0.0,0.0,0.0,0.0,0.0,0.0,0.0,0.0,0.0,0.0,0.0,0.0,0.0,0.0,0.0,0.0,0.0,0.0,0.0,0.0,0.0,0.0,0.0,0.0,0.0,0.0,0.0,0.0,0.0,0.0,0.0,0.0,0.0,0.0,0.0,0.0,0.0,0.0,0.0,0.0,0.0,0.0,0.0,0.0,0.0,0.0,0.0,0.0,0.0,0.0,0.0,0.0,0.0,0.0,0.0,5.3788,5.219,0.0,0.0,0.0,0.0,0.0,0.0,0.0,0.0,0.0,0.0,0.0,0.0,0.0,0.0,0.0,0.0,0.0,0.0,0.0,0.0,0.0,0.0,0.0,0.0,0.0,0.0,0.0,0.0,0.0,0.0,0.0,0.0,0.0,0.0,0.0,0.0,0.0,0.0,0.0,0.0,6.2977,6.7881,7.1684,7.3319,7.271,7.1887,7.1131,6.8977,6.529,5.9742,5.679,0.0,0.0,0.0,0.0,0.0,0.0,0.0,0.0,0.0,0.0,0.0,0.0,0.0,0.0,0.0,0.0,0.0,0.0,0.0,0.0,0.0,0.0,0.0,0.0,0.0,0.0,0.0,0.0,0.0,0.0,0.0,0.0,0.0,0.0,0.0,0.0,0.0,0.0,0.0,0.0,0.0,0.0,0.0,0.0,0.0,0.0,0.0,0.0,0.0,0.0,0.0,0.0,0.0,0.0,0.0,0.0,0.0,0.0,0.0,5.7214,5.5378,0.0,0.0,0.0,0.0,0.0,0.0,0.0,0.0,0.0,0.0,0.0,0.0,0.0,0.0,0.0,0.0,0.0,0.0,0.0,0.0,0.0,0.0,0.0,0.0,0.0,0.0,0.0,0.0,0.0,0.0,0.0,0.0,0.0,0.0,0.0,0.0,0.0,0.0,0.0,0.0,6.3503,6.8557,7.2529,7.4368,7.3883,7.3037,7.1909,7.0094,6.6914,6.2033,5.8583,0.0,0.0,0.0,0.0,0.0,0.0,0.0,0.0,0.0,0.0,0.0,0.0,0.0,0.0,0.0,0.0,0.0,0.0,0.0,0.0,0.0,0.0,0.0,0.0,0.0,0.0,0.0,0.0,0.0,0.0,0.0,0.0,0.0,0.0,0.0,0.0,0.0,0.0,0.0,0.0,0.0,0.0,0.0,0.0,0.0,0.0,0.0,0.0,0.0,0.0,0.0,0.0,0.0,6.3666,6.4444,6.5043,6.5043,6.5381,6.5764,6.2052,6.0182,5.9656,5.7931,0.0,0.0,0.0,0.0,0.0,0.0,0.0,0.0,0.0,0.0,0.0,0.0,0.0,0.0,0.0,0.0,0.0,0.0,0.0,0.0,0.0,0.0,5.8531,5.9847,6.0746,6.0047,5.5615,0.0,0.0,0.0,0.0,0.0,0.0,0.0,0.0,0.0,0.0,0.0,6.4613,6.9519,7.3375,7.5473,7.5021,7.404,7.2699,7.1244,6.8571,6.4333,6.0791,5.7171,0.0,0.0,0.0,0.0,0.0,0.0,0.0,0.0,0.0,0.0,0.0,0.0,0.0,0.0,0.0,0.0,0.0,0.0,0.0,0.0,0.0,0.0,0.0,0.0,0.0,0.0,0.0,0.0,0.0,0.0,0.0,0.0,5.6012,5.5462,0.0,0.0,0.0,0.0,0.0,0.0,0.0,0.0,0.0,0.0,0.0,0.0,0.0,6.211,6.3047,6.5595,6.7286,6.8098,7.0128,7.1142,7.1244,7.1244,7.1278,7.1345,7.0737,0.0,6.2936,6.3284,0.0,0.0,0.0,0.0,0.0,0.0,0.0,0.0,0.0,0.0,0.0,0.0,0.0,0.0,0.0,0.0,0.0,0.0,0.0,0.0,0.0,0.0,6.4538,6.4752,6.5372,6.555,6.4218,5.9428,5.5246,5.4736,5.3754,0.0,0.0,0.0,0.0,0.0,0.0,0.0,6.688,7.0917,7.3962,7.554,7.5021,7.4243,7.3421,7.1988,6.9778,6.6565,6.4096,6.1086,5.7315,5.4329,0.0,0.0,0.0,0.0,0.0,0.0,0.0,0.0,0.0,0.0,0.0,0.0,0.0,0.0,0.0,0.0,0.0,0.0,0.0,0.0,0.0,0.0,0.0,0.0,0.0,0.0,0.0,0.0,0.0,5.5852,5.7137,5.6418,5.6968,5.6673,0.0,0.0,0.0,0.0,0.0,0.0,0.0,0.0,0.0,6.4918,6.5764,6.7117,6.9113,7.0409,7.165,7.2834,7.4255,7.5134,7.5552,7.5552,7.5552,7.5506,7.51,7.3443,7.0793,6.7726,6.5189,6.3101,0.0,0.0,0.0,0.0,6.14,6.1366,6.3463,6.3372,6.2221,6.1806,0.0,0.0,0.0,0.0,0.0,0.0,0.0,6.1962,6.4385,6.5665,6.6745,6.8436,6.9102,6.9237,6.891,6.6203,6.2851,0.0,5.8256,5.6978,5.4386,0.0,0.0,0.0,0.0,6.4309,6.7489,7.1548,7.4525,7.5574,7.5405,7.4931,7.4187,7.2766,7.1007,6.8842,6.6203,6.3632,6.1163,5.8592,5.5615,0.0,0.0,0.0,0.0,0.0,0.0,0.0,0.0,0.0,0.0,0.0,0.0,0.0,0.0,0.0,0.0,0.0,0.0,0.0,0.0,0.0,0.0,0.0,0.0,0.0,0.0,0.0,0.0,5.7577,5.849,5.7746,5.8804,5.8669,0.0,0.0,0.0,0.0,0.0,0.0,6.3193,6.4174,6.6203,6.9519,7.0567,7.2225,7.4639,7.4621,7.5247,7.6511,7.6671,7.7173,7.7887,7.7887,7.8093,7.8484,7.7934,7.7811,7.7604,7.2124,6.891,6.7263,6.5605,6.4725,6.4556,6.5831,6.6092,6.6193,6.8977,6.8954,6.7601,6.706,6.5121,6.2516,5.9877,0.0,0.0,0.0,0.0,6.4386,6.7928,6.8392,6.8594,7.1233,7.1842,7.1842,7.1842,7.1278,6.9293,0.0,6.299,6.1467,5.7543,0.0,0.0,0.0,0.0,6.6406,6.9011,7.2428,7.4886,7.5608,7.5709,7.5405,7.4649,7.3409,7.2056,7.0578,6.821,6.6112,6.44,6.255,5.9776,5.6097,0.0,0.0,0.0,0.0,0.0,0.0,0.0,0.0,0.0,0.0,0.0,0.0,0.0,0.0,0.0,0.0,0.0,0.0,0.0,0.0,0.0,0.0,0.0,0.0,0.0,0.0,0.0,0.0,0.0,6.0047,6.2482,0.0,0.0,0.0,0.0,6.2052,6.4116,6.6349,6.8605,7.0083,7.1909,7.4175,7.5709,7.6927,7.7751,7.766,7.7961,7.8733,7.7159,7.6822,7.7541,7.7541,7.8388,7.9914,7.9867,8.0321,8.0763,7.6893,7.4018,7.2056,7.1954,7.1052,6.9902,7.0658,7.1368,7.1988,7.2157,7.2609,7.3082,7.3048,7.0578,6.7286,6.5706,6.4323,0.0,0.0,6.6046,6.7354,7.0379,7.1097,7.147,7.3015,7.3387,7.3387,7.3387,7.2812,7.1582,0.0,6.7512,6.5787,6.3443,0.0,6.3622,6.4996,6.6654,6.9045,7.2744,7.4018,7.4886,7.5608,7.5709,7.5405,7.4649,7.3883,7.28,7.1334,7.0432,6.8977,6.6734,6.5831,6.3642,5.9911,5.6959,0.0,0.0,0.0,0.0,0.0,0.0,0.0,0.0,0.0,0.0,0.0,0.0,0.0,0.0,0.0,0.0,0.0,0.0,0.0,0.0,0.0,0.0,0.0,0.0,0.0,0.0,0.0,0.0,6.4333,6.6237,0.0,6.4603,6.5111,6.5865,6.6643,6.8226,6.996,7.1709,7.2217,7.3257,7.4984,7.6049,7.6924,7.767,7.7639,7.7977,7.8699,7.8111,7.7956,7.8226,7.8226,7.8269,7.8469,7.9519,7.9571,7.8826,7.8575,7.7475,7.5924,7.4897,7.4187,7.3815,7.4627,7.5067,7.5371,7.5857,7.5857,7.5383,7.3409,7.1582,6.9812,6.8335,6.7847,6.8036,6.903,6.9849,7.1009,7.349,7.4119,7.4525,7.6026,7.6398,7.6398,7.6398,7.6195,7.562,7.4356,7.1706,6.8967,6.6734,6.7151,6.7658,6.7184,6.9631,7.2169,7.3984,7.5709,7.669,7.6487,7.6454,7.6149,7.5371,7.4199,7.3082,7.209,7.0883,6.9394,6.758,6.7252,6.5595,6.2337,6.0308,5.6722,0.0,0.0,0.0,0.0,0.0,0.0,0.0,0.0,0.0,0.0,0.0,0.0,0.0,0.0,0.0,0.0,0.0,0.0,0.0,0.0,0.0,0.0,0.0,0.0,0.0,0.0,6.6271,6.7749,6.9722,7.0353,6.8831,6.9312,7.0046,7.0817,7.1678,7.2793,7.4277,7.4476,7.5116,7.6354,7.7115,7.7719,7.8213,7.7699,7.7676,7.815,7.7607,7.734,7.734,7.734,7.7371,7.7486,7.8602,7.8765,7.8331,7.9184,7.9017,7.8119,7.7432,7.6986,7.6948,7.8276,7.8754,7.8822,7.9295,7.8822,7.7638,7.5405,7.3972,7.2958,7.1718,7.165,7.2191,7.2992,7.3544,7.4322,7.6026,7.6499,7.6736,7.7751,7.7988,7.7988,7.7988,7.7988,7.7853,7.7379,7.483,7.2214,7.0466,7.1007,7.1345,7.0297,7.2732,7.483,7.5292,7.6906,7.7819,7.7299,7.7063,7.669,7.6149,7.43,7.2913,7.2428,7.0781,6.9248,6.7963,6.7658,6.6362,6.3927,6.1187,5.755,5.2974,0.0,0.0,0.0,0.0,0.0,0.0,0.0,0.0,0.0,0.0,0.0,0.0,0.0,0.0,0.0,0.0,0.0,0.0,0.0,0.0,0.0,0.0,0.0,6.3521,6.617,6.8639,7.024,7.2923,7.4105,7.2731,7.3073,7.3697,7.4419,7.4374,7.4913,7.6339,7.703,7.7701,7.8416,7.9147,7.9528,7.9528,7.8027,7.7271,7.7255,7.5705,7.4916,7.4916,7.4916,7.5762,7.7225,7.7274,7.8187,7.9585,7.8867,7.8534,7.8591,7.9582,7.9572,7.9224,8.1534,8.2395,8.2395,8.2395,8.1447,8.0141,7.9384,7.8167,7.686,7.6014,7.5777,7.5946,7.6724,7.6927,7.7096,7.7853,7.8022,7.8056,7.8056,7.8056,7.8056,7.8056,7.8056,7.8056,7.8056,7.6826,7.5574,7.4818,7.4717,7.4717,7.4717,7.6014,0.0,7.6961,7.7616,7.8056,7.7988,7.7367,7.6927,7.686,7.4153,7.2428,7.2394,7.0364,6.8774,6.7929,6.7208,6.6125,6.4647,5.9573,5.6149,5.4508,0.0,0.0,0.0,0.0,0.0,0.0,0.0,0.0,0.0,0.0,0.0,0.0,0.0,0.0,0.0,0.0,0.0,0.0,0.0,0.0,0.0,6.3284,6.5865,6.6576,6.9282,7.2326,7.5484,7.5969,7.633,7.7052,7.6162,7.5627,7.582,7.6182,7.6541,7.6947,7.6976,7.7074,7.7274,7.7474,7.7582,7.7582,7.7153,7.6943,7.6943,7.6069,7.5617,7.5617,7.5125,7.5129,7.5611,7.6784,7.6882,7.6318,7.7281,7.6977,7.62,7.894,7.9869,7.9917,8.1736,8.2395,8.2395,8.2395,8.2124,8.1596,8.031,7.9634,7.9058,7.7751,7.7379,7.7413,7.765,7.7718,7.7887,7.8619,7.8809,7.8923,7.9464,7.9612,7.9612,7.9612,7.9612,7.9612,7.9612,7.8822,7.793,7.7198,7.7075,7.7075,7.7075,7.7874,0.0,7.8505,7.9126,7.9206,7.8124,7.7819,7.7244,7.6115,7.43,7.2981,7.2428,7.0849,6.9293,6.7963,6.7692,6.6914,6.5436,6.1873,5.979,0.0,0.0,0.0,0.0,0.0,0.0,0.0,0.0,0.0,0.0,0.0,0.0,0.0,0.0,0.0,0.0,0.0,0.0,0.0,0.0,0.0,0.0,6.6456,6.9662,7.139,7.343,7.5663,7.8082,7.8179,7.8217,7.8682,7.7517,7.6833,7.7148,7.7092,7.704,7.704,7.7145,7.7215,7.7215,7.7215,7.7215,7.7215,7.6946,7.6779,7.6779,7.6437,7.6288,7.6258,7.5886,7.5557,7.5357,7.6321,7.6035,7.4971,7.5899,7.6119,7.6174,0.0,0.0,0.0,0.0,8.3308,8.3308,8.3308,8.3105,8.2712,8.1866,8.1359,8.0953,8.0107,7.9837,7.9837,7.9837,7.9837,7.9938,8.0365,8.0467,8.0602,8.1021,8.1122,8.1122,8.1122,8.1122,8.1122,8.1122,8.0771,0.0,7.9904,7.9058,7.845,7.845,7.9092,7.9452,7.9147,7.9735,7.987,7.9003,7.8665,7.8111,7.7198,7.5168,0.0,0.0,0.0,6.8921,6.7049,6.6981,0.0,0.0,0.0,0.0,0.0,0.0,0.0,0.0,5.9244,5.8717,0.0,0.0,0.0,0.0,0.0,0.0,0.0,0.0,0.0,0.0,0.0,0.0,0.0,0.0,0.0,0.0,6.9447,7.3364,7.644,7.7631,7.8461,7.9169,7.9514,7.9397,7.8638,7.7727,7.7391,7.8008,7.7335,7.6898,7.6898,7.7544,0.0,0.0,0.0,7.7921,7.7921,7.7335,7.7035,7.7035,7.6946,7.6898,7.6898,7.6838,7.6527,7.5988,7.5946,7.5557,7.5023,7.5108,7.6219,7.7996,7.9497,8.0197,8.0689,8.3545,8.4614,8.4614,8.4614,0.0,0.0,8.3524,8.305,8.2496,8.2428,8.2395,8.2395,8.2395,8.2395,8.2395,8.2395,8.2395,8.2395,8.2395,8.2395,8.2395,8.2395,8.2395,8.2395,8.2395,8.2395,8.2395,8.2395,8.0703,7.935,7.935,7.9837,8.0006,7.9418,7.987,8.0209,8.0209,7.952,0.0,7.8978,7.6374,7.4424,7.3657,7.0872,6.8312,6.6282,6.6112,6.5436,6.4018,6.4749,6.5121,6.5121,6.5774,6.6508,6.7184,6.1552,6.0406,0.0,0.0,0.0,0.0,0.0,0.0,0.0,0.0,0.0,0.0,0.0,0.0,0.0,0.0,0.0,6.6322,7.0188,7.4048,7.6959,7.8491,7.9823,8.1307,7.9291,7.8122,7.9048,7.7775,7.6925,7.7063,7.7409,7.7604,7.7604,7.825,7.8609,7.8609,7.8609,7.8609,7.8609,7.846,7.84,7.84,7.7861,0.0,7.7574,7.7065,7.6736,7.6617,7.6108,7.5826,7.5768,7.6529,7.8581,8.1282,8.1621,8.2529,8.3756,8.4379,8.4614,8.4614,8.4614,8.4512,8.4289,8.3693,8.3389,8.3186,8.2564,8.2395,0.0,8.2395,8.2395,8.2395,8.2395,8.2395,8.2395,8.2395,8.2395,8.2395,8.2395,8.2395,8.2395,8.2395,8.2395,8.2395,8.2395,8.1562,8.0864,8.0864,8.0479,8.0344,8.083,8.0492,8.0209,8.0209,7.952,7.8843,7.8247,7.6521,7.5168,7.4412,7.1616,6.98,6.936,6.8741,6.7996,6.7083,6.7827,6.8233,6.8233,6.8368,6.9147,7.0353,6.7366,6.6271,0.0,0.0,0.0,0.0,0.0,0.0,0.0,0.0,0.0,0.0,0.0,6.0096,6.1202,0.0,6.7183,6.8607,7.2105,7.5283,7.7134,7.7864,7.8694,8.0023,7.905,7.833,7.8541,7.779,7.7424,7.7801,7.81,7.831,7.831,7.8627,7.8807,7.8807,7.8807,7.8807,7.8807,7.8807,7.8807,7.8807,7.846,7.831,7.828,7.7951,7.7604,7.7275,7.6976,7.7145,7.7816,7.9985,8.1815,8.3386,8.4208,8.4564,8.4614,8.4614,8.4614,8.4614,8.4614,8.4614,8.4546,8.4187,8.4052,8.3984,8.3612,8.3511,8.3511,8.3511,8.3511,8.3511,8.3511,8.3511,8.3612,8.3998,8.4099,8.4099,8.4099,8.4099,8.3998,8.3578,8.3511,8.3511,8.3511,8.2881,8.2285,8.19,8.1528,8.1426,8.1799,8.1528,8.1291,8.1291,8.0974,8.0445,7.9714,7.7921,7.6352,7.5236,7.3082,7.1695,7.1323,7.0601,7.0015,6.9609,7.0364,7.0737,7.0737,7.1109,7.1887,7.2924,7.2157,7.1413,0.0,0.0,0.0,0.0,0.0,0.0,0.0,0.0,5.7244,5.9773,6.0701,6.1745,6.4007,6.7091,6.9741,7.106,7.3854,7.6161,7.7091,7.7084,7.7278,7.8122,7.8689,7.8742,7.8063,7.7993,7.822,7.8759,7.8807,7.8807,7.8807,7.8807,7.8807,7.8807,7.8807,7.8807,7.8807,7.8807,7.8807,7.8807,7.8807,7.8807,7.8807,7.8807,7.8489,7.7999,7.8222,7.8912,8.011,8.3157,8.4587,8.503,8.6384,8.6149,8.5067,8.5067,8.4965,8.483,8.483,8.4715,8.4614,8.4614,8.4614,8.4614,8.4614,8.4614,8.4614,8.4614,8.4614,8.4614,8.4614,8.4614,8.4796,8.5601,8.5804,8.5804,8.5804,8.5804,8.5567,8.4762,8.4614,8.4614,8.4614,8.412,8.3456,8.2733,8.2496,8.2462,8.2598,8.2496,8.2462,8.2598,8.2496,8.2103,8.1372,7.9545,7.7853,7.6454,7.4977,7.3894,7.3308,7.2552,7.2146,7.2146,7.2902,7.3274,7.3274,7.403,7.4672,7.5258,7.5879,7.5417,5.0189,4.9878,5.0535,5.281,5.352,5.4954,0.0,0.0,6.1528,6.3719,6.565,6.7034,6.7352,6.9191,7.1122,7.2455,7.4001,7.546,7.6674,7.7356,7.7723,7.7827,7.7923,7.8182,7.8645,7.8687,7.8699,7.8789,7.8807,7.8807,7.8807,7.8807,7.8807,7.8807,7.8807,7.8807,7.8807,7.8807,7.8807,7.8807,7.8807,7.8807,7.8807,7.8807,7.8759,7.8747,7.9709,8.0685,8.1773,8.3641,8.5259,8.664,8.6838,8.6792,8.6623,8.6623,8.623,8.5669,8.5669,8.5215,8.4614,8.4614,8.4614,8.4614,8.4614,8.4614,8.4614,8.4614,8.4614,8.4614,8.4614,8.4614,8.4796,8.5601,8.5804,8.5804,8.5804,8.5804,8.5567,8.4762,8.4614,8.4614,8.4614,8.4512,8.4221,8.349,8.2813,8.2631,8.3287,8.2813,8.2631,8.3321,8.278,8.2103,8.1372,8.0458,7.96,7.8775,7.7333,7.6487,7.6386,7.5642,7.5202,7.5202,7.598,7.6386,7.6386,7.7142,7.7548,7.7616,7.7684,7.7312,5.1606,5.1636,5.2288,0.0,5.5499,5.7775,6.1127,6.2188,6.3165,6.5567,6.7063,6.8196,6.8972,7.1047,7.2971,0.0,7.5467,7.6784,7.7305,7.7981,7.825,7.7861,7.816,7.8489,7.8759,7.8807,7.8807,7.8807,7.8807,7.8807,7.8807,7.8807,7.8807,7.8807,7.8807,7.8807,7.8807,7.8807,7.8807,7.8807,7.8807,7.8807,7.8807,7.8807,7.9338,8.0392,8.1878,8.3291,8.47,8.6422,8.7559,8.8158,8.8158,8.8158,8.8091,8.7211,8.669,8.6366,8.5939,8.5601,8.5215,8.4749,8.4614,8.4614,8.4614,8.4614,8.4614,8.4614,8.4614,8.4614,8.4614,8.4614,8.4796,8.5601,8.5804,8.5804,8.5804,8.5804,8.5567,8.4762,8.4614,8.4614,8.4614,8.4614,8.4492,8.4187,8.3883,8.3781,8.4086,8.3883,8.3815,8.412,8.349,8.2915,8.2624,8.19,8.1156,8.0412,7.9397,7.8619,7.82,7.7435,7.7041,7.7041,7.7379,7.7548,7.7548,7.7853,7.8428,7.9261,7.9261,7.9566,5.2127,5.2935,5.4234,5.5089,5.7739,6.0661,6.2415,6.352,6.4779,6.6846,6.8107,6.9139,7.0306,7.2521,7.4467,7.5305,7.6754,7.7861,7.8041,7.834,7.834,7.7861,7.8071,7.831,7.8519,7.8687,7.8807,7.8807,7.8807,7.8807,7.8807,7.8807,7.8807,7.8807,7.8807,7.8807,7.8807,7.8807,7.8807,7.8807,7.8807,7.8807,7.8807,7.8807,7.948,8.0808,8.3021,8.471,8.5981,8.819,8.9086,8.9086,8.9086,8.9086,8.8984,8.7888,8.738,8.7144,8.6569,8.6278,8.5993,8.5405,8.5222,8.5202,8.4999,8.5067,8.5202,8.4999,8.5067,8.5202,8.4999,8.4931,8.5067,8.5669,8.5804,8.5804,8.5804,8.5804,8.5567,8.4762,8.4614,8.4614,8.4614,8.4614,8.4614,8.4614,8.4614,8.4614,8.4614,8.4614,8.4614,8.4614,8.412,8.3795,8.3795,8.3152,8.2475,8.1947,8.1224,8.0581,8.0027,7.9498,7.9194,7.9194,7.9194,7.9194,7.9194,7.9194,7.9769,8.0818,8.0818,8.138,5.1427,5.3635,5.6402,5.7679,6.0505,6.3317,6.4605,6.5937,6.7089,6.7824,6.95,7.1009,7.1713,7.3509,7.5275,7.6557,7.7335,7.8041,7.8687,7.822,7.7813,7.7801,7.7245,7.7125,0.0,7.84,7.8807,7.8807,7.8807,7.8807,7.8807,7.8807,7.8807,7.8807,7.8807,7.8807,7.8807,7.8807,7.8807,7.8807,7.8807,7.8807,7.8807,7.8807,7.8825,7.9064,8.251,8.4027,8.4346,8.7708,8.9086,8.9086,8.9086,8.9086,8.9086,8.9052,8.8578,8.7955,8.7955,8.7482,8.6859,8.6825,8.6825,8.669,8.5973,8.6264,8.669,8.5973,8.6264,8.6656,8.5939,8.577,8.577,8.5804,8.5804,8.5804,8.5804,8.5804,8.5567,8.4762,8.4614,8.4614,8.4614,8.4614,8.4614,8.4614,8.4614,8.4614,8.4614,8.4614,8.4614,8.4614,8.458,8.458,8.458,8.3883,8.3456,8.3422,8.2746,8.2327,8.2293,8.2293,8.2259,8.2259,8.2259,8.2259,8.2259,8.2259,8.2293,8.2327,8.2327,8.2361,5.47,5.6585,5.874,6.1373,6.3528,6.5383,6.6685,6.8032,6.9049,6.9289,7.0187,7.0979,7.1188,7.2864,7.4527,7.5395,7.7173,7.8699,7.9369,7.9249,7.8801,7.7921,7.7604,0.0,0.0,7.7724,7.831,7.8777,7.8807,7.8807,7.8807,7.8807,7.8807,7.8807,7.9238,7.9238,7.8807,7.9686,7.9686,7.8807,7.8807,7.9028,7.9447,7.8998,7.9668,8.1279,8.3178,8.4647,8.5876,8.8683,8.9816,8.9816,8.9816,8.9816,8.9782,8.9289,8.8951,8.8646,8.8158,8.7854,8.755,8.7062,8.6893,8.6859,8.6602,8.6704,8.6859,8.6602,8.669,8.6825,8.6589,8.6535,8.6535,8.6535,8.6535,8.6535,8.6535,8.6142,8.5736,8.5452,8.4965,8.4614,8.4614,8.4614,8.4614,8.4614,8.5033,8.5215,8.4661,8.5506,8.5946,8.5452,8.5384,8.5384,8.5384,8.4661,8.4018,8.3524,8.3253,8.2915,8.2428,8.2395,8.2395,8.2395,8.2395,8.2395,8.2395,8.2395,8.2631,8.3118,8.3118,8.3389,5.6885,5.9129,6.1463,6.4066,6.6071,6.7657,6.8511,6.9558,7.0277,7.0037,7.029,7.0484,7.026,7.1457,7.297,7.4317,7.6143,7.7951,7.9578,7.9189,7.8591,7.822,7.7562,7.7125,0.0,0.0,7.8071,7.8747,7.8807,7.8807,7.8807,7.9028,7.9148,7.9148,7.9806,7.9956,7.9507,8.0375,8.0255,7.9148,7.8908,7.9148,7.9788,7.9357,8.0116,8.1945,8.3904,8.5357,8.6584,8.9425,9.0594,9.056,9.0309,8.9812,8.9186,8.8429,8.7795,8.7374,8.8132,8.8409,8.8294,8.7854,8.7685,8.7651,8.7367,8.7482,8.7617,8.738,8.7482,8.7617,8.738,8.683,8.6289,8.6021,8.5497,8.5048,8.5048,8.4664,8.4523,8.5119,8.4848,8.4698,8.5311,8.5439,8.5439,8.5439,8.6095,8.6196,8.5168,8.5892,8.6433,8.621,8.6196,8.6196,8.6196,8.5709,8.5236,8.4742,8.4471,8.4099,8.3625,8.3625,8.349,8.3206,8.3477,8.3477,8.3206,8.3206,8.3592,8.4315,8.4315,8.4708,5.8038,6.121,6.4485,6.5847,6.8106,7.0007,7.0037,7.0486,7.0679,7.0067,6.9812,6.9526,0.0,0.0,7.0755,7.3373,7.4467,7.6113,7.9339,7.8172,7.7424,0.0,0.0,0.0,0.0,0.0,0.0,7.8747,7.8819,7.8849,7.8849,7.9507,7.9848,7.9848,8.0494,8.0823,8.0794,8.0794,8.0494,7.9878,7.9208,7.9238,7.9907,7.9878,8.0225,8.1045,8.4564,8.6107,8.6369,8.9913,9.1338,9.1237,9.0441,8.9096,8.7552,8.6719,8.5432,8.4554,8.7808,8.8937,8.8988,8.9072,8.9086,8.8984,8.826,8.8545,8.8951,8.826,8.8489,8.8805,8.8115,8.6631,8.5164,8.444,8.2997,8.1822,8.1822,8.179,8.2257,8.4003,8.4401,8.4958,8.6612,8.6893,8.6893,8.6893,8.7516,8.7448,8.6041,8.5905,8.621,8.6893,8.6961,8.6961,8.6961,8.6927,8.6893,8.6893,8.623,8.5872,8.5872,8.5872,8.5486,8.4715,8.5452,8.5486,8.4715,8.4715,8.51,8.5872,8.5872,8.623,6.1732,6.4336,6.6685,6.8511,6.9498,7.0127,7.056,7.044,7.0037,6.9393,6.8046,6.6954,0.0,0.0,0.0,7.1983,7.4599,0.0,7.9459,7.9369,0.0,7.8819,0.0,7.7424,7.7771,7.7801,0.0,7.8747,7.9267,7.9548,7.9548,8.0177,8.0554,8.0554,8.1183,8.1321,8.0794,8.0794,8.0943,8.1272,8.0614,8.0644,8.1272,8.0764,8.0913,8.1724,8.4784,8.6107,8.6401,9.0465,9.1798,9.117,8.9725,8.8839,8.8092,8.606,8.5358,8.5531,8.6419,8.6912,8.7397,8.8685,8.9086,8.9052,8.8883,8.8951,8.9052,8.8883,8.8027,8.7124,8.6925,8.5628,8.4309,8.4116,8.3737,8.3419,8.3419,8.2955,8.3043,8.4773,8.5735,8.6384,8.6825,8.6893,8.6893,8.6893,8.7062,8.7028,8.667,8.7597,8.8139,8.7753,8.7719,8.7719,8.7719,8.7211,8.6893,8.6893,8.6724,8.6636,8.6636,8.6636,8.6521,8.6318,8.6521,8.6521,8.6318,8.6318,8.642,8.6636,8.6636,8.6724,6.4216,6.6759,6.8914,6.9768,7.0426,7.0636,6.9828,6.9588,6.9049,6.7178,6.5922,6.5054,6.4784,6.5802,6.7717,7.0919,0.0,0.0,7.9399,7.9279,7.898,0.0,7.84,0.0,7.822,7.825,7.8519,0.0,7.9578,7.9788,7.9788,8.0704,8.1242,8.1242,8.189,8.2069,8.168,8.1411,8.1441,8.18,8.1123,8.1153,8.18,8.1411,8.2043,8.3527,8.5129,8.6751,8.8376,9.0758,9.1504,9.0994,8.9699,8.8223,8.6575,8.4863,8.4018,8.3777,8.4536,8.5465,8.6606,8.8331,8.9428,9.0067,9.0067,8.983,8.9661,8.9966,8.8574,8.701,8.734,8.5598,8.3676,8.3377,8.2696,8.2059,8.1782,8.1375,8.1797,8.43,8.5846,8.6969,8.7743,8.7854,8.7854,8.7854,8.7854,8.7753,8.74,8.8091,8.8477,8.8023,8.8294,8.8477,8.8477,8.8091,8.7854,8.7854,8.755,8.738,8.738,8.738,8.7231,8.6893,8.7211,8.7231,8.6893,8.6893,8.7062,8.738,8.738,8.755,6.6131,6.8675,7.0829,7.0486,7.1085,7.1115,6.869,6.8331,6.7567,6.4395,0.0,6.3378,6.3033,6.3947,6.6116,7.035,0.0,7.5138,7.91,7.8669,7.837,7.9519,7.8621,7.819,7.8878,7.8938,7.9208,7.9878,8.0027,8.0057,8.0057,8.1242,8.1919,8.1919,8.2507,8.2806,8.2806,8.2219,8.1919,8.1919,8.1351,8.1362,8.1919,8.1919,8.3109,8.5161,8.5632,8.7627,9.0545,9.08,9.0829,9.0617,8.9469,8.7149,8.4351,8.3512,8.2296,8.1273,8.2806,8.4521,8.633,8.8052,8.9817,9.1305,9.1305,9.0865,9.045,9.0823,8.9201,8.7419,8.7823,8.5496,8.2913,8.2344,8.0968,7.9638,7.9058,7.9035,8.002,8.3071,8.5211,8.6994,8.8495,8.8959,8.9086,8.9086,8.9086,8.8815,8.8091,8.7989,8.7989,8.7989,8.8578,8.8984,8.9086,8.9086,8.9086,8.9086,8.8511,8.8158,8.8158,8.8158,8.7854,8.7198,8.782,8.782,8.7198,8.7198,8.7516,8.8158,8.8158,8.8511,6.878,7.0081,7.1128,7.2146,7.1727,7.0679,6.9153,6.7193,0.0,0.0,6.1567,6.1088,6.2106,6.2914,6.5248,7.0815,7.2475,7.4433,7.84,7.8759,7.8699,0.0,7.8759,7.8878,7.9548,7.9608,0.0,8.0584,8.1123,8.1471,8.1471,8.2189,8.2627,8.2627,8.2747,8.2806,8.2806,8.2687,8.2627,8.2627,8.2507,8.2507,8.2627,8.2627,8.2875,8.3442,8.6431,8.8102,8.8789,9.0289,9.05,8.9609,8.6576,8.4962,8.4152,8.2632,8.2248,8.2485,8.2793,8.4075,8.5951,8.795,8.9817,9.1305,9.1305,9.1203,9.0828,8.945,8.7747,8.6045,8.4672,8.2784,8.123,8.111,8.0433,7.9758,7.9638,8.0305,8.1152,8.172,8.4378,8.6603,8.6887,8.8147,8.9086,8.9086,8.9086,8.8815,8.8091,8.7989,8.7989,8.7989,8.8091,8.8443,8.9052,8.9086,8.9086,8.9086,8.8984,8.8917,8.8917,8.8917,8.8849,8.8714,8.8849,8.8849,8.8714,8.8714,8.8781,8.8917,8.8917,8.8984,7.0021,7.1427,7.2535,7.2817,7.2146,7.062,6.7612,0.0,0.0,0.0,5.9249,5.9249,5.9893,6.1403,6.3842,6.7672,6.9752,7.2385,7.6694,7.7011,7.7382,7.9118,7.9327,7.9447,7.9758,8.0117,8.0614,8.1272,8.162,8.18,8.18,8.2447,8.2806,8.2806,8.2806,8.2806,8.2806,8.2806,8.2806,8.2806,8.2806,8.2806,8.2806,8.2806,8.3311,8.424,8.5035,8.6466,8.8171,8.8119,8.7845,8.734,8.5682,8.4411,8.3404,8.2635,8.2537,8.2806,8.2806,8.3976,8.5663,8.6663,8.8843,9.1074,9.1074,9.0807,9.0193,8.8776,8.6825,8.5061,8.4629,8.3167,8.174,8.1411,8.0823,8.0326,8.0326,8.0725,8.1352,8.2271,8.3763,8.5342,8.6772,8.7706,8.8467,8.9027,8.9086,8.8815,8.8091,8.7989,8.7989,8.7989,8.8328,8.8714,8.9052,8.9086,8.9086,8.9086,8.9086,8.9086,8.9086,8.9086,8.9086,8.9086,8.9086,8.9086,8.9086,8.9086,8.8623,8.7752,8.7752,8.7294,7.0979,7.2595,7.3821,7.3432,7.2385,7.038,6.6176,6.4141,0.0,5.7766,5.7334,5.7769,5.8068,5.9833,6.2121,6.48,6.6983,7.0141,7.5198,7.5455,7.6275,7.9429,7.9788,0.0,7.9788,8.0554,0.0,8.177,8.1919,8.2009,8.2009,8.2507,8.2806,8.2806,8.2806,8.2806,8.2806,8.2806,8.2806,8.2806,8.2806,8.2806,8.2806,8.2806,8.3561,8.4867,8.384,8.4981,8.7525,8.6093,8.5502,8.5466,8.5084,8.405,8.2806,8.2806,8.2806,8.2806,8.2806,8.3729,8.4993,8.5377,8.7679,9.0321,9.0321,8.988,8.912,8.7927,8.6132,8.4599,8.4857,8.3847,8.2627,8.1949,8.1411,8.0973,8.0823,8.0794,8.1224,8.2584,8.3142,8.404,8.6047,8.6834,8.7537,8.8631,8.8759,8.8705,8.8489,8.8328,8.8226,8.8226,8.8612,8.8917,8.9086,8.9086,8.9086,8.9086,8.9086,8.9086,8.9086,8.9086,8.9086,8.9086,8.9086,8.8931,8.8538,8.8538,8.7631,8.5966,8.6082,8.5388,7.2339,7.3313,7.4031,7.4587,7.2432,6.9439,6.655,0.0,5.9651,5.6851,5.6342,5.6718,5.7889,5.8294,6.0103,6.5099,6.6116,6.8509,7.4988,7.5856,7.6814,7.9489,7.9788,0.0,7.9788,8.0943,8.174,8.18,8.2357,8.2717,8.2717,8.2776,8.2806,8.2806,8.2806,8.2806,8.2806,8.2806,8.2806,8.2806,8.2806,8.2806,8.2806,8.2806,8.2871,8.3135,8.4625,8.5449,8.5721,8.5574,8.5502,8.5341,8.3691,8.2946,8.2806,8.2806,8.2806,8.2806,8.2806,8.289,8.3311,8.4975,8.685,8.8455,8.8455,8.8391,8.7973,8.6238,8.5583,8.5027,8.3449,8.2909,8.2627,8.1949,8.174,8.153,8.0943,8.0794,8.0849,8.1003,8.2316,8.331,8.294,8.464,8.6421,8.757,8.7684,8.8242,8.98,8.941,8.8984,8.8984,8.8477,8.8375,8.9052,8.9086,8.9086,8.9086,8.9086,8.9086,8.9086,8.9086,8.9086,8.9086,8.9086,8.8305,8.6738,8.6738,8.5874,8.4235,8.4796,8.4684,7.2834,7.3971,7.4676,7.5318,7.2984,6.9632,6.6176,6.2975,5.9847,5.6821,5.5893,5.588,5.6778,5.7244,5.8457,6.1359,6.2526,6.4964,7.0396,7.1487,7.3163,7.7006,7.8489,7.9537,8.0315,8.162,8.2417,8.2417,8.2657,8.2806,8.2806,8.2806,8.2806,8.2806,8.2806,8.2806,8.2806,8.2806,8.2806,8.2806,8.2806,8.2806,8.2806,8.2806,8.2806,8.2844,8.3543,8.3865,8.3865,8.3865,8.3865,8.3821,8.3097,8.2806,8.2806,8.2806,8.2806,8.2806,8.2806,8.2806,8.2909,8.3636,8.4369,8.5161,8.6238,8.6571,8.6186,8.4387,8.3865,8.371,8.2984,8.2806,8.2747,8.2477,8.2417,8.2327,8.2069,8.2009,8.2009,8.2009,8.2565,8.3143,8.3503,8.4321,8.5678,8.7878,8.8165,8.8659,9.0008,9.0324,9.0067,8.9187,8.8849,8.8781,8.9086,8.9086,8.9086,8.9086,8.9086,8.9086,8.9086,8.9086,8.9086,8.9086,8.8075,8.7371,8.7094,8.5686,8.454,8.3632,8.3475,8.2912,7.2714,7.4257,7.5065,7.5736,7.3103,6.9453,6.6086,6.2825,5.9757,5.7017,5.594,5.57,5.6342,5.6808,5.7543,5.889,6.0222,6.272,6.7359,6.8421,7.026,7.4493,7.6395,7.7801,7.8938,8.0962,8.2368,8.2776,8.2806,8.2806,8.2806,8.2806,8.2806,8.2806,8.2806,8.2806,8.2806,8.2806,8.2806,8.2806,8.2806,8.2806,8.2806,8.2806,8.2806,8.2806,8.2806,8.2806,8.2806,8.2806,8.2806,8.2806,8.2806,8.2806,8.2806,8.2806,8.2806,8.2806,8.2806,8.2806,8.2806,8.2806,8.2806,8.3041,8.4295,8.4685,8.4442,8.3172,8.2806,8.2806,8.2806,8.2806,8.2806,8.2806,8.2806,8.2806,8.2806,8.2806,8.2806,8.2806,8.2806,8.2969,8.3458,8.3723,8.4656,8.7049,8.7821,8.8585,8.9883,9.078,9.0913,8.9864,8.956,8.9424,8.9424,8.9424,8.9424,8.9424,8.9627,8.9661,8.9424,8.9105,8.8947,8.8947,8.7215,8.6321,8.6273,8.4616,8.3405,8.2607,8.2348,8.1817,7.2026,7.3881,7.5065,7.5736,7.2445,6.8495,6.6445,6.2436,5.874,5.7363,5.6598,5.6372,5.6987,5.7094,5.7543,5.889,6.0222,6.272,6.7359,6.8017,6.9229,7.2548,7.3522,7.4227,7.4886,7.8489,8.1362,8.2687,8.2806,8.2806,8.2806,8.2806,8.2806,8.2806,8.2806,8.2806,8.2806,8.2806,8.2806,8.2806,8.2806,8.2806,8.2806,8.2806,8.2806,8.2806,8.2806,8.2806,8.2806,8.2806,8.2806,8.2806,8.2806,8.2806,8.2806,8.2806,8.2806,8.2806,8.2806,8.2806,8.2806,8.2806,8.2806,8.2806,8.2825,8.2844,8.2825,8.2806,8.2806,8.2806,8.2806,8.2806,8.2806,8.2806,8.2806,8.2806,8.2806,8.2806,8.2806,8.2806,8.2806,8.2597,8.1957,8.2376,8.3219,8.436,8.5967,8.7661,8.9457,9.0642,9.1271,9.1271,9.0628,9.0174,9.0174,9.0174,9.0174,9.0174,9.0865,9.0966,9.0208,8.9193,8.8608,8.8608,8.6824,8.5096,8.3426,8.3408,8.25,8.086,8.1489,8.1789,6.866,7.0217,7.1025,7.1713,6.9722,6.7014,6.456,6.2181,5.9953,5.8158,5.7274,5.7017,5.7649,5.7799,5.8517,6.0775,6.1882,6.3288,6.5607,6.7926,6.9738,7.0799,7.4659,7.7699,7.8819,8.0483,8.165,8.2069,8.2537,8.2597,8.2129,8.2099,8.2327,8.2776,8.2806,8.2806,8.2806,8.2806,8.2806,8.2806,8.2806,8.2806,8.2806,8.2806,8.2806,8.2806,8.2806,8.2806,8.2806,8.2806,8.2806,8.2806,8.2806,8.2806,8.2806,8.2806,8.2806,8.2806,8.2806,8.2806,8.2806,8.2806,8.2806,8.2806,8.2806,8.2806,8.2806,8.2806,8.2806,8.2806,8.2806,8.2806,8.2806,8.2806,8.2806,8.2926,8.3337,8.3408,8.3408,8.3408,8.3408,8.3217,8.2578,8.2657,8.3333,8.4937,8.6693,8.8274,8.954,9.158,9.2469,9.1406,9.1527,9.1493,9.1,9.0493,9.0425,9.0932,9.1169,9.0658,8.9184,8.8771,8.8001,8.6792,8.5077,8.4117,8.402,8.2417,8.1581,8.15,8.2159,8.2477,6.6086,6.7912,6.884,6.9768,6.8106,6.5742,6.3871,6.1822,5.9983,5.8756,5.7949,5.7679,5.8367,5.8487,5.9026,6.0685,6.1732,6.281,6.4096,6.67,6.9049,7.0546,7.4407,7.7652,7.9507,8.0734,8.1441,8.1441,8.2039,8.2129,8.1471,8.1441,8.162,8.2039,8.2297,8.2417,8.2417,8.2687,8.2806,8.2806,8.2806,8.2806,8.2806,8.2806,8.2806,8.2806,8.2806,8.2806,0.0,8.2806,8.2806,8.2806,8.2806,8.2806,8.2806,8.2806,8.2806,8.2806,8.2806,8.2806,8.2806,8.2806,8.2806,8.2806,8.2806,8.2806,8.2806,8.2806,8.2806,8.2806,8.2806,8.2806,8.2806,8.2806,8.2967,8.3247,8.3617,8.3897,8.4006,8.3748,8.3688,8.3497,8.2896,8.2806,8.3161,8.4295,8.6009,8.7417,8.8029,9.074,9.2206,9.1253,9.1887,9.2339,9.2199,9.1474,9.1223,9.1711,9.1359,9.0502,8.9068,8.7987,8.6892,8.5768,8.4042,8.3353,8.3733,8.2256,8.177,8.2189,8.2597,8.2806,0.0,6.6386,6.7748,6.9049,6.7029,6.4545,6.3887,6.1313,0.0,5.9039,5.8487,5.8248,5.8919,5.9009,5.9039,5.9265,6.0342,6.1642,6.2974,6.4964,6.7777,7.1833,7.3402,7.5138,7.7622,7.9597,8.0734,8.0734,8.1351,8.1441,8.0764,8.0734,8.0704,8.0674,8.1321,8.168,8.174,8.2357,8.2687,8.2717,8.2717,8.2747,8.2806,8.2806,8.2806,8.2806,8.2806,8.2806,8.2806,8.2806,8.2806,8.2806,8.2806,8.2806,8.2806,8.2806,8.2806,8.2806,8.2806,8.2806,8.2806,8.2806,8.2806,8.2806,8.2806,8.2806,8.2806,8.2866,8.2866,8.2866,8.2926,8.2926,8.2926,8.2866,8.3277,8.3688,8.3688,8.4245,8.4515,8.3886,8.3777,8.3587,8.2967,8.2836,8.2806,8.2806,8.4332,8.5502,8.5502,8.8539,9.0768,9.0895,9.1723,9.2661,9.3552,9.2846,9.2382,9.2299,9.1405,9.0455,8.9431,8.6902,8.5449,8.5305,8.3654,8.2806,8.2806,8.2806,8.2806,8.2806,8.2806,8.2806,5.8693,0.0,6.2165,6.2989,6.2586,6.1838,0.0,6.0027,5.8936,5.8457,0.0,0.0,5.8218,5.7932,5.8411,6.0984,6.1672,6.2331,6.3602,6.6774,7.0843,7.5826,7.6694,7.7322,7.846,7.9477,8.0027,8.0027,8.0674,8.0734,8.0057,8.0027,7.9788,7.9286,7.9926,8.0524,8.1033,8.1183,8.153,8.2039,8.2039,8.2297,8.2806,8.2806,8.2806,8.2806,8.2806,8.2806,8.2806,8.2806,8.2806,8.2806,8.2806,8.2806,8.2806,8.2806,8.2806,8.2806,8.2806,8.2806,8.2806,8.2806,8.2806,8.2806,8.2806,8.2806,8.2896,8.3367,8.3497,8.3587,8.4115,8.4265,8.4115,8.3617,8.3617,8.3688,8.3688,8.4245,8.4634,8.4485,8.4455,8.4245,8.3587,8.3117,8.2806,8.2806,8.4332,8.5502,8.5502,8.7456,8.9382,9.0768,9.1108,9.1899,9.3483,9.2846,9.2061,9.1287,9.1016,8.9578,8.6615,8.5841,8.4848,8.3479,8.3022,8.2806,8.2806,8.2806,8.2806,8.2806,8.2806,8.2806,5.6509,5.8125,5.9787,6.0475,6.0416,6.0086,5.9727,5.889,0.0,0.0,0.0,0.0,0.0,0.0,0.0,6.0386,6.1253,6.2839,6.6266,6.9093,7.2565,7.7263,7.7801,7.8071,7.8729,7.9417,7.9668,7.9339,7.9956,8.0027,7.9387,7.9357,7.9178,7.8807,7.9148,7.9656,8.0326,8.0644,8.1123,8.18,8.18,8.2129,8.2806,8.2806,8.2806,8.2806,8.2806,8.2806,8.2806,8.2806,8.2806,8.2806,8.2806,8.2806,8.2806,8.2806,8.2806,8.2806,8.2806,8.2806,8.2806,8.2806,8.2806,8.2806,8.2806,8.2997,8.3277,8.3617,8.3927,8.4245,8.4604,8.4694,8.4604,8.4245,8.4156,8.4245,8.4545,8.4904,8.5162,8.5162,8.5162,8.4844,8.3886,8.3408,8.3117,8.2836,8.3636,8.4259,8.4259,8.5845,8.7336,8.8304,8.9185,9.0048,9.1053,9.0703,9.0608,9.0878,8.9349,8.7525,8.5592,8.4685,8.3821,8.2825,8.2806,8.2806,8.2806,8.2806,8.2806,8.2806,8.2806,8.2806,5.6102,5.7603,5.9069,5.9532,5.9279,5.8919,5.883,0.0,0.0,0.0,0.0,0.0,0.0,5.756,0.0,0.0,6.0924,6.3977,6.9648,7.1474,7.3659,7.7502,7.7951,7.819,7.8729,7.9327,7.9417,7.8819,7.9327,7.9417,7.8819,7.8807,7.8807,7.8807,7.8807,7.9058,7.9638,8.0225,8.0823,8.15,8.159,8.2009,8.2657,8.2747,8.2806,8.2806,8.2806,8.2806,8.2806,8.2806,8.2806,8.2806,8.2806,8.2806,8.2806,8.2806,8.2806,8.2806,8.2806,8.2806,8.2806,8.2806,8.2806,8.2806,8.2806,8.3277,8.3837,8.3837,8.4335,8.4893,8.4983,8.5013,8.4983,8.4893,8.4844,8.4983,8.5462,8.5611,8.5701,8.5701,8.5701,8.5312,8.4066,8.3748,8.3497,8.2896,8.2806,8.2806,8.2806,8.4142,8.5179,8.5466,8.6853,8.7916,8.8187,8.8014,8.8535,9.0,8.7213,8.5377,8.5089,8.3689,8.2896,8.2806,8.2806,8.2806,8.2806,8.2806,8.2806,8.2806,8.2806,8.2806,5.6479,5.759,5.8158,5.7663,5.7919,5.8098,5.7543,0.0,0.0,0.0,0.0,0.0,0.0,5.7184,5.8231,0.0,6.4156,6.7567,7.183,7.3103,7.4839,7.822,7.8639,7.8687,7.8807,7.8878,7.8908,7.8807,7.8878,7.8908,7.8807,7.8807,7.8807,7.8807,7.8807,7.8867,7.8938,7.9076,7.9447,8.0117,8.0674,8.1302,8.1979,8.2537,8.2806,8.2806,8.2806,8.2806,8.2806,8.2806,8.2806,8.2806,8.2806,8.2806,8.2806,8.2806,8.2806,8.2806,8.2806,8.2806,8.2806,8.2806,8.2806,8.2806,8.2806,8.3626,8.4545,8.4545,8.5043,8.5671,8.6259,8.6379,8.6259,8.5671,8.5551,8.5432,8.4953,8.5312,8.5701,8.5701,8.5701,8.5462,8.4664,8.4096,8.3497,8.2896,8.2806,8.2806,8.2806,8.3041,8.3821,8.5341,8.5739,8.6536,8.8085,8.7267,8.6566,8.6354,8.5792,8.4812,8.3274,8.3448,8.3337,8.2806,8.2806,8.2806,8.2806,8.2806,8.2806,8.2806,8.2806,8.2806,5.4862,5.5748,5.6615,5.7017,5.7872,5.8457,5.7799,0.0,0.0,0.0,0.0,0.0,0.0,0.0,6.0475,6.4156,6.7208,7.0111,7.3043,7.433,7.5916,7.8507,7.8807,7.8807,7.8807,7.8807,7.8807,7.8807,7.8807,7.8807,7.8807,7.8807,7.8807,7.8807,7.8807,7.8807,7.8807,7.8807,7.9148,7.9818,8.0494,8.1153,8.183,8.2488,8.2806,8.2806,8.2806,8.2806,8.2806,8.2806,8.2806,8.2806,8.2806,8.2806,8.2806,8.2806,8.2806,8.2806,8.2806,8.2806,8.2806,8.2806,8.3027,8.3277,8.3277,8.4205,8.5252,8.5252,8.5731,8.6319,8.6619,8.6708,8.6619,8.6319,8.594,8.5701,8.5761,8.5462,8.5372,8.611,8.5641,8.5192,8.5222,8.4395,8.3617,8.3337,8.2997,8.2806,8.2806,8.2806,8.3135,8.3939,8.405,8.4387,8.5215,8.5078,8.4979,8.5059,8.4724,8.4131,8.3315,8.3557,8.3408,8.2806,8.2806,8.2806,8.2806,8.2806,8.2806,8.2806,8.2806,8.2967,5.4144,5.4773,5.573,5.7004,0.0,0.0,0.0,0.0,0.0,0.0,0.0,0.0,0.0,6.0821,6.3588,6.6909,6.9931,7.2475,7.433,7.5617,7.6963,7.8579,7.8807,7.8807,7.8807,7.8807,7.8807,7.8807,7.8807,7.8807,7.8807,7.8807,7.8807,7.8807,7.8807,7.8807,7.8807,7.8807,7.9058,7.9578,8.0405,8.1063,8.159,8.2417,8.2717,8.2567,8.2747,8.2717,8.2567,8.2747,8.2806,8.2806,8.2806,8.2806,8.2806,8.2806,8.2806,8.2806,8.2806,8.2806,8.2806,8.2806,8.3117,8.3527,8.3658,8.4515,8.5492,8.5641,8.62,8.6708,8.6708,8.6708,8.6708,8.6708,8.6319,8.608,8.6589,8.59,8.5462,8.6499,8.5851,8.5222,8.5432,8.4604,8.3827,8.3527,8.3117,8.2806,8.2806,8.2806,8.2806,8.2806,8.2806,8.2866,8.2997,8.3307,8.3827,8.4634,8.4365,8.4036,8.3718,8.3688,8.3408,8.2806,8.2937,8.2997,8.2997,8.3177,8.3236,8.3236,8.3236,8.3487,5.6346,5.6479,5.6432,5.7709,0.0,0.0,0.0,0.0,0.0,0.0,0.0,0.0,0.0,6.4006,6.7074,6.8615,7.2102,7.5095,7.6407,7.7215,7.7951,7.8699,7.8807,7.8807,7.8807,7.8807,7.8807,7.8807,7.8807,7.8807,7.8807,7.8807,7.8807,7.8807,7.8807,7.8807,7.8807,7.8807,7.8819,7.8878,8.0195,8.0823,8.0913,8.2189,8.2477,8.1919,8.2537,8.2447,8.1919,8.2537,8.2806,8.2806,8.2806,8.2806,8.2806,8.2806,8.2806,8.2806,8.2806,8.2806,8.2806,8.2806,8.2836,8.2967,8.3527,8.4215,8.4904,8.5521,8.62,8.6708,8.6708,8.6708,8.6708,8.6708,8.6648,8.6648,8.6678,8.6619,8.6589,8.6678,8.6619,8.617,8.4983,8.4694,8.4235,8.3046,8.2836,8.2806,8.2806,8.2806,8.2806,8.2806,8.2806,8.3027,8.3587,8.3177,8.3386,8.4604,8.5252,8.5013,8.3748,8.3688,8.3408,8.2806,8.3367,8.3647,8.3647,8.4245,8.4545,8.4545,8.4545,8.4574,5.4593,5.5132,5.5987,5.7679,0.0,0.0,0.0,0.0,0.0,0.0,0.0,0.0,0.0,0.0,6.8794,7.05,7.3762,7.6395,7.7305,7.8011,7.8519,7.8759,7.8807,7.8807,7.8807,7.8807,7.8807,7.8807,7.8807,7.8807,7.8807,7.8807,7.8807,7.8807,7.8807,7.8807,7.8807,7.8807,7.8807,7.8807,7.9746,8.0614,8.1441,8.153,8.165,8.18,8.162,8.165,8.183,8.2069,8.2417,8.2806,8.2806,8.2806,8.2806,8.2806,8.2806,8.2806,8.2806,8.2806,8.2806,8.2806,8.3057,8.3397,8.3647,8.4455,8.5372,8.5611,8.62,8.6708,8.6708,8.6708,8.6708,8.6708,8.6708,8.6708,8.6708,8.6379,8.62,8.6619,8.605,8.5551,8.59,8.5252,8.4684,8.4613,8.4254,8.3965,8.3965,8.3965,8.3816,8.3397,8.3027,8.3027,8.3628,8.3497,8.3737,8.4634,8.4545,8.4245,8.3718,8.3688,8.3587,8.3367,8.3587,8.3916,8.4335,8.4574,8.4694,8.4694,8.4694,8.4904,5.3755,5.4204,5.5359,0.0,0.0,0.0,0.0,0.0,0.0,0.0,0.0,0.0,0.0,0.0,0.0,7.1623,7.4659,7.7125,7.7981,7.8519,7.8807,7.8807,7.8807,7.8807,7.8807,7.8807,7.8807,7.8807,7.8807,7.8807,7.8807,7.8807,7.8807,7.8807,7.8807,7.8807,7.8807,7.8807,7.8908,7.9118,7.9387,8.0075,8.1153,8.0913,8.0943,8.1153,8.0913,8.0943,8.1183,8.1411,8.189,8.2507,8.2717,8.2806,8.2806,8.2806,8.2806,8.2806,8.2806,8.2806,8.2806,8.2806,8.3087,8.3438,8.3647,8.4485,8.5372,8.5372,8.6,8.6648,8.6439,8.6529,8.6708,8.6708,8.6708,8.6708,8.6708,8.6349,8.617,8.6619,8.594,8.5551,8.6259,8.5611,8.5103,8.5342,8.4814,8.4455,8.4664,8.4515,8.4215,8.3748,8.3177,8.2967,8.3397,8.3408,8.3606,8.4055,8.3666,8.3497,8.3688,8.3688,8.3688,8.3688,8.4126,8.4545,8.5013,8.5222,8.5342,8.5342,8.5342,8.5581,5.4551,5.4209,5.4688,0.0,0.0,0.0,0.0,0.0,0.0,0.0,0.0,0.0,6.7164,6.866,0.0,7.1713,7.4659,7.7275,7.8579,7.8807,7.8807,7.8807,7.8807,7.8807,7.8807,7.8807,7.8807,7.8807,7.8807,7.8807,7.8807,7.8807,7.8807,7.8807,7.8807,7.8807,7.8807,7.8807,7.9118,7.9788,7.9118,7.9148,7.9848,8.0476,8.0416,7.9848,8.0494,8.0405,7.9848,8.0524,8.1183,8.186,8.2537,8.2806,8.2806,8.2806,8.2806,8.2806,8.2806,8.2806,8.2806,8.2806,8.2806,8.2926,8.3497,8.4156,8.4694,8.4694,8.5671,8.6529,8.59,8.62,8.6708,8.6708,8.6708,8.6708,8.6708,8.6708,8.6708,8.6708,8.6708,8.6499,8.5821,8.5701,8.5492,8.4814,8.4156,8.3976,8.4634,8.4126,8.3718,8.3718,8.3177,8.2806,8.2806,8.2806,8.2806,8.2806,8.2806,8.3087,8.3658,8.3688,8.3688,8.3718,8.5043,8.5701,8.5701,8.6379,8.6708,8.6708,8.6708,8.6708,5.3875,5.4533,0.0,5.7453,0.0,0.0,0.0,0.0,0.0,0.0,0.0,7.0666,7.0486,7.0935,7.1623,7.2475,7.4629,7.6617,7.7921,7.81,7.828,7.8729,7.8807,7.8807,7.8807,7.8807,7.8807,7.8807,7.8807,7.8807,7.8807,7.8807,7.8807,7.8807,7.8807,7.8807,7.8807,7.8807,7.8878,7.9088,7.8878,7.9387,8.0494,7.9716,7.9537,7.9788,7.9507,7.9537,7.9848,8.0524,8.1183,8.183,8.2009,8.2368,8.2806,8.2806,8.2806,8.2806,8.2806,8.2806,8.2806,8.2806,8.2806,8.2836,8.2997,8.3517,8.4077,8.4574,8.5342,8.608,8.6349,8.6559,8.6708,8.6708,8.6708,8.6708,8.6708,8.6708,8.6708,8.6708,8.6708,8.6648,8.6439,8.6409,8.6349,8.614,8.596,8.5881,8.608,8.5103,8.4395,8.4395,8.3446,8.2806,8.2806,8.2806,8.2806,8.2806,8.2806,8.2896,8.3057,8.3468,8.3927,8.4395,8.5252,8.591,8.6409,8.6589,8.6708,8.6708,8.6708,8.6708,5.4892,5.582,0.0,5.9548,6.2061,6.5144,6.9542,0.0,0.0,0.0,7.4287,7.309,7.309,7.309,7.3329,7.3984,7.551,7.7023,7.8041,7.819,7.834,7.8747,7.8807,7.8807,7.8807,7.8807,7.8807,7.8807,7.8807,7.8807,7.8807,7.8807,7.8807,7.8807,7.8807,7.8807,7.8807,7.8807,7.8807,7.8807,7.8807,7.9208,7.9986,7.9166,7.9028,7.9387,7.8968,7.9028,7.9429,8.0135,8.0794,8.1441,8.171,8.2189,8.2806,8.2806,8.2806,8.2806,8.2806,8.2806,8.2806,8.2806,8.2806,8.2806,8.2806,8.3217,8.3777,8.4186,8.4983,8.5791,8.62,8.6499,8.6708,8.6708,8.6708,8.6708,8.6708,8.6708,8.6708,8.6708,8.6708,8.6708,8.6708,8.6708,8.6708,8.6708,8.6708,8.6499,8.597,8.5192,8.4604,8.4335,8.3416,8.2806,8.2806,8.2806,8.2806,8.2806,8.3027,8.3177,8.3177,8.3767,8.4425,8.5103,8.578,8.6289,8.6708,8.6708,8.6708,8.6708,8.6708,8.6708,5.6795,5.762,5.9175,6.2465,6.4081,0.0,7.198,7.424,7.5484,7.6647,0.0,7.5095,7.5155,7.5095,7.5275,7.5886,7.6946,7.7951,7.8609,7.8699,7.8729,7.8807,7.8807,7.8807,7.8807,7.8807,7.8807,7.8807,7.8807,7.8807,7.8807,7.8807,7.8807,7.8807,7.8807,7.8807,7.8807,7.8807,7.8807,7.8807,7.8807,7.8807,7.8807,7.8807,7.8807,7.8807,7.8807,7.8807,7.8867,7.9477,8.0147,8.0853,8.1471,8.2178,8.2806,8.2806,8.2806,8.2806,8.2806,8.2806,8.2806,8.2806,8.2806,8.2806,8.2806,8.3158,8.3647,8.3767,8.4664,8.5641,8.5761,8.6229,8.6708,8.6708,8.6648,8.6619,8.6678,8.6589,8.6559,8.6678,8.6648,8.6619,8.6678,8.6708,8.6708,8.6708,8.6648,8.617,8.4953,8.4664,8.4365,8.3748,8.3177,8.2806,8.2806,8.2806,8.2806,8.2896,8.3397,8.3748,8.3886,8.4455,8.5073,8.5671,8.6349,8.6708,8.6708,8.6708,8.6708,8.6708,8.6708,8.6708,5.573,5.7992,6.112,6.3902,6.8226,7.2505,7.533,7.6587,7.7263,7.7514,7.6946,7.6557,7.7083,7.6736,7.6437,7.6587,7.6856,7.7245,7.7921,7.8011,7.822,7.8747,7.8807,7.8807,7.8807,7.8807,7.8807,7.8807,7.8807,7.8807,7.8807,7.8807,7.8807,7.8807,7.8807,7.8807,7.8807,7.8807,7.8807,7.8807,7.8807,7.8807,7.8807,7.8807,7.8807,7.8807,7.8807,7.8807,7.8807,7.8938,7.9716,8.0823,8.0943,8.174,8.2806,8.2806,8.2806,8.2806,8.2806,8.2806,8.2806,8.2806,8.2806,8.2806,8.2806,8.2896,8.3206,8.4186,8.4694,8.5162,8.6229,8.6589,8.6708,8.6708,8.6289,8.608,8.6589,8.5851,8.5432,8.6499,8.6289,8.606,8.6619,8.6708,8.6708,8.6708,8.6259,8.5791,8.5521,8.4574,8.3867,8.3718,8.3177,8.2806,8.2806,8.2806,8.2997,8.3468,8.3647,8.4186,8.5222,8.5402,8.5551,8.5701,8.6349,8.6708,8.6708,8.6708,8.6708,8.6708,8.6708,8.6708,5.7197,5.9967,6.3483,6.7731,7.183,7.5288,7.6916,7.7801,7.828,7.828,7.8011,7.7861,7.822,7.7981,7.7753,7.7753,7.7753,7.7891,7.822,7.828,7.84,7.8759,7.8807,7.8807,7.8807,7.8807,7.8807,7.8807,7.8807,7.8807,7.8807,7.8807,7.8807,7.8807,7.8807,7.8807,7.8807,7.8807,7.8807,7.8807,7.8807,7.8807,7.8807,7.8807,7.8807,7.8807,7.8807,7.8807,7.8807,7.8807,7.9387,8.0345,8.0674,8.1441,8.2357,8.2687,8.2806,8.2806,8.2806,8.2806,8.2806,8.2806,8.2806,8.2806,8.2806,8.2997,8.3367,8.4036,8.4664,8.5342,8.605,8.6469,8.6708,8.6708,8.6439,8.6289,8.6619,8.617,8.5851,8.6559,8.617,8.591,8.6589,8.6708,8.6708,8.6708,8.6409,8.608,8.5731,8.4814,8.4066,8.3718,8.3177,8.2806,8.2806,8.2806,8.3057,8.3658,8.4006,8.4634,8.5671,8.602,8.617,8.617,8.6529,8.6529,8.6229,8.6529,8.6529,8.6229,8.6559,8.6708,5.8783,6.2241,6.637,7.1876,7.4749,7.6544,7.7711,7.8489,7.8938,7.8819,7.8807,7.8807,7.8807,7.8807,7.8807,7.8807,7.8807,7.8807,7.8807,7.8807,7.8807,7.8807,7.8807,7.8807,7.8807,7.8807,7.8807,7.8807,7.8807,7.8807,7.8807,7.8807,7.8807,7.8807,7.8807,7.8807,7.8807,7.8687,7.8687,7.8807,7.8807,7.8747,7.8639,7.8747,7.8807,7.8807,7.8807,7.8807,7.8807,7.8807,7.9208,7.9878,8.0554,8.1212,8.189,8.2567,8.2806,8.2806,8.2806,8.2806,8.2806,8.2806,8.2806,8.2806,8.2806,8.3147,8.3587,8.3658,8.4485,8.5372,8.5492,8.6,8.6529,8.6529,8.6619,8.6708,8.6708,8.6529,8.6409,8.6648,8.6259,8.605,8.6589,8.6708,8.6648,8.6529,8.6529,8.6229,8.5462,8.4874,8.4275,8.3617,8.3117,8.2806,8.2806,8.2896,8.3236,8.3827,8.4485,8.5162,8.5851,8.6409,8.6648,8.6529,8.6529,8.6319,8.5851,8.6319,8.6289,8.59,8.6439,8.6708,5.7077,6.3243,7.0067,7.3719,7.6096,7.7724,7.8507,7.9178,7.9489,7.8908,7.8807,7.8807,7.8807,7.8807,7.8807,7.8807,7.8807,7.8807,7.8807,7.8807,7.8807,7.8807,7.8807,7.8807,7.8807,7.8807,7.8807,7.8807,7.8807,7.8807,7.8807,7.8807,7.8807,7.8807,7.8807,7.8807,7.8807,7.822,7.822,7.8807,7.8807,7.8489,7.7951,7.8519,7.8807,7.8807,7.8807,7.8807,7.8807,7.8807,7.9208,7.9878,8.0554,8.1212,8.189,8.2567,8.2806,8.2806,8.2806,8.2806,8.2806,8.2806,8.2806,8.2806,8.2806,8.2866,8.3027,8.3557,8.3827,8.4096,8.4664,8.5342,8.5821,8.5821,8.6289,8.6708,8.6708,8.5791,8.5312,8.6469,8.6619,8.6589,8.6678,8.6708,8.6499,8.591,8.5821,8.5372,8.4126,8.3886,8.3587,8.2967,8.2866,8.2806,8.2806,8.3277,8.3856,8.4515,8.5192,8.587,8.6529,8.6648,8.6439,8.5851,8.5821,8.608,8.6559,8.608,8.611,8.6559,8.6648,8.6708,6.0162,6.5413,7.05,7.4869,7.6904,7.8053,7.9118,7.9896,8.0285,7.9986,7.9627,7.9238,7.8867,7.8807,7.8807,7.8807,7.8807,7.8807,7.8807,7.8807,7.8807,7.8807,7.8807,7.8807,7.8807,7.8807,7.8807,7.8807,7.8807,7.8807,7.8807,7.8807,7.8807,7.8807,7.8807,7.8807,7.8807,7.813,7.7753,7.7664,7.8071,7.81,7.7813,7.8489,7.8807,7.8807,7.8807,7.8807,7.8807,7.8807,7.8968,7.9297,7.9967,8.0644,8.1302,8.1979,8.2477,8.2806,8.2806,8.2806,8.2806,8.2806,8.2806,8.2806,8.2806,8.3027,8.3277,8.3217,8.3995,8.4784,8.4724,8.5492,8.6259,8.6259,8.6499,8.6708,8.6708,8.6229,8.5761,8.5611,8.62,8.6469,8.5701,8.62,8.6469,8.5791,8.5701,8.5492,8.4904,8.4485,8.4156,8.3876,8.3517,8.3307,8.3307,8.3557,8.4156,8.5192,8.5551,8.602,8.6678,8.6708,8.6379,8.5701,8.5701,8.5492,8.5043,8.5492,8.5671,8.5611,8.6349,8.6708,6.1658,6.5577,6.8944,7.4044,7.6168,7.7502,7.916,8.0195,8.0794,8.0794,8.0554,8.0105,7.9417,7.9028,7.8807,7.8807,7.8807,7.8807,7.8807,7.8807,7.8807,7.8807,7.8807,7.8807,7.8807,7.8807,7.8807,7.8807,7.8807,7.8807,7.8807,7.8807,7.8807,7.8807,7.8807,7.8717,7.8549,7.7891,7.7125,7.6317,7.7155,7.7454,7.7352,7.816,7.8549,7.8567,7.8747,7.8807,7.8807,7.8807,7.8807,7.8867,7.9537,8.0207,8.0883,8.156,8.2219,8.2806,8.2806,8.2806,8.2806,8.2806,8.2806,8.2806,8.2806,8.3117,8.3397,8.2907,8.3955,8.5073,8.4574,8.5432,8.6439,8.6439,8.6589,8.6708,8.6708,8.6708,8.6409,8.5402,8.602,8.6379,8.5372,8.605,8.6409,8.5581,8.5731,8.5761,8.5252,8.5043,8.4893,8.4724,8.4245,8.3946,8.3946,8.4126,8.4634,8.5641,8.5851,8.617,8.6678,8.6708,8.6379,8.5701,8.5701,8.5132,8.3976,8.4784,8.5103,8.4983,8.599,8.6529,5.8457,6.1792,6.5383,7.0051,7.3133,7.5724,7.825,7.9866,8.0794,8.0794,8.1291,8.15,8.0823,7.9656,7.8807,7.8807,7.8807,7.8807,7.8807,7.8807,7.8807,7.8807,7.8807,7.8807,7.8807,7.8807,7.8807,7.8807,7.8807,7.8807,7.8807,7.8807,7.8807,7.8807,7.8807,7.8489,7.7861,7.7185,7.6228,7.5006,7.6258,7.6557,7.6036,7.7293,7.7861,7.7891,7.8519,7.8807,7.8807,7.8807,7.8807,7.8867,7.9537,8.0207,8.0883,8.156,8.2219,8.2806,8.2806,8.2806,8.2806,8.2806,8.2806,8.2806,8.2806,8.2806,8.2836,8.2806,8.3277,8.3807,8.3748,8.4754,8.5731,8.5731,8.6229,8.6708,8.6708,8.6708,8.6678,8.6619,8.6648,8.6678,8.6619,8.6648,8.6259,8.4953,8.5821,8.594,8.4066,8.4874,8.5402,8.4773,8.4664,8.4634,8.4634,8.5222,8.5611,8.5701,8.6289,8.6648,8.6708,8.6708,8.6379,8.5701,8.5701,8.5342,8.4634,8.4096,8.4425,8.5641,8.5731,8.611,5.7679,6.0551,6.3887,6.8525,7.1667,7.43,7.6916,7.9238,8.0913,8.1351,8.165,8.174,8.15,8.0345,7.9429,7.9429,7.9088,7.8807,7.8807,7.8807,7.8807,7.8807,7.8807,7.8807,7.8807,7.8807,7.8807,7.8807,7.8807,7.8807,7.8807,7.8807,7.8807,7.8807,7.8807,7.828,7.7185,7.6527,7.5766,7.4916,7.5796,7.6317,7.6527,7.7394,7.8041,7.846,7.8699,7.8807,7.8807,7.8807,7.8807,7.8867,7.9537,8.0207,8.0883,8.156,8.2219,8.2806,8.2806,8.2806,8.2806,8.2806,8.2806,8.2806,8.2806,8.3087,8.3397,8.3397,8.4126,8.4963,8.4963,8.5671,8.6349,8.6349,8.6529,8.6708,8.6708,8.6708,8.6559,8.614,8.6409,8.6559,8.614,8.6409,8.6259,8.4904,8.5492,8.5641,8.4485,8.5132,8.5611,8.5372,8.5342,8.5342,8.5342,8.5551,8.5881,8.6319,8.6559,8.6708,8.6708,8.6708,8.6379,8.5701,8.5701,8.5372,8.4694,8.4893,8.5222,8.5701,8.614,8.6469,5.6273,5.8577,6.1642,6.6729,6.9137,7.1471,7.6078,7.8172,7.9656,8.1441,8.18,8.186,8.2099,8.1212,8.0326,7.9878,7.9447,7.9058,7.8819,7.8807,7.8807,7.8807,7.8807,7.8807,7.8807,7.8807,7.8807,7.8807,7.8807,7.8807,7.8807,7.8807,7.8807,7.8807,7.837,7.7694,7.6808,7.5976,7.5335,7.4916,7.5587,7.6108,7.6527,7.7394,7.8041,7.846,7.8699,7.8807,7.8807,7.8807,7.8807,7.8819,7.9297,8.0016,8.0853,8.1302,8.2009,8.2806,8.2806,8.2806,8.2806,8.2806,8.2806,8.2806,8.2806,8.3217,8.3688,8.3688,8.4664,8.5701,8.5701,8.62,8.6708,8.6708,8.6708,8.6708,8.6708,8.6708,8.6559,8.614,8.6409,8.6559,8.611,8.6409,8.6319,8.5192,8.5611,8.5791,8.5132,8.5611,8.605,8.605,8.605,8.605,8.605,8.605,8.6229,8.6678,8.6708,8.6708,8.6708,8.6708,8.6499,8.603,8.605,8.584,8.5372,8.5132,8.5252,8.5701,8.5701,8.591,0.0,0.0,0.0,6.4306,6.5338,6.7088,7.551,7.6544,7.6844,8.0842,8.168,8.1919,8.2657,8.2268,8.1411,8.0057,7.9818,7.9578,7.8908,7.8807,7.8807,7.8807,7.8807,7.8807,7.8807,7.8807,7.8807,7.8807,7.8807,7.8807,7.8807,7.8777,7.8777,7.8807,7.7484,7.6779,7.6779,7.5557,7.4916,7.4916,7.5587,7.5916,7.5976,7.7233,7.7813,7.7861,7.8519,7.8807,7.8807,7.8807,7.8807,7.8807,7.8819,7.9627,8.0794,8.0823,8.168,8.2806,8.2806,8.2806,8.2806,8.2806,8.2806,8.2806,8.2806,8.3217,8.3718,8.3718,8.4694,8.5731,8.5731,8.6229,8.6708,8.6708,8.6708,8.6708,8.6708,8.6708,8.6708,8.6708,8.6708,8.6708,8.6708,8.6708,8.6469,8.5791,8.6259,8.6439,8.5791,8.6259,8.6678,8.6708,8.6708,8.6708,8.6708,8.6708,8.6708,8.6708,8.6708,8.6708,8.6708,8.6708,8.6708,8.6708,8.6708,8.6708,8.6708,8.4724,8.4455,8.5701,8.4395,8.4485,5.3306,0.0,0.0,0.0,0.0,0.0,6.818,7.0141,7.2295,7.7185,7.8579,7.9686,8.2327,8.2657,8.2238,8.1411,8.0416,7.9728,7.9548,7.9118,7.8807,7.8807,7.8807,7.8807,7.8807,7.8807,7.8807,7.8807,7.8807,7.8807,7.8807,7.834,7.831,7.8759,7.7484,7.6779,7.6779,7.6036,7.5395,7.4916,7.5587,7.6108,7.6587,7.7424,7.8071,7.8519,7.8699,7.8807,7.8807,7.8807,7.8807,7.8867,7.9327,8.0045,8.0853,8.1332,8.2069,8.2806,8.2806,8.2806,8.2806,8.2806,8.2806,8.2806,8.2806,8.3566,8.4425,8.4425,8.5402,8.6409,8.6409,8.6559,8.6708,8.6708,8.6708,8.6708,8.6708,8.6708,8.6708,8.6708,8.6708,8.6708,8.6708,8.6708,8.6469,8.5791,8.5851,8.591,8.5731,8.5851,8.617,8.6648,8.6708,8.6708,8.6708,8.6708,8.6708,8.6708,8.6708,8.6708,8.6708,8.6708,8.6708,8.6708,8.6708,8.6708,8.6708,8.614,8.608,8.6409,8.605,8.608,0.0,0.0,0.0,0.0,0.0,0.0,6.6355,6.8106,7.0247,7.6018,7.7514,7.8639,8.1441,8.174,8.159,8.177,8.0913,8.0117,7.9848,7.9459,7.9118,7.8819,7.8807,7.8807,7.8807,7.8807,7.8807,7.8807,7.8807,7.8687,7.84,7.8011,7.7981,7.837,7.7604,7.7095,7.6779,7.6467,7.5826,7.4916,7.6125,7.6736,7.6838,7.7783,7.843,7.8807,7.8807,7.8807,7.8807,7.8807,7.8807,7.8837,7.9238,7.9956,8.0853,8.1242,8.1979,8.2806,8.2806,8.2806,8.2806,8.2806,8.2806,8.2806,8.2806,8.3685,8.4694,8.4694,8.5671,8.6708,8.6708,8.6708,8.6708,8.6708,8.6708,8.6708,8.6708,8.6708,8.6708,8.6708,8.6708,8.6708,8.6708,8.6708,8.6559,8.617,8.611,8.611,8.611,8.611,8.6259,8.6648,8.6708,8.6708,8.6708,8.6708,8.6708,8.6708,8.6708,8.6708,8.6708,8.6708,8.6708,8.6708,8.6708,8.6708,8.6708,8.6409,8.614,8.59,8.6439,8.6559,5.4478,0.0,0.0,0.0,5.8979,0.0,6.6804,6.8006,6.9301,7.5455,7.6958,7.7816,7.9984,7.9954,7.9954,8.1068,8.1183,8.0863,8.0112,7.9907,7.9578,7.8968,7.8867,7.8807,7.8807,7.8807,7.8807,7.8807,7.8747,7.846,7.7951,7.7753,7.7753,7.7921,7.7861,7.7484,7.6808,7.6868,7.6258,7.5035,7.6904,7.7484,7.6946,7.822,7.8807,7.8807,7.8807,7.8807,7.8807,7.8807,7.8807,7.8807,7.8807,7.9627,8.0794,8.0794,8.165,8.2806,8.2806,8.2806,8.2806,8.2806,8.2806,8.2806,8.2806,8.3685,8.4724,8.4893,8.5761,8.6708,8.6708,8.6708,8.6708,8.6708,8.6708,8.6708,8.6708,8.6708,8.6708,8.6708,8.6708,8.6708,8.6708,8.6708,8.6708,8.6708,8.6648,8.6619,8.6678,8.6648,8.6619,8.6678,8.6708,8.6708,8.6708,8.6708,8.6708,8.6708,8.6708,8.6708,8.6708,8.6708,8.6708,8.6708,8.6708,8.6708,8.6708,8.611,8.5492,8.4953,8.614,8.6379,5.5042,5.5927,5.6958,0.0,0.0,0.0,5.9578,6.2331,6.5828,6.9279,7.1716,7.4134,7.7167,7.814,7.8313,7.7999,8.0861,8.2722,8.1578,8.0494,7.9758,7.9608,7.9118,7.8807,7.8807,7.8807,7.8807,7.8807,7.831,7.816,7.8579,7.7574,7.7484,7.8579,7.81,7.7484,7.6808,7.7335,7.6963,7.5707,7.7143,7.7724,7.7634,7.843,7.8807,7.8807,7.8807,7.8807,7.8807,7.8807,7.8807,7.8807,7.8807,7.9627,8.0794,8.0794,8.165,8.2806,8.2806,8.2806,8.2806,8.2806,8.2806,8.2806,8.2806,8.3685,8.4923,8.602,8.6499,8.6708,8.6708,8.6708,8.6708,8.6708,8.6708,8.6708,8.6708,8.6708,8.6708,8.6708,8.6708,8.6708,8.6708,8.6708,8.6708,8.6708,8.6229,8.611,8.6619,8.6229,8.611,8.6648,8.6708,8.6708,8.6708,8.6708,8.6708,8.6708,8.6708,8.6708,8.6708,8.6708,8.6708,8.6708,8.6708,8.6708,8.6708,8.6559,8.6439,8.6319,8.6589,8.6619,5.588,5.6389,5.7287,5.7988,0.0,0.0,0.0,6.3083,6.5958,6.9367,7.0803,7.2302,7.4983,7.5173,7.5425,7.6854,7.9597,8.1599,8.1639,8.194,8.1698,8.0455,8.0016,7.9806,7.9806,7.9507,7.9148,7.8837,7.7873,7.7454,7.7783,7.7185,7.7125,7.7783,7.813,7.7981,7.7305,7.7981,7.7652,7.6347,7.7682,7.813,7.7813,7.8489,7.8807,7.8807,7.8807,7.8807,7.8807,7.8807,7.8807,7.8807,7.8807,7.9627,8.0794,8.0794,8.165,8.2806,8.2806,8.2806,8.2806,8.2806,8.2806,8.2806,8.2806,8.3476,8.4425,8.5432,8.5701,8.5761,8.611,8.62,8.6289,8.6619,8.6708,8.6708,8.6708,8.6708,8.6708,8.6708,8.6708,8.6708,8.6708,8.6708,8.6708,8.6708,8.6409,8.6319,8.6648,8.6409,8.6319,8.6648,8.6708,8.6708,8.6708,8.6708,8.6708,8.6708,8.6708,8.6708,8.6708,8.6708,8.6708,8.6708,8.6708,8.6708,8.6708,8.6708,8.6708,8.6708,8.6708,8.6708,0.0,0.0,0.0,0.0,0.0,6.1206,0.0,0.0,0.0,7.0052,7.0597,7.1033,7.2682,7.2168,7.2453,7.5388,7.7598,7.923,8.0168,8.2198,8.2803,8.0749,8.1051,8.1148,8.0478,7.9668,7.916,7.8998,7.7275,7.6467,7.6976,7.6766,7.6736,7.6958,7.8041,7.834,7.7801,7.846,7.819,7.7006,7.822,7.8519,7.8011,7.8549,7.8807,7.8807,7.8807,7.8807,7.8807,7.8807,7.8807,7.8807,7.8807,7.9627,8.0794,8.0794,8.165,8.2806,8.2806,8.2806,8.2806,8.2806,8.2806,8.2806,8.2937,8.3307,8.3837,8.4515,8.4694,8.4814,8.5372,8.5521,8.5641,8.62,8.6409,8.6499,8.6499,8.6619,8.6708,8.6708,8.6708,8.6708,8.6708,8.6708,8.6708,8.6708,8.6708,8.6708,8.6708,8.6708,8.6708,8.6708,8.6708,8.6708,8.6708,8.6708,8.6708,8.6708,8.6708,8.6708,8.6708,8.6708,8.6708,8.6708,8.6708,8.6708,8.6708,8.6708,8.6708,8.6708,8.6708,8.6708,0.0,0.0,0.0,0.0,6.3125,0.0,0.0,0.0,6.7382,6.6065,0.0,6.9368,6.9614,0.0,0.0,7.0935,7.4474,7.6916,7.6128,7.8467,8.0019,7.945,8.1906,8.241,7.9341,7.7873,7.7843,7.9548,7.6305,7.5258,7.7544,7.6617,7.6527,7.7634,7.7813,7.7891,7.7801,7.846,7.843,7.7694,7.843,7.8759,7.8687,7.8777,7.8807,7.8807,7.8807,7.8807,7.8807,7.8807,7.8807,7.8807,7.8807,7.9627,8.0794,8.0794,8.165,8.2806,8.2806,8.2806,8.2806,8.2806,8.2806,8.2896,8.3438,8.3628,8.3837,8.4515,8.4694,8.4724,8.4784,8.4814,8.4814,8.4904,8.5372,8.5791,8.5791,8.6289,8.6708,8.6708,8.6708,8.6708,8.6708,8.6708,8.6708,8.6708,8.6708,8.6708,8.6708,8.6708,8.6708,8.6708,8.6708,8.6708,8.6708,8.6708,8.6708,8.6708,8.6708,8.6708,8.6708,8.6708,8.6708,8.6708,8.6708,8.6708,8.6708,8.6708,8.6708,8.6708,8.6708,8.6708,0.0,0.0,0.0,0.0,0.0,0.0,6.3148,0.0,6.7179,0.0,0.0,0.0,0.0,0.0,0.0,0.0,7.2845,7.4909,7.49,7.7476,7.9164,7.8627,7.9399,7.9337,7.7853,7.6856,7.7174,7.9337,7.64,7.5708,7.8535,7.7614,7.7263,7.7783,7.819,7.837,7.837,7.8639,7.8639,7.837,7.8687,7.8807,7.8807,7.8807,7.8807,7.8807,7.8807,7.8807,7.8807,7.8807,7.9028,7.9387,7.9387,7.9956,8.0853,8.1242,8.1979,8.2806,8.2806,8.2806,8.2806,8.2806,8.2806,8.2866,8.3117,8.3158,8.3236,8.3536,8.3596,8.3685,8.4036,8.4126,8.4305,8.5103,8.5492,8.5791,8.62,8.6499,8.6708,8.6708,8.6708,8.6708,8.6708,8.6708,8.6708,8.6708,8.6708,8.6708,8.6708,8.6708,8.6708,8.6708,8.6708,8.6708,8.6708,8.6708,8.6708,8.6708,8.6708,8.6708,8.6708,8.6708,8.6708,8.6708,8.6708,8.6708,8.6708,8.6708,8.6708,8.6708,8.6708,8.6708,6.4276,0.0,0.0,0.0,0.0,0.0,0.0,0.0,0.0,0.0,0.0,0.0,0.0,0.0,0.0,0.0,0.0,7.2845,7.36,7.5055,7.6282,7.7004,7.6701,7.6774,7.7616,7.58,7.5595,7.8171,7.5345,7.5026,7.845,7.7771,7.7424,7.7801,7.828,7.8609,7.8807,7.8807,7.8807,7.8807,7.8807,7.8807,7.8807,7.8807,7.8807,7.8807,7.8807,7.8807,7.8807,7.8998,7.9357,7.9848,8.0207,8.0644,8.1123,8.162,8.2219,8.2806,8.2806,8.2806,8.2806,8.2806,8.2806,8.2806,8.2806,8.2806,8.2806,8.2806,8.2806,8.2896,8.3337,8.3438,8.3737,8.4893,8.5282,8.5611,8.6289,8.6559,8.6708,8.6708,8.6708,8.6708,8.6708,8.6708,8.6708,8.6708,8.6708,8.6708,8.6708,8.6708,8.6708,8.6708,8.6708,8.6708,8.6708,8.6708,8.6708,8.6708,8.6708,8.6708,8.6708,8.6708,8.6708,8.6708,8.6708,8.6708,8.6708,8.6708,8.6708,8.6708,8.6708,8.6708,0.0,0.0,0.0,6.6701,0.0,0.0,0.0,0.0,7.0759,0.0,0.0,0.0,0.0,0.0,0.0,0.0,0.0,0.0,0.0,6.9586,6.9804,7.4017,7.4824,7.6307,7.9416,7.4476,7.2432,7.5763,7.2312,7.2056,7.6627,7.6293,7.6544,7.7753,7.7813,7.813,7.8807,7.8807,7.8807,7.8807,7.8807,7.8807,7.8807,7.8807,7.8807,7.8807,7.8807,7.8807,7.8849,7.9489,7.9788,7.9937,8.1231,8.174,8.177,8.18,8.2219,8.2806,8.2806,8.2806,8.2806,8.2806,8.2806,8.2806,8.2806,8.2806,8.2806,8.2806,8.2806,8.2806,8.2806,8.2836,8.2967,8.3617,8.4275,8.4923,8.5581,8.6229,8.6708,8.6708,8.6708,8.6708,8.6708,8.6708,8.6708,8.6708,8.6708,8.6708,8.6708,8.6708,8.6708,8.6708,8.6708,8.6708,8.6708,8.6708,8.6708,8.6708,8.6708,8.6708,8.6708,8.6708,8.6708,8.6708,8.6708,8.6708,8.6708,8.6708,8.6708,8.6708,8.6708,8.6708,7.2415,7.2864,7.2667,6.8921,0.0,0.0,0.0,0.0,0.0,0.0,0.0,0.0,0.0,0.0,0.0,0.0,0.0,0.0,0.0,6.7952,6.8286,7.1288,7.2528,7.3573,7.4645,7.432,7.4881,7.6979,7.5363,7.5556,7.8496,7.8288,7.8009,7.7807,7.822,7.8579,7.8807,7.8807,7.8807,7.8807,7.8807,7.8807,7.8807,7.8807,7.8807,7.8807,7.8807,7.9058,7.9477,7.9698,8.0326,8.1171,8.162,8.2069,8.2477,8.2477,8.2597,8.2806,8.2806,8.2806,8.2806,8.2806,8.2806,8.2806,8.2806,8.2806,8.2806,8.2806,8.2806,8.2806,8.2806,8.2806,8.2937,8.3557,8.4215,8.4874,8.5551,8.6229,8.6708,8.6708,8.6708,8.6708,8.6708,8.6708,8.6708,8.6708,8.6708,8.6708,8.6708,8.6708,8.6708,8.6708,8.6708,8.6708,8.6708,8.6708,8.6708,8.6708,8.6708,8.6708,8.6708,8.6708,8.6708,8.6708,8.6708,8.6708,8.6708,8.6708,8.6708,8.6708,8.6708,8.6708,7.4809,7.5258,7.5215,7.2151,7.1213,0.0,6.8592,0.0,7.2796,0.0,0.0,0.0,0.0,0.0,0.0,0.0,0.0,0.0,0.0,6.7151,6.7658,6.8842,7.0211,7.1582,7.2972,7.297,7.3945,7.6428,7.4865,7.504,7.7868,7.8026,7.7853,7.746,7.834,7.8807,7.8807,7.8807,7.8807,7.8807,7.8807,7.8807,7.8807,7.8807,7.8807,7.8807,7.9058,7.9417,7.9848,8.0296,8.1003,8.183,8.2069,8.2417,8.2806,8.2806,8.2806,8.2806,8.2806,8.2806,8.2806,8.2806,8.2806,8.2806,8.2806,8.2806,8.2806,8.2806,8.2806,8.2806,8.2806,8.2806,8.2937,8.3557,8.4036,8.4574,8.5492,8.605,8.6409,8.6648,8.6708,8.6708,8.6708,8.6708,8.6708,8.6708,8.6708,8.6708,8.6708,8.6708,8.6708,8.6708,8.6708,8.6708,8.6708,8.6708,8.6708,8.6708,8.6708,8.6708,8.6708,8.6708,8.6708,8.6708,8.6708,8.6708,8.6708,8.6708,8.6708,8.6708,8.6708,8.6708]},{"header":{"parameterUnit":"m.s-1","parameterCategory":1,"la1":30.6,"la2":29.2853,"lo1":-89.7004,"lo2":-87.6739,"dy":0.0162,"dx":0.0183,"nx":112,"ny":82,"refTime":"2026-04-06T12:00:00:Z","depth":0,"parameterNumber":3,"parameterNumberName":"V-component_of_WINDS"},"data":[0.0,0.0,0.0,0.0,0.0,0.0,0.0,0.0,0.0,0.0,0.0,0.0,0.0,0.0,0.0,0.0,0.0,0.0,0.0,0.0,0.0,0.0,0.0,0.0,0.0,0.0,0.0,0.0,0.0,0.0,0.0,0.0,0.0,0.0,0.0,0.0,0.0,0.0,0.0,0.0,0.0,0.0,0.0,0.0,0.0,0.0,0.0,0.0,0.0,0.0,0.0,0.0,0.0,0.0,0.0,0.0,0.0,0.0,0.0,0.0,0.0,0.0,0.0,0.0,0.0,0.0,0.0,0.0,0.0,0.0,0.0,0.0,0.0,0.0,0.0,0.0,0.0,0.0,0.0,0.0,0.0,0.0,0.0,0.0,0.0,0.0,0.0,0.0,0.0,0.0,0.0,2.3556,2.6833,2.9515,3.0953,3.0121,2.932,2.8853,0.0,0.0,0.0,0.0,0.0,0.0,0.0,0.0,0.0,0.0,0.0,0.0,0.0,0.0,0.0,0.0,0.0,0.0,0.0,0.0,0.0,0.0,0.0,0.0,0.0,0.0,0.0,0.0,0.0,0.0,0.0,0.0,0.0,0.0,0.0,0.0,0.0,0.0,0.0,0.0,0.0,0.0,0.0,0.0,0.0,0.0,0.0,0.0,0.0,0.0,0.0,0.0,0.0,0.0,0.0,0.0,0.0,0.0,0.0,0.0,0.0,0.0,0.0,0.0,0.0,0.0,0.0,0.0,0.0,0.0,0.0,0.0,0.0,0.0,0.0,0.0,0.0,0.0,0.0,0.0,0.0,0.0,0.0,0.0,0.0,0.0,0.0,0.0,0.0,0.0,0.0,0.0,0.0,0.0,0.0,0.0,0.0,0.0,0.0,0.0,0.0,0.0,0.0,0.0,2.2748,2.6857,3.1006,3.3551,3.3624,3.3714,3.3155,3.1691,0.0,0.0,0.0,0.0,0.0,0.0,0.0,0.0,0.0,0.0,0.0,0.0,0.0,0.0,0.0,0.0,0.0,0.0,0.0,0.0,0.0,0.0,0.0,0.0,0.0,0.0,0.0,0.0,0.0,0.0,0.0,0.0,0.0,0.0,0.0,0.0,0.0,0.0,0.0,0.0,0.0,0.0,0.0,0.0,0.0,0.0,0.0,0.0,0.0,0.0,0.0,0.0,0.0,0.0,0.0,0.0,0.0,0.0,0.0,0.0,0.0,0.0,0.0,0.0,0.0,0.0,0.0,0.0,0.0,0.0,0.0,0.0,0.0,0.0,0.0,0.0,0.0,0.0,0.0,0.0,0.0,0.0,0.0,0.0,0.0,0.0,0.0,0.0,0.0,0.0,0.0,0.0,0.0,0.0,0.0,0.0,0.0,0.0,0.0,0.0,0.0,0.0,0.0,2.3656,2.6005,3.1332,3.3597,3.5029,3.5812,3.514,3.3965,3.2316,2.937,0.0,0.0,0.0,0.0,0.0,0.0,0.0,0.0,0.0,0.0,0.0,0.0,0.0,0.0,0.0,0.0,0.0,0.0,0.0,0.0,0.0,0.0,0.0,0.0,0.0,0.0,0.0,0.0,0.0,0.0,0.0,0.0,0.0,0.0,0.0,0.0,0.0,0.0,0.0,0.0,0.0,0.0,0.0,0.0,0.0,0.0,0.0,0.0,0.0,0.0,0.0,0.0,0.0,0.0,0.0,0.0,0.0,0.0,0.0,0.0,0.0,0.0,0.0,0.0,0.0,0.0,0.0,0.0,0.0,0.0,0.0,0.0,0.0,0.0,0.0,0.0,0.0,0.0,0.0,0.0,0.0,0.0,0.0,0.0,0.0,0.0,0.0,0.0,0.0,0.0,0.0,0.0,0.0,0.0,0.0,0.0,0.0,0.0,0.0,0.0,0.0,0.0,2.7012,2.9492,3.4647,3.5541,3.6193,3.722,3.5703,3.3965,3.2316,3.0019,0.0,0.0,0.0,0.0,0.0,0.0,0.0,0.0,0.0,0.0,0.0,0.0,0.0,0.0,0.0,0.0,0.0,0.0,0.0,0.0,0.0,0.0,0.0,0.0,0.0,0.0,0.0,0.0,0.0,0.0,0.0,0.0,0.0,0.0,0.0,0.0,0.0,0.0,0.0,0.0,0.0,0.0,0.0,0.0,0.0,0.0,0.0,0.0,0.0,0.0,0.0,0.0,0.0,0.0,0.0,0.0,0.0,0.0,0.0,0.0,0.0,0.0,0.0,0.0,0.0,0.0,0.0,0.0,0.0,0.0,0.0,0.0,0.0,0.0,0.0,0.0,0.0,0.0,0.0,0.0,0.0,0.0,0.0,0.0,0.0,0.0,0.0,0.0,0.0,0.0,0.0,0.0,0.0,0.0,0.0,0.0,0.0,0.0,0.0,0.0,0.0,0.0,2.883,3.2059,3.5131,3.7178,3.8057,3.7346,3.5703,3.3965,3.2316,2.976,0.0,0.0,0.0,0.0,0.0,0.0,0.0,0.0,0.0,0.0,0.0,0.0,0.0,0.0,0.0,0.0,0.0,0.0,0.0,0.0,0.0,0.0,0.0,0.0,0.0,0.0,0.0,0.0,0.0,0.0,0.0,0.0,0.0,0.0,0.0,0.0,0.0,0.0,0.0,0.0,0.0,0.0,0.0,0.0,0.0,0.0,0.0,0.0,0.0,0.0,0.0,0.0,0.0,0.0,0.0,0.0,0.0,0.0,0.0,0.0,0.0,0.0,0.0,0.0,0.0,0.0,0.0,0.0,0.0,0.0,0.0,0.0,0.0,0.0,0.0,0.0,0.0,0.0,0.0,0.0,0.0,0.0,0.0,0.0,0.0,0.0,0.0,0.0,0.0,0.0,0.0,0.0,0.0,0.0,0.0,0.0,0.0,0.0,0.0,0.0,0.0,0.0,3.1133,3.4505,0.0,3.8677,3.8613,3.7736,3.633,3.457,3.2335,0.0,0.0,0.0,0.0,0.0,0.0,0.0,0.0,0.0,0.0,0.0,0.0,0.0,0.0,0.0,0.0,0.0,0.0,0.0,0.0,0.0,0.0,0.0,0.0,0.0,0.0,0.0,0.0,0.0,0.0,0.0,0.0,0.0,0.0,0.0,0.0,0.0,0.0,0.0,0.0,0.0,0.0,0.0,0.0,0.0,0.0,0.0,0.0,0.0,0.0,0.0,0.0,0.0,0.0,0.0,0.0,0.0,0.0,0.0,0.0,0.0,0.0,0.0,0.0,0.0,0.0,0.0,0.0,0.0,0.0,0.0,0.0,0.0,0.0,0.0,0.0,0.0,0.0,0.0,0.0,0.0,0.0,0.0,0.0,0.0,0.0,0.0,0.0,0.0,0.0,0.0,0.0,0.0,0.0,0.0,0.0,0.0,0.0,0.0,0.0,0.0,0.0,2.9091,3.2646,3.6104,0.0,3.9473,3.8906,3.8184,3.6701,3.4766,3.2355,0.0,0.0,0.0,0.0,0.0,0.0,0.0,0.0,0.0,0.0,0.0,0.0,0.0,0.0,0.0,0.0,0.0,0.0,0.0,0.0,0.0,0.0,0.0,0.0,0.0,0.0,0.0,0.0,0.0,0.0,0.0,0.0,0.0,0.0,0.0,0.0,0.0,0.0,0.0,0.0,0.0,0.0,0.0,0.0,0.0,0.0,0.0,0.0,0.0,0.0,0.0,0.0,0.0,0.0,0.0,0.0,0.0,0.0,0.0,0.0,0.0,0.0,0.0,0.0,0.0,0.0,0.0,0.0,0.0,0.0,0.0,0.0,0.0,0.0,0.0,0.0,0.0,0.0,0.0,0.0,0.0,0.0,0.0,0.0,0.0,0.0,0.0,0.0,0.0,0.0,0.0,0.0,0.0,0.0,0.0,0.0,0.0,0.0,0.0,0.0,0.0,0.0,2.9175,3.3198,3.683,3.9616,3.9492,3.9043,3.8631,3.6658,3.4508,0.0,0.0,0.0,0.0,0.0,0.0,0.0,0.0,0.0,0.0,0.0,0.0,0.0,0.0,0.0,0.0,0.0,0.0,0.0,0.0,0.0,0.0,0.0,0.0,0.0,0.0,0.0,0.0,0.0,0.0,0.0,0.0,0.0,0.0,0.0,0.0,0.0,0.0,0.0,0.0,0.0,0.0,0.0,0.0,0.0,0.0,0.0,0.0,0.0,0.0,0.0,0.0,0.0,0.0,0.0,0.0,0.0,0.0,0.0,0.0,0.0,0.0,0.0,0.0,0.0,0.0,0.0,0.0,0.0,0.0,0.0,0.0,0.0,0.0,0.0,0.0,0.0,0.0,0.0,0.0,0.0,0.0,0.0,0.0,0.0,0.0,0.0,0.0,0.0,0.0,0.0,0.0,0.0,0.0,0.0,0.0,0.0,0.0,0.0,0.0,0.0,0.0,0.0,2.9833,3.5118,3.9201,4.0665,4.0391,3.9824,3.9082,3.7617,3.5446,3.2394,0.0,0.0,0.0,0.0,0.0,0.0,0.0,0.0,0.0,0.0,0.0,0.0,0.0,0.0,0.0,0.0,0.0,0.0,0.0,0.0,0.0,0.0,0.0,0.0,0.0,0.0,0.0,0.0,0.0,0.0,0.0,0.0,0.0,0.0,0.0,0.0,0.0,0.0,0.0,0.0,0.0,0.0,0.0,0.0,0.0,0.0,0.0,0.0,0.0,0.0,0.0,0.0,0.0,0.0,0.0,0.0,0.0,0.0,0.0,0.0,0.0,0.0,0.0,0.0,0.0,0.0,0.0,0.0,0.0,0.0,0.0,0.0,0.0,0.0,0.0,0.0,0.0,0.0,0.0,0.0,0.0,0.0,0.0,0.0,0.0,0.0,0.0,0.0,0.0,0.0,0.0,0.0,0.0,0.0,0.0,0.0,0.0,0.0,0.0,0.0,0.0,0.0,3.1452,3.6637,4.0547,4.1562,4.1133,4.0488,3.9785,3.8555,3.6287,3.2667,0.0,0.0,0.0,0.0,0.0,0.0,0.0,0.0,0.0,0.0,0.0,0.0,0.0,0.0,0.0,0.0,0.0,0.0,0.0,0.0,0.0,0.0,0.0,0.0,0.0,0.0,0.0,0.0,0.0,0.0,0.0,0.0,0.0,0.0,0.0,0.0,0.0,0.0,0.0,0.0,0.0,0.0,0.0,0.0,0.0,0.0,0.0,0.0,0.0,0.0,0.0,0.0,0.0,0.0,0.0,0.0,0.0,0.0,0.0,0.0,0.0,0.0,0.0,0.0,0.0,0.0,0.0,0.0,0.0,0.0,0.0,0.0,0.0,0.0,0.0,0.0,0.0,0.0,0.0,0.0,0.0,0.0,0.0,0.0,0.0,0.0,0.0,0.0,0.0,0.0,0.0,0.0,0.0,0.0,0.0,0.0,0.0,0.0,0.0,0.0,0.0,0.0,3.35,3.7773,4.1035,4.2265,4.1699,4.1074,4.0606,3.9375,3.7029,3.3219,0.0,0.0,0.0,0.0,0.0,0.0,0.0,0.0,0.0,0.0,0.0,0.0,0.0,0.0,0.0,0.0,0.0,0.0,0.0,0.0,0.0,0.0,0.0,0.0,0.0,0.0,0.0,0.0,0.0,0.0,0.0,0.0,0.0,0.0,0.0,0.0,0.0,0.0,0.0,0.0,0.0,0.0,0.0,0.0,0.0,0.0,0.0,0.0,0.0,0.0,0.0,0.0,0.0,0.0,0.0,0.0,0.0,0.0,0.0,0.0,3.1055,3.0151,0.0,0.0,0.0,0.0,0.0,0.0,0.0,0.0,0.0,0.0,0.0,0.0,0.0,0.0,0.0,0.0,0.0,0.0,0.0,0.0,0.0,0.0,0.0,0.0,0.0,0.0,0.0,0.0,0.0,0.0,0.0,0.0,0.0,0.0,0.0,0.0,0.0,0.0,0.0,0.0,3.3574,3.8039,4.1387,4.2304,4.1953,4.1504,4.1094,3.9824,3.7695,3.4492,3.2808,0.0,0.0,0.0,0.0,0.0,0.0,0.0,0.0,0.0,0.0,0.0,0.0,0.0,0.0,0.0,0.0,0.0,0.0,0.0,0.0,0.0,0.0,0.0,0.0,0.0,0.0,0.0,0.0,0.0,0.0,0.0,0.0,0.0,0.0,0.0,0.0,0.0,0.0,0.0,0.0,0.0,0.0,0.0,0.0,0.0,0.0,0.0,0.0,0.0,0.0,0.0,0.0,0.0,0.0,0.0,0.0,0.0,0.0,0.0,3.3012,3.1973,0.0,0.0,0.0,0.0,0.0,0.0,0.0,0.0,0.0,0.0,0.0,0.0,0.0,0.0,0.0,0.0,0.0,0.0,0.0,0.0,0.0,0.0,0.0,0.0,0.0,0.0,0.0,0.0,0.0,0.0,0.0,0.0,0.0,0.0,0.0,0.0,0.0,0.0,0.0,0.0,3.5223,3.8986,4.1875,4.2909,4.2656,4.2168,4.1543,4.0469,3.8633,3.5837,3.3844,0.0,0.0,0.0,0.0,0.0,0.0,0.0,0.0,0.0,0.0,0.0,0.0,0.0,0.0,0.0,0.0,0.0,0.0,0.0,0.0,0.0,0.0,0.0,0.0,0.0,0.0,0.0,0.0,0.0,0.0,0.0,0.0,0.0,0.0,0.0,0.0,0.0,0.0,0.0,0.0,0.0,0.0,0.0,0.0,0.0,0.0,0.0,0.0,0.0,0.0,0.0,0.0,0.0,3.6758,3.7207,3.7576,3.7576,3.7772,3.7969,3.5803,3.4746,3.4486,3.3489,0.0,0.0,0.0,0.0,0.0,0.0,0.0,0.0,0.0,0.0,0.0,0.0,0.0,0.0,0.0,0.0,0.0,0.0,0.0,0.0,0.0,0.0,3.1615,3.222,3.3911,3.4668,3.2109,0.0,0.0,0.0,0.0,0.0,0.0,0.0,0.0,0.0,0.0,0.0,3.7305,4.0137,4.2363,4.3574,4.3341,4.2774,4.1973,4.1133,3.959,3.7166,3.5098,3.3008,0.0,0.0,0.0,0.0,0.0,0.0,0.0,0.0,0.0,0.0,0.0,0.0,0.0,0.0,0.0,0.0,0.0,0.0,0.0,0.0,0.0,0.0,0.0,0.0,0.0,0.0,0.0,0.0,0.0,0.0,0.0,0.0,3.2359,3.2061,0.0,0.0,0.0,0.0,0.0,0.0,0.0,0.0,0.0,0.0,0.0,0.0,0.0,3.5859,3.6423,3.7871,3.8848,3.9316,4.0488,4.1074,4.1133,4.1133,4.1152,4.1191,4.084,0.0,3.6382,3.656,0.0,0.0,0.0,0.0,0.0,0.0,0.0,0.0,0.0,0.0,0.0,0.0,0.0,0.0,0.0,0.0,0.0,0.0,0.0,0.0,0.0,0.0,3.6887,3.6985,3.7553,3.7869,3.7053,3.4333,3.1496,2.9681,2.8619,0.0,0.0,0.0,0.0,0.0,0.0,0.0,3.8613,4.0918,4.2675,4.3613,4.3341,4.2891,4.2363,4.1562,4.0312,3.8456,3.7029,3.529,3.307,3.1367,0.0,0.0,0.0,0.0,0.0,0.0,0.0,0.0,0.0,0.0,0.0,0.0,0.0,0.0,0.0,0.0,0.0,0.0,0.0,0.0,0.0,0.0,0.0,0.0,0.0,0.0,0.0,0.0,0.0,3.2246,3.2988,3.2593,3.2891,3.2699,0.0,0.0,0.0,0.0,0.0,0.0,0.0,0.0,0.0,3.748,3.7969,3.875,3.9902,4.0625,4.1367,4.2051,4.2871,4.3379,4.3593,4.3593,4.3593,4.3594,4.3359,4.2402,4.0898,3.9101,3.7637,3.6408,0.0,0.0,0.0,0.0,3.5449,3.543,3.6641,3.6565,3.5901,3.5684,0.0,0.0,0.0,0.0,0.0,0.0,0.0,3.1635,3.3919,3.6399,3.8535,3.9512,3.9921,3.9999,3.9785,3.8223,3.6059,0.0,3.2521,3.1523,2.9261,0.0,0.0,0.0,0.0,3.7129,3.8965,4.1308,4.3027,4.3633,4.3535,4.3262,4.2832,4.2012,4.0996,3.9746,3.8223,3.6738,3.5312,3.3828,3.2109,0.0,0.0,0.0,0.0,0.0,0.0,0.0,0.0,0.0,0.0,0.0,0.0,0.0,0.0,0.0,0.0,0.0,0.0,0.0,0.0,0.0,0.0,0.0,0.0,0.0,0.0,0.0,0.0,3.3242,3.3769,3.334,3.3929,3.3851,0.0,0.0,0.0,0.0,0.0,0.0,3.6484,3.7051,3.8223,4.0137,4.0742,4.1699,4.3065,4.3873,4.4656,4.5434,4.6382,4.7061,4.7466,4.7466,4.7126,4.6548,4.6251,4.5691,4.4805,4.1641,3.9785,3.881,3.7853,3.7346,3.7248,3.8008,3.8182,3.8241,3.9824,3.9786,3.9005,3.8693,3.7598,3.6094,3.457,0.0,0.0,0.0,0.0,3.4167,3.6738,3.8326,3.9628,4.1152,4.1504,4.1504,4.1504,4.1152,3.9981,0.0,3.6367,3.5488,3.3223,0.0,0.0,0.0,0.0,3.834,3.9844,4.1816,4.3263,4.3652,4.3711,4.3535,4.3126,4.2383,4.1601,4.0723,3.9356,3.8146,3.7205,3.6113,3.4512,3.2367,0.0,0.0,0.0,0.0,0.0,0.0,0.0,0.0,0.0,0.0,0.0,0.0,0.0,0.0,0.0,0.0,0.0,0.0,0.0,0.0,0.0,0.0,0.0,0.0,0.0,0.0,0.0,0.0,0.0,3.4668,3.6074,0.0,0.0,0.0,0.0,3.5803,3.6994,3.8283,3.9609,4.0488,4.1543,4.2852,4.3711,4.4414,4.4862,4.7911,4.9637,5.0098,5.2351,5.3666,5.4137,5.4137,5.2904,5.0788,5.0789,4.9251,4.6599,4.4394,4.2734,4.1601,4.1543,4.0996,4.0332,4.082,4.123,4.1562,4.166,4.1894,4.2167,4.2148,4.0723,3.8848,3.7912,3.5677,0.0,0.0,3.6516,3.6238,3.9971,4.0996,4.1289,4.2128,4.2343,4.2343,4.2343,4.2011,4.1328,0.0,3.9003,3.8006,3.6675,0.0,3.6756,3.7502,3.8458,3.9863,4.1972,4.2734,4.3263,4.3652,4.3711,4.3535,4.3126,4.2656,4.2031,4.1211,4.0664,3.9824,3.8553,3.8008,3.6721,3.459,3.2906,0.0,0.0,0.0,0.0,0.0,0.0,0.0,0.0,0.0,0.0,0.0,0.0,0.0,0.0,0.0,0.0,0.0,0.0,0.0,0.0,0.0,0.0,0.0,0.0,0.0,0.0,0.0,0.0,3.7166,3.8242,0.0,3.7322,3.7615,3.8027,3.8476,4.1324,4.3504,4.4537,4.687,4.8631,4.9631,5.0217,5.0734,5.1165,5.2338,5.3093,5.349,5.4345,5.4839,5.4998,5.4998,5.4392,5.3271,5.1764,5.1397,5.1681,4.9397,4.6638,4.3807,4.3242,4.2832,4.2617,4.3086,4.334,4.3516,4.3768,4.3768,4.3495,4.2383,4.1328,4.0331,3.9453,3.8655,3.8321,3.9654,3.9796,4.0047,4.2243,4.2793,4.3027,4.3866,4.4081,4.4081,4.4081,4.3963,4.3632,4.293,4.1426,3.9843,3.8553,3.8769,3.9062,3.8789,4.0176,4.164,4.2715,4.3711,4.4277,4.416,4.4141,4.3965,4.3516,4.2812,4.2167,4.1621,4.0899,4.004,3.9042,3.8828,3.7871,3.6013,3.4841,3.2769,0.0,0.0,0.0,0.0,0.0,0.0,0.0,0.0,0.0,0.0,0.0,0.0,0.0,0.0,0.0,0.0,0.0,0.0,0.0,0.0,0.0,0.0,0.0,0.0,0.0,0.0,3.8262,3.9139,4.0254,4.0644,3.9765,4.1032,4.2088,4.2551,4.6049,4.8553,4.9425,5.1636,5.324,5.3993,5.4405,5.4768,5.5084,5.5807,5.6306,5.6584,5.7393,5.7752,5.7752,5.7752,5.7186,5.6103,5.4528,5.4292,5.4848,5.3191,5.0886,4.8283,4.6785,4.6087,4.5922,4.5592,4.5469,4.5508,4.5781,4.5508,4.4824,4.3535,4.2735,4.2149,4.1406,4.1367,4.168,4.2168,4.2461,4.291,4.3866,4.4139,4.4276,4.4862,4.4998,4.4998,4.4998,4.4998,4.492,4.4647,4.3203,4.1719,4.0684,4.0996,4.1191,4.0586,4.1992,4.3203,4.3497,4.4373,4.4901,4.4629,4.4492,4.4277,4.3965,4.287,4.207,4.1816,4.084,3.998,3.9238,3.9062,3.8338,3.6931,3.5349,3.2976,2.98,0.0,0.0,0.0,0.0,0.0,0.0,0.0,0.0,0.0,0.0,0.0,0.0,0.0,0.0,0.0,0.0,0.0,0.0,0.0,0.0,0.0,0.0,0.0,3.6697,3.8203,3.9629,4.0528,4.2208,4.2973,4.215,4.5302,4.7603,4.8069,5.1026,5.3189,5.4014,5.466,5.52,5.5676,5.6065,5.627,5.627,5.8398,5.946,5.9481,6.175,6.2827,6.2827,6.2827,6.1556,5.9391,5.9328,5.8053,5.5985,5.5512,5.5374,5.5158,5.2238,5.0815,5.0198,4.8297,4.76,4.76,4.76,4.7053,4.6269,4.5861,4.5158,4.4375,4.3887,4.375,4.3848,4.4297,4.4414,4.4512,4.492,4.5018,4.5037,4.5037,4.5037,4.5037,4.5037,4.5037,4.5037,4.5037,4.4355,4.3633,4.3223,4.3165,4.3165,4.3165,4.3887,0.0,4.4433,4.4783,4.5037,4.4998,4.4668,4.4414,4.4375,4.2812,4.1816,4.1797,4.0625,3.9707,3.9219,3.8827,3.8202,3.7324,3.4394,3.1646,2.9116,0.0,0.0,0.0,0.0,0.0,0.0,0.0,0.0,0.0,0.0,0.0,0.0,0.0,0.0,0.0,0.0,0.0,0.0,0.0,0.0,0.0,3.656,3.8027,3.8437,4.0,4.1758,4.3554,4.5958,4.7609,4.8002,5.047,5.2099,5.2232,5.5572,5.771,5.7951,6.0411,6.1859,6.1984,6.211,6.2162,6.2162,6.2756,6.3075,6.3075,6.3336,6.345,6.345,6.3003,6.245,6.1742,6.0024,5.9898,6.074,5.8932,5.92,6.0071,5.3622,5.1005,5.0637,4.8417,4.76,4.76,4.76,4.7444,4.7109,4.6367,4.5976,4.5644,4.4862,4.4647,4.4666,4.4803,4.4842,4.494,4.5391,4.5529,4.5566,4.5879,4.5935,4.5935,4.5935,4.5935,4.5935,4.5935,4.5508,4.5021,4.457,4.4471,4.4471,4.4471,4.4961,0.0,4.5353,4.5683,4.5701,4.5076,4.4901,4.4569,4.3945,4.287,4.2109,4.1816,4.0879,3.9981,3.9238,3.9082,3.8633,3.7756,3.5723,3.3699,0.0,0.0,0.0,0.0,0.0,0.0,0.0,0.0,0.0,0.0,0.0,0.0,0.0,0.0,0.0,0.0,0.0,0.0,0.0,0.0,0.0,0.0,4.0401,4.2272,4.3188,4.32,4.418,4.6917,4.8852,5.0613,5.2325,5.4784,5.6336,5.6567,5.9691,6.1589,6.1589,6.3629,6.4827,6.4827,6.4827,6.4827,6.4827,6.4601,6.4496,6.4496,6.4174,6.4048,6.4023,6.3676,6.34,6.3092,6.1735,6.1778,6.27,6.1325,6.099,6.0795,0.0,0.0,0.0,0.0,4.8128,4.8128,4.8128,4.8011,4.7754,4.7266,4.6973,4.6738,4.625,4.6094,4.6094,4.6094,4.6094,4.6152,4.6428,4.6487,4.6565,4.6777,4.6836,4.6836,4.6836,4.6836,4.6836,4.6836,4.6663,0.0,4.6133,4.5644,4.5293,4.5293,4.5664,4.59,4.5725,4.6035,4.6113,4.5584,4.5389,4.5098,4.457,4.3398,0.0,0.0,0.0,3.9766,3.8711,3.8672,0.0,0.0,0.0,0.0,0.0,0.0,0.0,0.0,3.0085,3.0343,0.0,0.0,0.0,0.0,0.0,0.0,0.0,0.0,0.0,0.0,0.0,0.0,0.0,0.0,0.0,0.0,4.5396,4.7757,4.9404,4.766,4.7348,5.0285,5.1483,5.3083,5.5769,5.8472,6.0261,6.0741,6.315,6.4597,6.4597,6.5103,0.0,0.0,0.0,6.5383,6.5383,6.4927,6.4676,6.4676,6.4601,6.4597,6.4597,6.4547,6.4249,6.3797,6.3726,6.34,6.2882,6.2536,6.0865,5.8309,5.6313,5.5312,5.4522,5.0416,4.8913,4.8913,4.8913,0.0,0.0,4.8223,4.7949,4.7659,4.762,4.76,4.76,4.76,4.76,4.76,4.76,4.76,4.76,4.76,4.76,4.76,4.76,4.76,4.76,4.76,4.76,4.76,4.76,4.6623,4.5842,4.5842,4.6094,4.6191,4.5881,4.6113,4.6308,4.6308,4.594,0.0,4.5627,4.4122,4.2969,4.2499,4.0918,3.9415,3.8244,3.8146,3.7756,3.7007,3.7383,3.7598,3.7598,3.7951,3.8398,3.8789,3.3987,3.3397,0.0,0.0,0.0,0.0,0.0,0.0,0.0,0.0,0.0,0.0,0.0,0.0,0.0,0.0,0.0,4.5982,4.8975,5.1429,5.3264,5.3725,5.343,5.2236,5.552,5.8403,5.977,6.2108,6.3588,6.3667,6.4595,6.5153,6.5153,6.566,6.5961,6.5961,6.5961,6.5961,6.5961,6.5835,6.5785,6.5785,6.5333,0.0,6.5128,6.4701,6.4425,6.4325,6.3898,6.3626,6.3331,6.0977,5.7519,5.3704,5.3259,5.1915,5.0139,4.9239,4.8913,4.8913,4.8913,4.8855,4.8695,4.832,4.8144,4.8027,4.7698,4.76,0.0,4.76,4.76,4.76,4.76,4.76,4.76,4.76,4.76,4.76,4.76,4.76,4.76,4.76,4.76,4.76,4.76,4.709,4.6658,4.6658,4.6465,4.6387,4.6638,4.6443,4.6308,4.6308,4.594,4.5549,4.5176,4.418,4.3398,4.2989,4.1348,4.0274,4.002,3.9687,3.9258,3.873,3.916,3.9394,3.9394,3.9473,3.9922,4.0644,3.8552,3.7949,0.0,0.0,0.0,0.0,0.0,0.0,0.0,0.0,0.0,0.0,0.0,3.9284,4.15,0.0,4.6797,5.0708,5.3598,5.5739,5.6784,5.8875,5.9267,5.6653,5.8661,6.1026,6.2965,6.4197,6.5003,6.5283,6.5534,6.571,6.571,6.5939,6.609,6.609,6.609,6.609,6.609,6.609,6.609,6.609,6.5835,6.571,6.5685,6.5409,6.5153,6.4877,6.4626,6.3629,6.1932,5.8046,5.5088,5.2899,5.1729,5.031,4.8913,4.8913,4.8913,4.8913,4.8913,4.8913,4.8874,4.8636,4.8558,4.8519,4.8304,4.8245,4.8245,4.8245,4.8245,4.8245,4.8245,4.8245,4.8304,4.8496,4.8555,4.8555,4.8555,4.8555,4.8496,4.8284,4.8245,4.8245,4.8245,4.7851,4.7477,4.7285,4.707,4.7012,4.7226,4.707,4.6933,4.6933,4.678,4.6445,4.5994,4.4959,4.4082,4.3437,4.2167,4.1367,4.1152,4.0762,4.0449,4.0214,4.0625,4.084,4.084,4.1055,4.1504,4.2129,4.166,4.123,0.0,0.0,0.0,0.0,0.0,0.0,0.0,0.0,4.0152,3.9845,4.1816,4.4271,4.6477,4.8745,5.1605,5.5612,5.8189,5.9805,6.0264,6.284,6.3774,6.1483,6.1582,6.2775,6.5213,6.548,6.5634,6.6086,6.609,6.609,6.609,6.609,6.609,6.609,6.609,6.609,6.609,6.609,6.609,6.609,6.609,6.609,6.609,6.609,6.586,6.5412,6.484,6.2875,5.9787,5.54,5.3338,5.2778,5.0916,4.9769,4.9144,4.9144,4.9086,4.9007,4.9007,4.8972,4.8913,4.8913,4.8913,4.8913,4.8913,4.8913,4.8913,4.8913,4.8913,4.8913,4.8913,4.8913,4.8988,4.9391,4.9508,4.9508,4.9508,4.9508,4.9371,4.8968,4.8913,4.8913,4.8913,4.8597,4.8183,4.7796,4.7659,4.764,4.7718,4.7659,4.764,4.7718,4.7659,4.7402,4.695,4.5896,4.492,4.4141,4.3261,4.2636,4.2324,4.1914,4.168,4.168,4.209,4.2305,4.2305,4.2714,4.3085,4.3477,4.3808,4.3514,4.216,4.1922,4.1867,4.1283,4.1323,4.1764,0.0,0.0,4.3635,4.4798,4.6397,4.8424,5.1274,5.3242,5.5786,5.986,6.1546,6.2724,6.3769,6.4658,6.5073,6.4764,6.4772,6.5132,6.5918,6.599,6.6036,6.6112,6.609,6.609,6.609,6.609,6.609,6.609,6.609,6.609,6.609,6.609,6.609,6.609,6.609,6.609,6.609,6.609,6.6086,6.5857,6.3191,6.0388,5.7491,5.4739,5.2407,5.0558,5.0294,5.0141,5.0043,5.0043,4.9785,4.943,4.943,4.9199,4.8913,4.8913,4.8913,4.8913,4.8913,4.8913,4.8913,4.8913,4.8913,4.8913,4.8913,4.8913,4.8988,4.9391,4.9508,4.9508,4.9508,4.9508,4.9371,4.8968,4.8913,4.8913,4.8913,4.8855,4.8656,4.8203,4.7812,4.7737,4.8086,4.7812,4.7737,4.8105,4.7793,4.7402,4.695,4.6423,4.5957,4.551,4.4648,4.416,4.4101,4.3672,4.3418,4.3418,4.3867,4.4101,4.4101,4.451,4.4744,4.4783,4.4822,4.4608,4.3327,4.3352,4.3608,0.0,4.4992,4.6214,4.6036,4.761,4.9156,4.9296,5.1459,5.3882,5.579,5.7758,5.9786,0.0,6.3324,6.4429,6.4902,6.5434,6.566,6.5333,6.5584,6.586,6.6086,6.609,6.609,6.609,6.609,6.609,6.609,6.609,6.609,6.609,6.609,6.609,6.609,6.609,6.609,6.609,6.609,6.609,6.609,6.609,6.5329,6.3839,6.1141,5.8457,5.583,5.3349,5.1769,5.0898,5.0898,5.0898,5.0859,5.0351,5.0082,4.9863,4.9586,4.9391,4.9199,4.8991,4.8913,4.8913,4.8913,4.8913,4.8913,4.8913,4.8913,4.8913,4.8913,4.8913,4.8988,4.9391,4.9508,4.9508,4.9508,4.9508,4.9371,4.8968,4.8913,4.8913,4.8913,4.8913,4.8812,4.8636,4.846,4.8402,4.8578,4.846,4.8421,4.8597,4.8203,4.7871,4.7673,4.7285,4.6855,4.6426,4.584,4.5391,4.5177,4.4707,4.4452,4.4452,4.4647,4.4744,4.4744,4.492,4.5252,4.5762,4.5762,4.5937,4.374,4.4418,4.5482,4.6225,4.8476,5.034,4.9731,5.1783,5.3697,5.3321,5.5615,5.7983,5.8961,6.0819,6.245,6.3153,6.4404,6.5333,6.5484,6.5735,6.5735,6.5333,6.5509,6.571,6.5886,6.599,6.609,6.609,6.609,6.609,6.609,6.609,6.609,6.609,6.609,6.609,6.609,6.609,6.609,6.609,6.609,6.609,6.609,6.609,6.5155,6.3312,6.018,5.7779,5.587,5.2696,5.1401,5.1401,5.1401,5.1401,5.1343,5.0742,5.0449,5.0312,4.998,4.9781,4.9648,4.934,4.9265,4.9222,4.9105,4.9144,4.9222,4.9105,4.9144,4.9222,4.9105,4.9066,4.9144,4.943,4.9508,4.9508,4.9508,4.9508,4.9371,4.8968,4.8913,4.8913,4.8913,4.8913,4.8913,4.8913,4.8913,4.8913,4.8913,4.8913,4.8913,4.8913,4.8597,4.8379,4.8379,4.8008,4.7617,4.7282,4.6894,4.6523,4.6233,4.5898,4.5723,4.5723,4.5723,4.5723,4.5723,4.5723,4.6055,4.666,4.666,4.7014,4.3176,4.498,4.7274,4.8426,5.077,5.3071,5.415,5.5297,5.6232,5.6754,5.8221,5.9583,6.0141,6.1647,6.3128,6.4274,6.4927,6.5484,6.599,6.5634,6.5329,6.5283,6.4852,6.4752,0.0,6.5785,6.609,6.609,6.609,6.609,6.609,6.609,6.609,6.609,6.609,6.609,6.609,6.609,6.609,6.609,6.609,6.609,6.609,6.609,6.6069,6.5721,6.088,5.8768,5.8309,5.3419,5.1401,5.1401,5.1401,5.1401,5.1401,5.1382,5.1109,5.0781,5.0781,5.0508,5.018,5.016,5.016,5.0082,4.9605,4.9805,5.0082,4.9605,4.9805,5.0063,4.9586,4.9488,4.9488,4.9508,4.9508,4.9508,4.9508,4.9508,4.9371,4.8968,4.8913,4.8913,4.8913,4.8913,4.8913,4.8913,4.8913,4.8913,4.8913,4.8913,4.8913,4.8913,4.8894,4.8894,4.8894,4.846,4.8183,4.8164,4.7773,4.7561,4.7542,4.7542,4.7522,4.7522,4.7522,4.7522,4.7522,4.7522,4.7542,4.7561,4.7561,4.7581,4.5899,4.7481,4.9289,5.1498,5.3306,5.4863,5.5924,5.7054,5.7907,5.8108,5.8861,5.9558,5.9734,6.114,6.2501,6.3229,6.4756,6.6036,6.6635,6.6535,6.6158,6.5383,6.5153,0.0,0.0,6.5254,6.571,6.6065,6.609,6.609,6.609,6.609,6.609,6.609,6.6488,6.6488,6.609,6.6865,6.6865,6.609,6.609,6.6312,6.6664,6.6287,6.5419,6.4039,6.0363,5.7871,5.6102,5.3089,5.1855,5.1855,5.1855,5.1855,5.1836,5.1519,5.1323,5.1148,5.0898,5.0723,5.0547,5.0297,5.0199,5.018,5.0,5.0058,5.018,5.0,5.0082,5.016,5.0023,4.9961,4.9961,4.9961,4.9961,4.9961,4.9961,4.9703,4.9469,4.9336,4.9086,4.8913,4.8913,4.8913,4.8913,4.8913,4.9125,4.9199,4.891,4.9398,4.9652,4.9336,4.9297,4.9297,4.9297,4.891,4.8538,4.8223,4.8066,4.7871,4.762,4.76,4.76,4.76,4.76,4.76,4.76,4.76,4.7737,4.7988,4.7988,4.8144,4.7732,4.9615,5.1574,5.3758,5.544,5.6771,5.7455,5.8334,5.8936,5.8736,5.8981,5.9176,5.8956,5.996,6.1195,6.2325,6.3856,6.5409,6.6811,6.6485,6.5982,6.5634,6.5082,6.4752,0.0,0.0,6.5509,6.604,6.609,6.609,6.609,6.6312,6.6413,6.6413,6.6965,6.7091,6.6714,6.7442,6.7342,6.6413,6.6212,6.6413,6.6987,6.6589,6.5859,6.4709,6.096,5.8425,5.6733,5.3599,5.2305,5.2285,5.2173,5.264,5.339,5.2904,5.3275,5.374,5.172,5.1011,5.0976,5.0723,5.0625,5.0605,5.0473,5.0508,5.0586,5.0449,5.0508,5.0586,5.0449,5.1083,5.1688,5.1527,5.2168,5.2822,5.2822,5.2552,5.2113,5.1208,5.0825,5.039,4.9503,4.9359,4.9359,4.9359,4.9707,4.9766,4.9203,4.959,4.9902,4.9742,4.9766,4.9766,4.9766,4.9515,4.9242,4.8926,4.8769,4.8555,4.8281,4.8281,4.8203,4.8069,4.8226,4.8226,4.8069,4.8069,4.8262,4.8649,4.8649,4.8906,4.8727,5.1389,5.411,5.5282,5.7148,5.871,5.8736,5.9112,5.9307,5.8761,5.8579,5.8372,0.0,0.0,5.9338,6.1567,6.245,6.3831,6.661,6.5631,6.5003,0.0,0.0,0.0,0.0,0.0,0.0,6.604,6.6137,6.6162,6.6162,6.6714,6.7037,6.7037,6.7543,6.7819,6.7794,6.7794,6.7543,6.7062,6.6463,6.6488,6.7087,6.7062,6.7317,6.7554,6.2503,6.0293,5.9916,5.4829,5.2734,5.2676,5.2414,5.3766,5.5811,5.5446,5.6848,5.8214,5.348,5.1737,5.1571,5.1426,5.1401,5.1343,5.0957,5.1089,5.1323,5.0957,5.1186,5.1498,5.113,5.286,5.4615,5.4151,5.5851,5.7559,5.7559,5.7536,5.6798,5.4325,5.3705,5.2894,5.0606,5.0199,5.0199,5.0199,5.0527,5.0488,4.9644,4.9566,4.9742,5.0199,5.0238,5.0238,5.0238,5.0219,5.0199,5.0199,4.9785,4.9547,4.9547,4.9547,4.9355,4.8972,4.9336,4.9355,4.8972,4.8972,4.9164,4.9547,4.9547,4.9785,5.18,5.3984,5.5924,5.7455,5.8284,5.8811,5.9207,5.9106,5.8736,5.8227,5.7097,5.6212,0.0,0.0,0.0,6.0367,6.2596,0.0,6.6711,6.6635,0.0,6.6137,0.0,6.5003,6.5258,6.5283,0.0,6.604,6.6513,6.6786,6.6786,6.7314,6.7593,6.7593,6.812,6.8199,6.7794,6.7794,6.7919,6.8196,6.7643,6.7668,6.8196,6.7769,6.7894,6.8082,6.2666,6.0293,5.9939,5.52,5.3033,5.2869,5.4614,5.5749,5.6561,5.7946,5.9112,5.982,5.8531,5.6374,5.3852,5.2012,5.1401,5.1382,5.1284,5.1323,5.1382,5.1284,5.2664,5.4144,5.4021,5.584,5.7674,5.7541,5.8023,5.8478,5.8478,5.8187,5.7241,5.479,5.2603,5.0916,5.0318,5.0199,5.0199,5.0199,5.0297,5.0278,5.0039,5.0542,5.0855,5.0664,5.0644,5.0644,5.0644,5.0351,5.0199,5.0199,5.0102,5.0019,5.0019,5.0019,4.9984,4.9867,4.9984,4.9984,4.9867,4.9867,4.9926,5.0019,5.0019,5.0102,5.3884,5.6018,5.7826,5.851,5.9062,5.9238,5.856,5.8359,5.7907,5.6369,5.5315,5.4587,5.4361,5.5214,5.6821,5.9508,0.0,0.0,6.666,6.656,6.6309,0.0,6.5785,0.0,6.5634,6.566,6.5886,0.0,6.6811,6.6987,6.6987,6.7719,6.817,6.817,6.8675,6.8826,6.85,6.8274,6.8299,6.86,6.807,6.8095,6.86,6.8274,6.7819,6.7112,6.3968,6.1345,5.9051,5.6437,5.5219,5.5081,5.6289,5.8151,6.0304,6.1233,6.2454,6.349,6.2411,5.9983,5.6984,5.4495,5.2907,5.1968,5.1968,5.1831,5.1733,5.1909,5.3649,5.5498,5.5708,5.8418,6.1073,6.082,6.1612,6.2329,6.2048,6.1809,6.0596,5.7062,5.4198,5.1998,5.0914,5.0723,5.0723,5.0723,5.0723,5.0664,5.0492,5.0859,5.105,5.082,5.0976,5.105,5.105,5.0859,5.0723,5.0723,5.0547,5.0449,5.0449,5.0449,5.0395,5.0199,5.0351,5.0395,5.0199,5.0199,5.0297,5.0449,5.0449,5.0547,5.5491,5.7625,5.9433,5.9112,5.9614,5.9639,5.7606,5.7305,5.6696,5.4034,0.0,5.3181,5.2862,5.3658,5.5509,5.9031,0.0,6.3048,6.6409,6.6011,6.576,6.6761,6.6007,6.5609,6.6187,6.6237,6.6463,6.7062,6.7188,6.7213,6.7213,6.817,6.8701,6.8701,6.9155,6.9406,6.9406,6.8952,6.8701,6.8701,6.8224,6.8271,6.8701,6.8701,6.7752,6.605,6.5374,6.254,5.838,5.8055,5.7865,5.7834,5.8102,6.0916,6.4798,6.4735,6.6087,6.7707,6.5572,6.3151,6.0519,5.7558,5.4838,5.2715,5.2715,5.2461,5.232,5.3,5.4796,5.6669,5.7408,6.1089,6.4488,6.401,6.5494,6.6861,6.6338,6.5878,6.4367,6.0112,5.7037,5.4426,5.2258,5.162,5.1401,5.1401,5.1401,5.1245,5.0859,5.0801,5.0801,5.0801,5.1109,5.1343,5.1401,5.1401,5.1401,5.1401,5.1069,5.0898,5.0898,5.0898,5.0723,5.0375,5.0703,5.0703,5.0375,5.0375,5.0527,5.0898,5.0898,5.1069,5.7681,5.8805,5.9684,6.0537,6.0186,5.9307,5.8027,5.6413,0.0,0.0,5.1632,5.123,5.2084,5.2762,5.4719,5.9388,6.0814,6.2491,6.5785,6.6086,6.6036,0.0,6.6086,6.6187,6.6786,6.6836,0.0,6.7618,6.807,6.8324,6.8324,6.8926,6.9255,6.9255,6.9356,6.9406,6.9406,6.9306,6.9255,6.9255,6.9155,6.9155,6.9255,6.9255,6.908,6.8517,6.4248,6.1869,6.088,5.8775,5.7655,5.7742,6.1861,6.406,6.5121,6.7101,6.8367,6.906,6.8629,6.6801,6.3782,5.8351,5.4838,5.2715,5.2715,5.2656,5.3069,5.5286,5.7666,6.004,6.2226,6.4969,6.7147,6.7048,6.7007,6.6962,6.6861,6.4885,6.287,6.2001,5.8195,5.4973,5.4524,5.2768,5.1401,5.1401,5.1401,5.1245,5.0859,5.0801,5.0801,5.0801,5.0859,5.103,5.1382,5.1401,5.1401,5.1401,5.1343,5.1304,5.1304,5.1304,5.1265,5.1187,5.1265,5.1265,5.1187,5.1187,5.1226,5.1304,5.1304,5.1343,5.8755,5.9935,6.0864,6.1135,6.0537,5.9257,5.6764,0.0,0.0,0.0,4.9715,4.9715,5.0284,5.1523,5.354,5.6815,5.8529,6.0738,6.4354,6.4584,6.4931,6.6388,6.6564,6.6664,6.6962,6.7263,6.7643,6.8196,6.845,6.86,6.86,6.9105,6.9406,6.9406,6.9406,6.9406,6.9406,6.9406,6.9406,6.9406,6.9406,6.9406,6.9406,6.9406,6.8676,6.7346,6.6213,6.4201,6.1703,6.1845,6.176,6.1798,6.4273,6.606,6.7389,6.8574,6.918,6.9406,6.9406,6.7737,6.514,6.2209,5.863,5.5401,5.5401,5.5239,5.5643,5.8447,6.0901,6.3014,6.4499,6.6749,6.855,6.8274,6.7819,6.7439,6.7439,6.6286,6.4891,6.3594,6.1418,5.886,5.6014,5.4539,5.3222,5.1659,5.1401,5.1245,5.0859,5.0801,5.0801,5.0801,5.0996,5.1187,5.1382,5.1401,5.1401,5.1401,5.1401,5.1401,5.1401,5.1401,5.1401,5.1401,5.1401,5.1401,5.1401,5.1401,5.2041,5.3347,5.3347,5.4019,5.9558,6.0914,6.1943,6.1617,6.0738,5.9056,5.5559,5.3851,0.0,4.8444,4.8109,4.8501,4.8752,5.0234,5.2126,5.4403,5.6237,5.8855,6.3099,6.3279,6.4002,6.6686,6.6987,0.0,6.6987,6.7593,0.0,6.8575,6.8701,6.8776,6.8776,6.9155,6.9406,6.9406,6.9406,6.9406,6.9406,6.9406,6.9406,6.9406,6.9406,6.9406,6.9406,6.9406,6.831,6.6492,6.7968,6.6282,6.2683,6.4766,6.5608,6.5655,6.6214,6.7646,6.9406,6.9406,6.9406,6.9406,6.9406,6.8105,6.633,6.5771,6.2468,5.8725,5.8725,5.8473,5.8778,6.171,6.3734,6.5245,6.6186,6.7898,6.9255,6.8726,6.8274,6.7945,6.7819,6.7794,6.7217,6.5287,6.4448,6.2685,5.8244,5.7135,5.5834,5.2795,5.2349,5.2056,5.1186,5.0996,5.0937,5.0937,5.1128,5.1304,5.1401,5.1401,5.1401,5.1401,5.1401,5.1401,5.1401,5.1401,5.1401,5.1401,5.1401,5.1668,5.2185,5.2185,5.347,5.5894,5.6002,5.7054,6.0733,6.1517,6.2119,6.2551,6.0744,5.8234,5.5842,0.0,5.0026,4.7651,4.7224,4.7566,4.8601,4.8969,5.046,5.4655,5.5509,5.7518,6.2923,6.3651,6.4454,6.6736,6.6987,0.0,6.6987,6.7919,6.855,6.86,6.9029,6.9331,6.9331,6.9381,6.9406,6.9406,6.9406,6.9406,6.9406,6.9406,6.9406,6.9406,6.9406,6.9406,6.9406,6.9406,6.9268,6.8951,6.6862,6.5678,6.5258,6.5515,6.5608,6.5818,6.8151,6.9177,6.9406,6.9406,6.9406,6.9406,6.9406,6.9245,6.8676,6.6353,6.3681,6.1364,6.1364,6.1319,6.185,6.4507,6.5374,6.6095,6.8447,6.9223,6.9255,6.8726,6.855,6.8374,6.7919,6.7794,6.7728,6.7482,6.5624,6.3781,6.2784,6.1142,5.8945,5.5855,5.5458,5.4639,5.2272,5.1621,5.1343,5.1343,5.105,5.0991,5.1382,5.1401,5.1401,5.1401,5.1401,5.1401,5.1401,5.1401,5.1401,5.1401,5.1401,5.2503,5.4761,5.4761,5.6034,5.847,5.8962,5.9056,6.1115,6.2069,6.2626,6.3199,6.124,5.8428,5.5559,5.2871,5.0218,4.7626,4.6848,4.6863,4.7616,4.8033,4.9079,5.1515,5.2495,5.4511,5.9037,5.9985,6.1391,6.4651,6.586,6.6739,6.7392,6.845,6.908,6.908,6.928,6.9406,6.9406,6.9406,6.9406,6.9406,6.9406,6.9406,6.9406,6.9406,6.9406,6.9406,6.9406,6.9406,6.9406,6.9406,6.9406,6.9361,6.8333,6.7875,6.7875,6.7875,6.7875,6.7991,6.8996,6.9406,6.9406,6.9406,6.9406,6.9406,6.9406,6.9406,6.9223,6.8219,6.7185,6.605,6.4507,6.4059,6.4578,6.7162,6.7875,6.8128,6.9132,6.9406,6.9356,6.913,6.908,6.9004,6.8826,6.8776,6.8776,6.8776,6.7985,6.6654,6.4619,6.3613,6.1573,5.6966,5.6303,5.53,5.2458,5.2148,5.1968,5.146,5.1265,5.1226,5.1401,5.1401,5.1401,5.1401,5.1401,5.1401,5.1401,5.1401,5.1401,5.1401,5.2888,5.4265,5.5585,5.6748,5.8921,6.199,6.1874,6.2691,6.1014,6.2275,6.2952,6.355,6.1341,5.8278,5.5483,5.2746,5.0142,4.7817,4.6913,4.6712,4.7224,4.7641,4.8284,4.9414,5.0561,5.2628,5.6458,5.738,5.8956,6.2541,6.4103,6.5283,6.6237,6.7897,6.9077,6.9381,6.9406,6.9406,6.9406,6.9406,6.9406,6.9406,6.9406,6.9406,6.9406,6.9406,6.9406,6.9406,6.9406,6.9406,6.9406,6.9406,6.9406,6.9406,6.9406,6.9406,6.9406,6.9406,6.9406,6.9406,6.9406,6.9406,6.9406,6.9406,6.9406,6.9406,6.9406,6.9406,6.9406,6.9406,6.9406,6.9064,6.7277,6.6723,6.7093,6.8906,6.9406,6.9406,6.9406,6.9406,6.9406,6.9406,6.9406,6.9406,6.9406,6.9406,6.9406,6.9406,6.9406,6.8661,6.6385,6.6113,6.4593,5.9757,5.8404,5.6878,5.3974,5.3074,5.2456,5.185,5.1675,5.1597,5.1597,5.1597,5.1597,5.1597,5.1714,5.1733,5.1597,5.2454,5.2951,5.2951,5.5395,5.7203,5.8329,5.9697,6.2034,6.5195,6.4955,6.5996,6.0437,6.1994,6.2952,6.355,6.0788,5.7474,5.5785,5.2419,4.9289,4.8134,4.7465,4.7249,4.7792,4.7908,4.8284,4.9414,5.0561,5.2628,5.6458,5.701,5.8058,6.0909,6.1692,6.225,6.2802,6.586,6.8271,6.9306,6.9406,6.9406,6.9406,6.9406,6.9406,6.9406,6.9406,6.9406,6.9406,6.9406,6.9406,6.9406,6.9406,6.9406,6.9406,6.9406,6.9406,6.9406,6.9406,6.9406,6.9406,6.9406,6.9406,6.9406,6.9406,6.9406,6.9406,6.9406,6.9406,6.9406,6.9406,6.9406,6.9406,6.9406,6.9406,6.9406,6.9383,6.9361,6.9383,6.9406,6.9406,6.9406,6.9406,6.9406,6.9406,6.9406,6.9406,6.9406,6.9406,6.9406,6.9406,6.9406,6.9406,6.923,6.8656,6.9007,6.8296,6.5171,6.2638,6.0107,5.7472,5.4531,5.2695,5.2695,5.2324,5.2095,5.2095,5.2095,5.2095,5.2095,5.2461,5.2519,5.2114,5.4959,5.6552,5.6552,5.9047,6.1578,6.4015,6.4038,6.533,6.7775,6.8302,6.8553,5.7581,5.8886,5.9564,6.0141,5.8504,5.62,5.4142,5.2176,5.0334,4.8827,4.8058,4.7817,4.84,4.8526,4.9129,5.0996,5.1925,5.3105,5.5082,5.6997,5.8485,5.9408,6.2647,6.5161,6.6137,6.7496,6.8475,6.8826,6.918,6.923,6.8876,6.8851,6.9004,6.9381,6.9406,6.9406,6.9406,6.9406,6.9406,6.9406,6.9406,6.9406,6.9406,6.9406,6.9406,6.9406,6.9406,6.9406,6.9406,6.9406,6.9406,6.9406,6.9406,6.9406,6.9406,6.9406,6.9406,6.9406,6.9406,6.9406,6.9406,6.9406,6.9406,6.9406,6.9406,6.9406,6.9406,6.9406,6.9406,6.9406,6.9406,6.9406,6.9406,6.9406,6.9406,6.9506,6.9928,7.0026,7.0026,7.0026,7.0026,6.9828,6.9253,6.928,6.8466,6.5765,6.3167,6.0457,5.756,5.5095,5.3354,5.2773,5.2876,5.2857,5.2539,5.2246,5.2207,5.25,5.2637,5.3435,5.5121,5.6078,5.7422,5.9164,6.167,6.3494,6.4653,6.5999,6.7213,6.8349,6.8901,6.913,5.5422,5.6953,5.7732,5.851,5.7148,5.5164,5.3565,5.1875,5.036,4.933,4.8652,4.8426,4.9003,4.9104,4.9556,5.0921,5.18,5.2703,5.3783,5.5968,5.7907,5.9162,6.24,6.5157,6.6714,6.7744,6.8299,6.8299,6.8801,6.8876,6.8324,6.8299,6.845,6.8801,6.8979,6.908,6.908,6.9306,6.9406,6.9406,6.9406,6.9406,6.9406,6.9406,6.9406,6.9406,6.9406,6.9406,0.0,6.9406,6.9406,6.9406,6.9406,6.9406,6.9406,6.9406,6.9406,6.9406,6.9406,6.9406,6.9406,6.9406,6.9406,6.9406,6.9406,6.9406,6.9406,6.9406,6.9406,6.9406,6.9406,6.9406,6.9406,6.9406,6.9579,6.9853,7.0202,7.0476,7.0529,7.035,7.03,7.0102,6.9481,6.9406,6.8858,6.7277,6.4813,6.2498,6.0607,5.7495,5.5266,5.4729,5.3889,5.3345,5.3197,5.2812,5.2701,5.2949,5.4016,5.529,5.6776,5.886,6.0737,6.2314,6.4816,6.6265,6.6604,6.7807,6.8575,6.8926,6.923,6.9406,0.0,5.5673,5.6784,5.7907,5.6244,5.422,5.3607,5.1448,0.0,4.954,4.9104,4.8903,4.9439,4.9515,4.954,4.9757,5.0661,5.1724,5.2812,5.4511,5.6872,6.0242,6.1592,6.3048,6.5132,6.6789,6.7744,6.7744,6.8224,6.8299,6.7769,6.7744,6.7719,6.7693,6.8199,6.85,6.855,6.9029,6.9306,6.9331,6.9331,6.9356,6.9406,6.9406,6.9406,6.9406,6.9406,6.9406,6.9406,6.9406,6.9406,6.9406,6.9406,6.9406,6.9406,6.9406,6.9406,6.9406,6.9406,6.9406,6.9406,6.9406,6.9406,6.9406,6.9406,6.9406,6.9406,6.9456,6.9456,6.9456,6.9506,6.9506,6.9506,6.9456,6.9878,7.03,7.03,7.0729,7.0956,7.0428,7.0376,7.0177,6.9579,6.9431,6.9406,6.9406,6.7231,6.5608,6.5608,6.1243,5.8105,5.7906,5.5386,5.3802,5.3978,5.3638,5.3505,5.3726,5.6357,5.7869,5.78,6.2813,6.5678,6.5864,6.8196,6.9406,6.9406,6.9406,6.9406,6.9406,6.9406,6.9406,4.9222,0.0,5.2134,5.2854,5.2545,5.1917,0.0,5.0368,4.948,4.9079,0.0,0.0,4.8878,4.8611,4.9012,5.1172,5.1749,5.2302,5.3339,5.6061,5.9477,6.3626,6.4354,6.4881,6.5835,6.6689,6.7188,6.7188,6.7693,6.7744,6.7213,6.7188,6.6987,6.6492,6.7066,6.7568,6.7995,6.812,6.8374,6.8801,6.8801,6.8979,6.9406,6.9406,6.9406,6.9406,6.9406,6.9406,6.9406,6.9406,6.9406,6.9406,6.9406,6.9406,6.9406,6.9406,6.9406,6.9406,6.9406,6.9406,6.9406,6.9406,6.9406,6.9406,6.9406,6.9406,6.9481,6.9953,7.0102,7.0177,7.0581,7.0706,7.0581,7.0202,7.0202,7.03,7.03,7.0729,7.1056,7.093,7.0905,7.0729,7.0177,6.9705,6.9406,6.9406,6.7231,6.5608,6.5608,6.2779,6.0076,5.8105,5.7277,5.6075,5.4176,5.3638,5.4363,5.6697,5.7496,5.9642,6.3473,6.4906,6.6515,6.8472,6.9087,6.9406,6.9406,6.9406,6.9406,6.9406,6.9406,6.9406,4.739,4.8746,5.0167,5.0745,5.0695,5.0419,5.0117,4.9414,0.0,0.0,0.0,0.0,0.0,0.0,0.0,5.067,5.1398,5.2729,5.5573,5.7976,6.0889,6.4831,6.5283,6.5509,6.6061,6.6639,6.6887,6.661,6.7091,6.7188,6.6614,6.6589,6.6438,6.609,6.6413,6.684,6.7439,6.7668,6.807,6.86,6.86,6.8876,6.9406,6.9406,6.9406,6.9406,6.9406,6.9406,6.9406,6.9406,6.9406,6.9406,6.9406,6.9406,6.9406,6.9406,6.9406,6.9406,6.9406,6.9406,6.9406,6.9406,6.9406,6.9406,6.9406,6.9604,6.9878,7.0202,7.0501,7.0729,7.1031,7.1106,7.1031,7.0729,7.0654,7.0729,7.0981,7.1282,7.146,7.146,7.146,7.1232,7.0428,7.0026,6.9705,6.9431,6.8219,6.7323,6.7323,6.5094,6.2946,6.158,6.0368,5.9073,5.7658,5.7333,5.7411,5.7861,6.0125,6.2683,6.5492,6.6723,6.7991,6.9383,6.9406,6.9406,6.9406,6.9406,6.9406,6.9406,6.9406,6.9406,4.7023,4.8335,4.9565,4.9925,4.9741,4.9439,4.9364,0.0,0.0,0.0,0.0,0.0,0.0,4.8325,0.0,0.0,5.1122,5.3683,5.8409,5.994,6.1773,6.5032,6.5409,6.5609,6.6061,6.6564,6.6639,6.6137,6.6564,6.6639,6.6137,6.609,6.609,6.609,6.609,6.6338,6.6861,6.7317,6.7819,6.8349,6.8424,6.8776,6.928,6.9356,6.9406,6.9406,6.9406,6.9406,6.9406,6.9406,6.9406,6.9406,6.9406,6.9406,6.9406,6.9406,6.9406,6.9406,6.9406,6.9406,6.9406,6.9406,6.9406,6.9406,6.9406,6.9878,7.0426,7.0426,7.0805,7.1234,7.1309,7.1334,7.1309,7.1234,7.1232,7.1309,7.1711,7.1836,7.1912,7.1912,7.1912,7.1585,7.0579,7.035,7.0102,6.9481,6.9406,6.9406,6.9406,6.7531,6.6027,6.5655,6.3611,6.2133,6.1749,6.213,6.1455,5.9217,6.3183,6.5771,6.6143,6.8339,6.9481,6.9406,6.9406,6.9406,6.9406,6.9406,6.9406,6.9406,6.9406,6.9406,4.7365,4.835,4.8827,4.8385,4.8626,4.8777,4.8284,0.0,0.0,0.0,0.0,0.0,0.0,4.7983,4.8862,0.0,5.3833,5.6696,6.0306,6.1341,6.2797,6.5634,6.5986,6.599,6.609,6.6187,6.6212,6.609,6.6187,6.6212,6.609,6.609,6.609,6.609,6.609,6.614,6.6237,6.6316,6.6664,6.7263,6.7693,6.8221,6.8751,6.918,6.9406,6.9406,6.9406,6.9406,6.9406,6.9406,6.9406,6.9406,6.9406,6.9406,6.9406,6.9406,6.9406,6.9406,6.9406,6.9406,6.9406,6.9406,6.9406,6.9406,6.9406,7.0131,7.0981,7.0981,7.1359,7.1887,7.234,7.2441,7.234,7.1887,7.1786,7.1686,7.1284,7.1585,7.1912,7.1912,7.1912,7.1711,7.1081,7.0604,7.0102,6.9481,6.9406,6.9406,6.9406,6.9064,6.7991,6.5818,6.5234,6.4107,6.1893,6.417,6.5306,6.4483,6.5164,6.6561,6.8722,6.9673,6.9928,6.9406,6.9406,6.9406,6.9406,6.9406,6.9406,6.9406,6.9406,6.9406,4.601,4.6778,4.7506,4.7817,4.856,4.9079,4.8526,0.0,0.0,0.0,0.0,0.0,0.0,0.0,5.0745,5.3833,5.6394,5.883,6.1291,6.237,6.3701,6.5839,6.609,6.609,6.609,6.609,6.609,6.609,6.609,6.609,6.609,6.609,6.609,6.609,6.609,6.609,6.609,6.609,6.6413,6.7012,6.7543,6.8095,6.8625,6.9177,6.9406,6.9406,6.9406,6.9406,6.9406,6.9406,6.9406,6.9406,6.9406,6.9406,6.9406,6.9406,6.9406,6.9406,6.9406,6.9406,6.9406,6.9406,6.9629,6.9878,6.9878,7.0656,7.1535,7.1535,7.1937,7.239,7.2641,7.2717,7.2641,7.239,7.2113,7.1912,7.1962,7.1711,7.1636,7.2215,7.1861,7.1485,7.151,7.0855,7.0202,6.9928,6.9604,6.9406,6.9406,6.9406,6.8951,6.7783,6.7646,6.7162,6.5981,6.7485,6.8547,6.8573,6.8303,6.8662,6.9832,7.0152,7.0026,6.9406,6.9406,6.9406,6.9406,6.9406,6.9406,6.9406,6.9406,6.9579,4.5407,4.5934,4.6737,4.7832,0.0,0.0,0.0,0.0,0.0,0.0,0.0,0.0,0.0,5.1063,5.3356,5.6143,5.8679,6.0814,6.237,6.345,6.458,6.5936,6.609,6.609,6.609,6.609,6.609,6.609,6.609,6.609,6.609,6.609,6.609,6.609,6.609,6.609,6.609,6.609,6.6338,6.6811,6.7467,6.802,6.8424,6.908,6.9331,6.9205,6.9356,6.9331,6.9205,6.9356,6.9406,6.9406,6.9406,6.9406,6.9406,6.9406,6.9406,6.9406,6.9406,6.9406,6.9406,6.9406,6.9705,7.0127,7.0275,7.0956,7.1736,7.1861,7.229,7.2717,7.2717,7.2717,7.2717,7.2717,7.239,7.219,7.2616,7.2039,7.1711,7.2541,7.2037,7.151,7.1686,7.1031,7.0378,7.0127,6.9705,6.9406,6.9406,6.9406,6.9406,6.9406,6.9406,6.9456,6.9604,6.9903,7.0378,7.1056,7.083,7.0554,7.0325,7.03,7.0026,6.9406,6.9554,6.9604,6.9604,6.9755,6.9805,6.9805,6.9805,7.0054,4.728,4.7365,4.7299,4.8451,0.0,0.0,0.0,0.0,0.0,0.0,0.0,0.0,0.0,5.3708,5.6251,5.7575,6.0468,6.2978,6.4149,6.4827,6.5409,6.6036,6.609,6.609,6.609,6.609,6.609,6.609,6.609,6.609,6.609,6.609,6.609,6.609,6.609,6.609,6.609,6.609,6.6137,6.6187,6.7292,6.7819,6.7894,6.8926,6.913,6.8701,6.918,6.9105,6.8701,6.918,6.9406,6.9406,6.9406,6.9406,6.9406,6.9406,6.9406,6.9406,6.9406,6.9406,6.9406,6.9406,6.9431,6.9579,7.0127,7.0704,7.1282,7.1761,7.229,7.2717,7.2717,7.2717,7.2717,7.2717,7.2666,7.2666,7.2692,7.2641,7.2616,7.2692,7.2641,7.2265,7.1309,7.1106,7.0681,6.9607,6.9431,6.9406,6.9406,6.9406,6.9406,6.9406,6.9406,6.9629,7.0177,6.9755,6.993,7.1031,7.1535,7.1334,7.035,7.03,7.0026,6.9406,6.9953,7.0227,7.0227,7.0729,7.0981,7.0981,7.0981,7.1006,4.5784,4.6235,4.6979,4.8426,0.0,0.0,0.0,0.0,0.0,0.0,0.0,0.0,0.0,0.0,5.7725,5.9156,6.1893,6.4103,6.4902,6.5459,6.5886,6.6086,6.609,6.609,6.609,6.609,6.609,6.609,6.609,6.609,6.609,6.609,6.609,6.609,6.609,6.609,6.609,6.609,6.609,6.609,6.6915,6.7643,6.8299,6.8374,6.8475,6.86,6.845,6.8475,6.8625,6.8826,6.908,6.9406,6.9406,6.9406,6.9406,6.9406,6.9406,6.9406,6.9406,6.9406,6.9406,6.9406,6.9654,6.9978,7.0227,7.0905,7.1636,7.1836,7.229,7.2717,7.2717,7.2717,7.2717,7.2717,7.2717,7.2717,7.2717,7.2441,7.229,7.2641,7.2164,7.1786,7.2039,7.1535,7.1058,7.096,7.0658,7.0455,7.0455,7.0455,7.033,6.9978,6.9629,6.9629,7.025,7.0102,7.0302,7.1056,7.0981,7.0729,7.0325,7.03,7.0177,6.9953,7.0177,7.0453,7.0805,7.1006,7.1106,7.1106,7.1106,7.1282,4.5081,4.5457,4.6451,0.0,0.0,0.0,0.0,0.0,0.0,0.0,0.0,0.0,0.0,0.0,0.0,6.0066,6.2647,6.4752,6.5434,6.5886,6.609,6.609,6.609,6.609,6.609,6.609,6.609,6.609,6.609,6.609,6.609,6.609,6.609,6.609,6.609,6.609,6.609,6.609,6.6212,6.6388,6.6614,6.7191,6.8095,6.7894,6.7919,6.8095,6.7894,6.7919,6.812,6.8274,6.8675,6.9155,6.9331,6.9406,6.9406,6.9406,6.9406,6.9406,6.9406,6.9406,6.9406,6.9406,6.9679,7.0051,7.0227,7.093,7.1636,7.1636,7.2163,7.2666,7.2491,7.2566,7.2717,7.2717,7.2717,7.2717,7.2717,7.2415,7.2265,7.2641,7.2113,7.1786,7.234,7.1836,7.141,7.161,7.1207,7.0905,7.1081,7.0956,7.0704,7.035,6.9755,6.9579,6.9978,7.0026,7.0154,7.0531,7.0204,7.0102,7.03,7.03,7.03,7.03,7.0629,7.0981,7.1334,7.151,7.161,7.161,7.161,7.1811,4.5773,4.5512,4.5914,0.0,0.0,0.0,0.0,0.0,0.0,0.0,0.0,0.0,5.6326,5.7581,0.0,6.0141,6.2647,6.4877,6.5936,6.609,6.609,6.609,6.609,6.609,6.609,6.609,6.609,6.609,6.609,6.609,6.609,6.609,6.609,6.609,6.609,6.609,6.609,6.609,6.6388,6.6987,6.6388,6.6413,6.7037,6.7565,6.7514,6.7037,6.7543,6.7467,6.7037,6.7568,6.812,6.865,6.918,6.9406,6.9406,6.9406,6.9406,6.9406,6.9406,6.9406,6.9406,6.9406,6.9406,6.9506,7.0102,7.0654,7.1106,7.1106,7.1887,7.2566,7.2039,7.229,7.2717,7.2717,7.2717,7.2717,7.2717,7.2717,7.2717,7.2717,7.2717,7.2541,7.2012,7.1912,7.1736,7.1207,7.0654,7.0503,7.1056,7.0629,7.0325,7.0325,6.9755,6.9406,6.9406,6.9406,6.9406,6.9406,6.9406,6.9679,7.0275,7.03,7.03,7.0325,7.1359,7.1912,7.1912,7.2441,7.2717,7.2717,7.2717,7.2717,4.5181,4.5733,0.0,4.8209,0.0,0.0,0.0,0.0,0.0,0.0,0.0,5.9263,5.9112,5.9489,6.0066,6.0814,6.2621,6.4325,6.5383,6.5534,6.5685,6.6061,6.609,6.609,6.609,6.609,6.609,6.609,6.609,6.609,6.609,6.609,6.609,6.609,6.609,6.609,6.609,6.609,6.6187,6.6363,6.6187,6.6614,6.7543,6.689,6.6739,6.6987,6.6714,6.6739,6.7037,6.7568,6.812,6.8625,6.8776,6.9077,6.9406,6.9406,6.9406,6.9406,6.9406,6.9406,6.9406,6.9406,6.9406,6.9431,6.9604,7.0079,7.0627,7.1006,7.161,7.219,7.2415,7.2591,7.2717,7.2717,7.2717,7.2717,7.2717,7.2717,7.2717,7.2717,7.2717,7.2666,7.2491,7.2466,7.2415,7.224,7.2089,7.2062,7.219,7.141,7.0855,7.0855,6.9981,6.9406,6.9406,6.9406,6.9406,6.9406,6.9406,6.9481,6.9654,7.0076,7.0501,7.0855,7.1535,7.2087,7.2466,7.2616,7.2717,7.2717,7.2717,7.2717,4.6035,4.6813,0.0,4.9967,5.2076,5.4662,5.8353,0.0,0.0,0.0,6.23,6.1296,6.1296,6.1296,6.1497,6.2114,6.3395,6.463,6.5484,6.5609,6.5735,6.604,6.609,6.609,6.609,6.609,6.609,6.609,6.609,6.609,6.609,6.609,6.609,6.609,6.609,6.609,6.609,6.609,6.609,6.609,6.609,6.6463,6.7116,6.6391,6.6312,6.6614,6.6262,6.6312,6.6686,6.7241,6.7794,6.8299,6.8525,6.8926,6.9406,6.9406,6.9406,6.9406,6.9406,6.9406,6.9406,6.9406,6.9406,6.9406,6.9406,6.9828,7.0376,7.0679,7.1309,7.1987,7.229,7.2541,7.2717,7.2717,7.2717,7.2717,7.2717,7.2717,7.2717,7.2717,7.2717,7.2717,7.2717,7.2717,7.2717,7.2717,7.2717,7.2541,7.2138,7.1485,7.1031,7.0805,6.9956,6.9406,6.9406,6.9406,6.9406,6.9406,6.9629,6.9755,6.9755,7.0328,7.088,7.141,7.1939,7.2365,7.2717,7.2717,7.2717,7.2717,7.2717,7.2717,4.7657,4.8375,4.9681,5.2385,5.3741,0.0,6.0431,6.2295,6.3304,6.435,0.0,6.2978,6.3028,6.2978,6.3128,6.3676,6.4601,6.5409,6.5961,6.6036,6.6061,6.609,6.609,6.609,6.609,6.609,6.609,6.609,6.609,6.609,6.609,6.609,6.609,6.609,6.609,6.609,6.609,6.609,6.609,6.609,6.609,6.609,6.609,6.609,6.609,6.609,6.609,6.609,6.614,6.6689,6.7288,6.7844,6.8324,6.8879,6.9406,6.9406,6.9406,6.9406,6.9406,6.9406,6.9406,6.9406,6.9406,6.9406,6.9406,6.9777,7.0227,7.0328,7.1081,7.1861,7.1962,7.2315,7.2717,7.2717,7.2666,7.2641,7.2692,7.2616,7.2591,7.2692,7.2666,7.2641,7.2692,7.2717,7.2717,7.2717,7.2666,7.2265,7.1284,7.1081,7.083,7.035,6.9755,6.9406,6.9406,6.9406,6.9406,6.9481,6.9978,7.035,7.0428,7.0905,7.1384,7.1887,7.2415,7.2717,7.2717,7.2717,7.2717,7.2717,7.2717,7.2717,4.6737,4.8661,5.1314,5.365,5.7248,6.0839,6.3245,6.43,6.4831,6.5078,6.4601,6.4274,6.468,6.4425,6.4174,6.43,6.4526,6.4852,6.5383,6.5459,6.5634,6.604,6.609,6.609,6.609,6.609,6.609,6.609,6.609,6.609,6.609,6.609,6.609,6.609,6.609,6.609,6.609,6.609,6.609,6.609,6.609,6.609,6.609,6.609,6.609,6.609,6.609,6.609,6.609,6.6237,6.689,6.7819,6.7919,6.855,6.9406,6.9406,6.9406,6.9406,6.9406,6.9406,6.9406,6.9406,6.9406,6.9406,6.9406,6.9481,6.978,7.0679,7.1106,7.146,7.2315,7.2616,7.2717,7.2717,7.2365,7.219,7.2616,7.2037,7.1686,7.2541,7.2365,7.2213,7.2641,7.2717,7.2717,7.2717,7.234,7.1987,7.1761,7.1006,7.0451,7.0325,6.9755,6.9406,6.9406,6.9406,6.9604,7.0076,7.0227,7.0679,7.151,7.1661,7.1786,7.1912,7.2415,7.2717,7.2717,7.2717,7.2717,7.2717,7.2717,7.2717,4.7967,5.0318,5.3298,5.6865,6.0306,6.3174,6.4576,6.5283,6.5685,6.5685,6.5459,6.5333,6.5634,6.5434,6.5279,6.5279,6.5279,6.5358,6.5634,6.5685,6.5785,6.6086,6.609,6.609,6.609,6.609,6.609,6.609,6.609,6.609,6.609,6.609,6.609,6.609,6.609,6.609,6.609,6.609,6.609,6.609,6.609,6.609,6.609,6.609,6.609,6.609,6.609,6.609,6.609,6.609,6.6614,6.7417,6.7693,6.8299,6.9029,6.9306,6.9406,6.9406,6.9406,6.9406,6.9406,6.9406,6.9406,6.9406,6.9406,6.9604,6.9953,7.0554,7.1081,7.161,7.2164,7.2516,7.2717,7.2717,7.2491,7.2365,7.2641,7.2265,7.2037,7.2591,7.2265,7.2087,7.2616,7.2717,7.2717,7.2717,7.2466,7.219,7.1937,7.1207,7.0579,7.0325,6.9755,6.9406,6.9406,6.9406,6.9654,7.0275,7.0529,7.1056,7.1887,7.2139,7.2265,7.2265,7.2566,7.2566,7.2315,7.2566,7.2566,7.2315,7.2591,7.2717,4.9298,5.2226,5.5691,6.0311,6.2722,6.4228,6.5208,6.586,6.6237,6.6137,6.609,6.609,6.609,6.609,6.609,6.609,6.609,6.609,6.609,6.609,6.609,6.609,6.609,6.609,6.609,6.609,6.609,6.609,6.609,6.609,6.609,6.609,6.609,6.609,6.609,6.609,6.609,6.599,6.599,6.609,6.609,6.604,6.5986,6.604,6.609,6.609,6.609,6.609,6.609,6.609,6.6463,6.7062,6.7593,6.8145,6.8675,6.9205,6.9406,6.9406,6.9406,6.9406,6.9406,6.9406,6.9406,6.9406,6.9406,6.973,7.0177,7.0275,7.093,7.1636,7.1736,7.2163,7.2566,7.2566,7.2641,7.2717,7.2717,7.2566,7.2466,7.2666,7.234,7.2164,7.2616,7.2717,7.2666,7.2566,7.2566,7.2315,7.1711,7.1257,7.0755,7.0202,6.9705,6.9406,6.9406,6.9481,6.9805,7.0378,7.093,7.146,7.2037,7.2466,7.2666,7.2566,7.2566,7.239,7.2037,7.239,7.2365,7.2039,7.2491,7.2717,4.7867,5.3038,5.8761,6.1823,6.3852,6.5254,6.5839,6.6438,6.6736,6.6212,6.609,6.609,6.609,6.609,6.609,6.609,6.609,6.609,6.609,6.609,6.609,6.609,6.609,6.609,6.609,6.609,6.609,6.609,6.609,6.609,6.609,6.609,6.609,6.609,6.609,6.609,6.609,6.5634,6.5634,6.609,6.609,6.586,6.5409,6.5886,6.609,6.609,6.609,6.609,6.609,6.609,6.6463,6.7062,6.7593,6.8145,6.8675,6.9205,6.9406,6.9406,6.9406,6.9406,6.9406,6.9406,6.9406,6.9406,6.9406,6.9456,6.9629,7.0152,7.0378,7.0604,7.1081,7.161,7.2012,7.2012,7.2365,7.2717,7.2717,7.1987,7.1585,7.2516,7.2641,7.2616,7.2692,7.2717,7.2541,7.2087,7.2012,7.1636,7.0629,7.0428,7.0177,6.9579,6.9456,6.9406,6.9406,6.9878,7.0403,7.0956,7.1485,7.2014,7.2566,7.2666,7.2491,7.2037,7.2012,7.219,7.2591,7.219,7.2215,7.2591,7.2666,7.2717,5.051,5.4888,5.9156,6.2822,6.453,6.553,6.6388,6.7041,6.7367,6.7116,6.6815,6.6488,6.614,6.609,6.609,6.609,6.609,6.609,6.609,6.609,6.609,6.609,6.609,6.609,6.609,6.609,6.609,6.609,6.609,6.609,6.609,6.609,6.609,6.609,6.609,6.609,6.609,6.5559,6.5279,6.5204,6.5509,6.5534,6.5329,6.586,6.609,6.609,6.609,6.609,6.609,6.609,6.6262,6.6538,6.7138,6.7668,6.8221,6.8751,6.913,6.9406,6.9406,6.9406,6.9406,6.9406,6.9406,6.9406,6.9406,6.9629,6.9878,6.9828,7.048,7.1182,7.1131,7.1736,7.234,7.234,7.2541,7.2717,7.2717,7.2315,7.1962,7.1836,7.229,7.2516,7.1912,7.229,7.2516,7.1987,7.1912,7.1736,7.1282,7.093,7.0654,7.038,7.0079,6.9903,6.9903,7.0152,7.0654,7.1485,7.1786,7.2139,7.2692,7.2717,7.2441,7.1912,7.1912,7.1736,7.1359,7.1736,7.1887,7.1836,7.2415,7.2717,5.1766,5.5056,5.7851,6.2165,6.3948,6.5032,6.646,6.7292,6.7794,6.7794,6.7593,6.7216,6.6639,6.6312,6.609,6.609,6.609,6.609,6.609,6.609,6.609,6.609,6.609,6.609,6.609,6.609,6.609,6.609,6.609,6.609,6.609,6.609,6.609,6.609,6.609,6.6015,6.5911,6.5358,6.4752,6.4073,6.4777,6.5028,6.4906,6.5584,6.5911,6.5889,6.604,6.609,6.609,6.609,6.609,6.614,6.6739,6.7339,6.7869,6.8399,6.8952,6.9406,6.9406,6.9406,6.9406,6.9406,6.9406,6.9406,6.9406,6.9705,6.9978,6.9529,7.0407,7.1384,7.1006,7.1686,7.2491,7.2491,7.2616,7.2717,7.2717,7.2717,7.2466,7.1661,7.2139,7.2441,7.1636,7.2164,7.2466,7.1811,7.1937,7.1962,7.1535,7.1359,7.1234,7.1131,7.0729,7.0478,7.0478,7.0629,7.1056,7.1861,7.2037,7.2265,7.2692,7.2717,7.2441,7.1912,7.1912,7.1435,7.0503,7.1182,7.141,7.1309,7.2114,7.2566,4.9079,5.185,5.4863,5.878,6.1366,6.3505,6.566,6.7015,6.7794,6.7794,6.8173,6.8349,6.7819,6.684,6.609,6.609,6.609,6.609,6.609,6.609,6.609,6.609,6.609,6.609,6.609,6.609,6.609,6.609,6.609,6.609,6.609,6.609,6.609,6.609,6.609,6.586,6.5333,6.4802,6.3998,6.2902,6.4023,6.4274,6.3802,6.4856,6.5333,6.5358,6.5886,6.609,6.609,6.609,6.609,6.614,6.6739,6.7339,6.7869,6.8399,6.8952,6.9406,6.9406,6.9406,6.9406,6.9406,6.9406,6.9406,6.9406,6.9406,6.9431,6.9406,6.9878,7.0401,7.035,7.1156,7.1937,7.1937,7.2315,7.2717,7.2717,7.2717,7.2692,7.2641,7.2666,7.2692,7.2641,7.2666,7.234,7.1284,7.2012,7.2113,7.0579,7.1257,7.1661,7.1133,7.1081,7.1056,7.1056,7.151,7.1836,7.1912,7.2365,7.2666,7.2717,7.2717,7.2441,7.1912,7.1912,7.161,7.1056,7.0604,7.088,7.1861,7.1937,7.2215,4.8426,5.0837,5.3607,5.7499,6.0136,6.2345,6.4576,6.6488,6.7894,6.8224,6.8475,6.855,6.8349,6.7417,6.6686,6.6686,6.6363,6.609,6.609,6.609,6.609,6.609,6.609,6.609,6.609,6.609,6.609,6.609,6.609,6.609,6.609,6.609,6.609,6.609,6.609,6.5685,6.4802,6.4249,6.3576,6.2827,6.3601,6.4073,6.4249,6.4978,6.5484,6.5835,6.6036,6.609,6.609,6.609,6.609,6.614,6.6739,6.7339,6.7869,6.8399,6.8952,6.9406,6.9406,6.9406,6.9406,6.9406,6.9406,6.9406,6.9406,6.9679,6.9978,6.9978,7.0629,7.1332,7.1332,7.1887,7.2415,7.2415,7.2566,7.2717,7.2717,7.2717,7.2591,7.224,7.2466,7.2591,7.224,7.2466,7.234,7.1282,7.1736,7.1861,7.093,7.1435,7.1836,7.1636,7.161,7.161,7.161,7.1786,7.2062,7.239,7.2591,7.2717,7.2717,7.2717,7.2441,7.1912,7.1912,7.1636,7.1106,7.1234,7.151,7.1912,7.224,7.2516,4.7245,4.9179,5.1724,5.5993,5.8045,6.0004,6.3873,6.5631,6.684,6.8299,6.86,6.865,6.8851,6.8145,6.7439,6.7062,6.6664,6.6338,6.6137,6.609,6.609,6.609,6.609,6.609,6.609,6.609,6.609,6.609,6.609,6.609,6.609,6.609,6.609,6.609,6.576,6.5229,6.4521,6.3751,6.3178,6.2827,6.3425,6.3898,6.4249,6.4978,6.5484,6.5835,6.6036,6.609,6.609,6.609,6.609,6.6137,6.6538,6.7141,6.7844,6.8221,6.8776,6.9406,6.9406,6.9406,6.9406,6.9406,6.9406,6.9406,6.9406,6.9828,7.03,7.03,7.1081,7.1912,7.1912,7.229,7.2717,7.2717,7.2717,7.2717,7.2717,7.2717,7.2591,7.224,7.2466,7.2591,7.2215,7.2466,7.239,7.1485,7.1836,7.1987,7.1435,7.1836,7.2164,7.2164,7.2164,7.2164,7.2164,7.2164,7.2315,7.2692,7.2717,7.2717,7.2717,7.2717,7.2541,7.2188,7.2164,7.1989,7.1636,7.1435,7.1535,7.1912,7.1912,7.2087,0.0,0.0,0.0,5.3959,5.4856,5.6356,6.3395,6.4228,6.4479,6.7797,6.85,6.8701,6.928,6.8954,6.8274,6.7213,6.7012,6.6811,6.6212,6.609,6.609,6.609,6.609,6.609,6.609,6.609,6.609,6.609,6.609,6.609,6.609,6.6065,6.6065,6.609,6.5053,6.4496,6.4496,6.34,6.2827,6.2827,6.3425,6.3701,6.3751,6.4806,6.5329,6.5333,6.5886,6.609,6.609,6.609,6.609,6.609,6.6137,6.6815,6.7794,6.7819,6.85,6.9406,6.9406,6.9406,6.9406,6.9406,6.9406,6.9406,6.9406,6.9828,7.0325,7.0325,7.1106,7.1937,7.1937,7.2315,7.2717,7.2717,7.2717,7.2717,7.2717,7.2717,7.2717,7.2717,7.2717,7.2717,7.2717,7.2717,7.2516,7.1987,7.234,7.2491,7.1987,7.234,7.2692,7.2717,7.2717,7.2717,7.2717,7.2717,7.2717,7.2717,7.2717,7.2717,7.2717,7.2717,7.2717,7.2717,7.2717,7.2717,7.2717,7.1131,7.0905,7.1912,7.0855,7.093,4.4704,0.0,0.0,0.0,0.0,0.0,5.7242,5.8855,6.0663,6.4802,6.5936,6.6865,6.9004,6.928,6.8929,6.8274,6.7514,6.6937,6.6786,6.6388,6.609,6.609,6.609,6.609,6.609,6.609,6.609,6.609,6.609,6.609,6.609,6.5735,6.571,6.6086,6.5053,6.4496,6.4496,6.3802,6.3229,6.2827,6.3425,6.3898,6.43,6.5003,6.5509,6.5886,6.6036,6.609,6.609,6.609,6.609,6.614,6.6564,6.7166,6.7844,6.8246,6.8826,6.9406,6.9406,6.9406,6.9406,6.9406,6.9406,6.9406,6.9406,7.0081,7.088,7.088,7.1661,7.2466,7.2466,7.2591,7.2717,7.2717,7.2717,7.2717,7.2717,7.2717,7.2717,7.2717,7.2717,7.2717,7.2717,7.2717,7.2516,7.1987,7.2037,7.2087,7.1937,7.2037,7.2265,7.2666,7.2717,7.2717,7.2717,7.2717,7.2717,7.2717,7.2717,7.2717,7.2717,7.2717,7.2717,7.2717,7.2717,7.2717,7.2717,7.224,7.219,7.2466,7.2164,7.219,0.0,0.0,0.0,0.0,0.0,0.0,5.5709,5.7148,5.8911,6.3822,6.5078,6.5986,6.8299,6.855,6.8424,6.8575,6.7894,6.7263,6.7037,6.6711,6.6388,6.6137,6.609,6.609,6.609,6.609,6.609,6.609,6.609,6.599,6.5785,6.5459,6.5434,6.576,6.5153,6.4726,6.4496,6.4199,6.3626,6.2827,6.3877,6.4425,6.4547,6.5304,6.581,6.609,6.609,6.609,6.609,6.609,6.609,6.6115,6.6488,6.7091,6.7844,6.817,6.8751,6.9406,6.9406,6.9406,6.9406,6.9406,6.9406,6.9406,6.9406,7.0181,7.1106,7.1106,7.1887,7.2717,7.2717,7.2717,7.2717,7.2717,7.2717,7.2717,7.2717,7.2717,7.2717,7.2717,7.2717,7.2717,7.2717,7.2717,7.2591,7.2265,7.2215,7.2215,7.2215,7.2215,7.234,7.2666,7.2717,7.2717,7.2717,7.2717,7.2717,7.2717,7.2717,7.2717,7.2717,7.2717,7.2717,7.2717,7.2717,7.2717,7.2717,7.2466,7.224,7.2039,7.2491,7.2591,4.5738,0.0,0.0,0.0,4.949,0.0,5.6086,5.678,5.7605,6.279,6.3793,6.4289,6.608,6.6055,6.6055,6.6976,6.6959,6.6918,6.7148,6.7087,6.6811,6.6262,6.614,6.609,6.609,6.609,6.609,6.609,6.604,6.5835,6.5409,6.5279,6.5279,6.5383,6.5333,6.5053,6.4521,6.4572,6.4023,6.2927,6.453,6.5053,6.4601,6.5634,6.609,6.609,6.609,6.609,6.609,6.609,6.609,6.609,6.609,6.6815,6.7794,6.7794,6.8475,6.9406,6.9406,6.9406,6.9406,6.9406,6.9406,6.9406,6.9406,7.0181,7.1131,7.1234,7.1962,7.2717,7.2717,7.2717,7.2717,7.2717,7.2717,7.2717,7.2717,7.2717,7.2717,7.2717,7.2717,7.2717,7.2717,7.2717,7.2717,7.2717,7.2666,7.2641,7.2692,7.2666,7.2641,7.2692,7.2717,7.2717,7.2717,7.2717,7.2717,7.2717,7.2717,7.2717,7.2717,7.2717,7.2717,7.2717,7.2717,7.2717,7.2717,7.2215,7.1736,7.1284,7.224,7.2441,4.616,4.6928,4.7767,0.0,0.0,0.0,4.9992,5.0334,5.1459,5.4401,5.4441,5.4731,5.7264,5.792,5.8015,5.7914,5.9561,6.2619,6.7585,6.7543,6.6962,6.6836,6.6388,6.609,6.609,6.609,6.609,6.609,6.571,6.5584,6.5936,6.5128,6.5053,6.5936,6.5534,6.5053,6.4521,6.4927,6.458,6.3525,6.4731,6.5254,6.5179,6.581,6.609,6.609,6.609,6.609,6.609,6.609,6.609,6.609,6.609,6.6815,6.7794,6.7794,6.8475,6.9406,6.9406,6.9406,6.9406,6.9406,6.9406,6.9406,6.9406,7.0181,7.1259,7.2139,7.2541,7.2717,7.2717,7.2717,7.2717,7.2717,7.2717,7.2717,7.2717,7.2717,7.2717,7.2717,7.2717,7.2717,7.2717,7.2717,7.2717,7.2717,7.2315,7.2215,7.2641,7.2315,7.2215,7.2666,7.2717,7.2717,7.2717,7.2717,7.2717,7.2717,7.2717,7.2717,7.2717,7.2717,7.2717,7.2717,7.2717,7.2717,7.2717,7.2591,7.2491,7.239,7.2616,7.2641,4.6863,4.729,4.8043,4.8604,0.0,0.0,0.0,4.8433,4.864,5.1388,5.1412,5.1602,5.3763,5.39,5.4018,5.5041,5.6645,5.9081,6.275,6.4778,6.6268,6.7286,6.7141,6.6965,6.6965,6.6714,6.6413,6.6115,6.538,6.5028,6.5304,6.4802,6.4752,6.5304,6.5559,6.5434,6.4902,6.5434,6.5157,6.4099,6.5183,6.5559,6.5329,6.586,6.609,6.609,6.609,6.609,6.609,6.609,6.609,6.609,6.609,6.6815,6.7794,6.7794,6.8475,6.9406,6.9406,6.9406,6.9406,6.9406,6.9406,6.9406,6.9406,7.0006,7.088,7.1686,7.1912,7.1962,7.2215,7.229,7.2365,7.2641,7.2717,7.2717,7.2717,7.2717,7.2717,7.2717,7.2717,7.2717,7.2717,7.2717,7.2717,7.2717,7.2466,7.239,7.2666,7.2466,7.239,7.2666,7.2717,7.2717,7.2717,7.2717,7.2717,7.2717,7.2717,7.2717,7.2717,7.2717,7.2717,7.2717,7.2717,7.2717,7.2717,7.2717,7.2717,7.2717,7.2717,7.2717,0.0,0.0,0.0,0.0,0.0,4.6965,0.0,0.0,0.0,4.8965,4.9003,4.8991,5.0246,4.989,5.0028,5.1964,5.3301,5.4581,5.5971,5.9652,6.3286,6.6195,6.6258,6.6448,6.738,6.6887,6.646,6.6287,6.4877,6.4199,6.4626,6.445,6.4425,6.4647,6.5484,6.5735,6.5283,6.5835,6.5609,6.4651,6.5634,6.5886,6.5459,6.5911,6.609,6.609,6.609,6.609,6.609,6.609,6.609,6.609,6.609,6.6815,6.7794,6.7794,6.8475,6.9406,6.9406,6.9406,6.9406,6.9406,6.9406,6.9406,6.9554,6.9903,7.0426,7.0956,7.1106,7.1207,7.1636,7.1761,7.1861,7.229,7.2466,7.2541,7.2541,7.2641,7.2717,7.2717,7.2717,7.2717,7.2717,7.2717,7.2717,7.2717,7.2717,7.2717,7.2717,7.2717,7.2717,7.2717,7.2717,7.2717,7.2717,7.2717,7.2717,7.2717,7.2717,7.2717,7.2717,7.2717,7.2717,7.2717,7.2717,7.2717,7.2717,7.2717,7.2717,7.2717,7.2717,7.2717,0.0,0.0,0.0,0.0,5.0719,0.0,0.0,0.0,4.3628,4.2571,0.0,4.1167,4.1365,0.0,0.0,4.2124,4.4197,4.6731,4.9526,5.1659,5.5157,6.124,6.0711,6.1538,6.5877,6.538,6.5354,6.6786,6.4028,6.3149,6.5103,6.4325,6.4249,6.5179,6.5329,6.5358,6.5283,6.5835,6.581,6.5229,6.581,6.6086,6.599,6.6065,6.609,6.609,6.609,6.609,6.609,6.609,6.609,6.609,6.609,6.6815,6.7794,6.7794,6.8475,6.9406,6.9406,6.9406,6.9406,6.9406,6.9406,6.9481,7.0051,7.025,7.0426,7.0956,7.1106,7.1131,7.1182,7.1207,7.1207,7.1282,7.1636,7.1987,7.1987,7.2365,7.2717,7.2717,7.2717,7.2717,7.2717,7.2717,7.2717,7.2717,7.2717,7.2717,7.2717,7.2717,7.2717,7.2717,7.2717,7.2717,7.2717,7.2717,7.2717,7.2717,7.2717,7.2717,7.2717,7.2717,7.2717,7.2717,7.2717,7.2717,7.2717,7.2717,7.2717,7.2717,7.2717,7.2717,0.0,0.0,0.0,0.0,0.0,0.0,4.6064,0.0,4.0565,0.0,0.0,0.0,0.0,0.0,0.0,0.0,4.2031,4.3768,4.5311,4.7014,5.0585,5.7323,5.7324,5.8272,6.2136,6.3426,6.39,6.3533,6.2874,6.2547,6.2785,6.398,6.4831,6.5304,6.5609,6.576,6.576,6.5986,6.5986,6.576,6.599,6.609,6.609,6.609,6.609,6.609,6.609,6.609,6.609,6.609,6.6312,6.6614,6.6614,6.7091,6.7844,6.817,6.8751,6.9406,6.9406,6.9406,6.9406,6.9406,6.9406,6.9456,6.9705,6.9777,6.9805,7.0056,7.0106,7.0181,7.0554,7.0629,7.078,7.141,7.1736,7.1987,7.229,7.2541,7.2717,7.2717,7.2717,7.2717,7.2717,7.2717,7.2717,7.2717,7.2717,7.2717,7.2717,7.2717,7.2717,7.2717,7.2717,7.2717,7.2717,7.2717,7.2717,7.2717,7.2717,7.2717,7.2717,7.2717,7.2717,7.2717,7.2717,7.2717,7.2717,7.2717,7.2717,7.2717,7.2717,7.2717,5.3934,0.0,0.0,0.0,0.0,0.0,0.0,0.0,0.0,0.0,0.0,0.0,0.0,0.0,0.0,0.0,0.0,4.2031,4.252,4.336,4.6346,5.2923,5.5121,5.681,5.862,6.1074,6.2316,6.1798,6.1697,6.1778,6.1949,6.379,6.5003,6.5283,6.5685,6.5961,6.609,6.609,6.609,6.609,6.609,6.609,6.609,6.609,6.609,6.609,6.609,6.609,6.609,6.6287,6.6589,6.7037,6.7339,6.7668,6.807,6.845,6.8952,6.9406,6.9406,6.9406,6.9406,6.9406,6.9406,6.9406,6.9406,6.9406,6.9406,6.9406,6.9406,6.9481,6.9928,7.0051,7.0302,7.1234,7.156,7.1836,7.2365,7.2591,7.2717,7.2717,7.2717,7.2717,7.2717,7.2717,7.2717,7.2717,7.2717,7.2717,7.2717,7.2717,7.2717,7.2717,7.2717,7.2717,7.2717,7.2717,7.2717,7.2717,7.2717,7.2717,7.2717,7.2717,7.2717,7.2717,7.2717,7.2717,7.2717,7.2717,7.2717,7.2717,7.2717,7.2717,0.0,0.0,0.0,5.2435,0.0,0.0,0.0,0.0,4.0879,0.0,0.0,0.0,0.0,0.0,0.0,0.0,0.0,0.0,0.0,4.0176,4.1581,4.7467,5.4051,5.7567,5.6158,5.8219,6.0744,6.3397,6.0643,6.0462,6.4191,6.3982,6.4228,6.5279,6.5329,6.5559,6.609,6.609,6.609,6.609,6.609,6.609,6.609,6.609,6.609,6.609,6.609,6.609,6.6162,6.6736,6.6987,6.7113,6.8123,6.855,6.8575,6.86,6.8952,6.9406,6.9406,6.9406,6.9406,6.9406,6.9406,6.9406,6.9406,6.9406,6.9406,6.9406,6.9406,6.9406,6.9406,6.9431,6.9579,7.0202,7.0755,7.1259,7.1811,7.2315,7.2717,7.2717,7.2717,7.2717,7.2717,7.2717,7.2717,7.2717,7.2717,7.2717,7.2717,7.2717,7.2717,7.2717,7.2717,7.2717,7.2717,7.2717,7.2717,7.2717,7.2717,7.2717,7.2717,7.2717,7.2717,7.2717,7.2717,7.2717,7.2717,7.2717,7.2717,7.2717,7.2717,7.2717,6.0763,6.114,6.0705,5.6594,0.0,0.0,0.0,0.0,0.0,0.0,0.0,0.0,0.0,0.0,0.0,0.0,0.0,0.0,0.0,3.9257,3.9848,4.2676,4.7466,5.0329,4.9788,5.3012,5.4968,5.4529,5.5037,5.642,5.8749,6.089,6.3065,6.5215,6.5634,6.5936,6.609,6.609,6.609,6.609,6.609,6.609,6.609,6.609,6.609,6.609,6.609,6.6338,6.6689,6.6912,6.7439,6.8073,6.845,6.8826,6.913,6.913,6.923,6.9406,6.9406,6.9406,6.9406,6.9406,6.9406,6.9406,6.9406,6.9406,6.9406,6.9406,6.9406,6.9406,6.9406,6.9406,6.9554,7.0152,7.0704,7.1257,7.1786,7.2315,7.2717,7.2717,7.2717,7.2717,7.2717,7.2717,7.2717,7.2717,7.2717,7.2717,7.2717,7.2717,7.2717,7.2717,7.2717,7.2717,7.2717,7.2717,7.2717,7.2717,7.2717,7.2717,7.2717,7.2717,7.2717,7.2717,7.2717,7.2717,7.2717,7.2717,7.2717,7.2717,7.2717,7.2717,6.2772,6.3149,6.2834,5.9246,5.6804,0.0,4.7917,0.0,4.5599,0.0,0.0,0.0,0.0,0.0,0.0,0.0,0.0,0.0,0.0,3.8769,3.9062,3.9746,4.3395,4.6126,4.6853,4.948,5.1029,5.0706,5.2512,5.4551,5.664,6.0143,6.3009,6.4961,6.5735,6.609,6.609,6.609,6.609,6.609,6.609,6.609,6.609,6.609,6.609,6.609,6.6338,6.6639,6.7037,6.7414,6.797,6.8625,6.8826,6.908,6.9406,6.9406,6.9406,6.9406,6.9406,6.9406,6.9406,6.9406,6.9406,6.9406,6.9406,6.9406,6.9406,6.9406,6.9406,6.9406,6.9406,6.9406,6.9554,7.0152,7.0554,7.1006,7.1736,7.2164,7.2466,7.2666,7.2717,7.2717,7.2717,7.2717,7.2717,7.2717,7.2717,7.2717,7.2717,7.2717,7.2717,7.2717,7.2717,7.2717,7.2717,7.2717,7.2717,7.2717,7.2717,7.2717,7.2717,7.2717,7.2717,7.2717,7.2717,7.2717,7.2717,7.2717,7.2717,7.2717,7.2717,7.2717]}]]